[[{"header":{"parameterUnit":"m.s-1","parameterCategory":1,"la1":31.0,"la2":29.5877,"lo1":-88.7671,"lo2":-86.6584,"dy":0.0162,"dx":0.0185,"nx":115,"ny":88,"refTime":"2023-08-13T12:00:00:Z","depth":0,"parameterNumber":2,"parameterNumberName":"U-component_of_WINDS"},"data":[0.0,0.0,0.0,0.0,0.0,0.0,0.0,0.0,0.0,0.0,0.0,0.0,0.0,0.0,0.0,0.0,0.0,0.0,0.0,0.0,0.0,0.0,0.0,0.0,0.0,0.0,0.0,0.0,0.0,0.0,0.0,0.0,0.0,0.0,0.0,0.0,0.0,0.0,0.0,0.0,0.0,0.0,0.0,0.0,0.0,0.0,0.0,0.0,0.0,0.0,0.0,0.0,0.0,0.0,0.0,0.0,0.0,0.0,0.0,0.0,0.0,0.0,0.0,0.0,0.0,0.0,0.0,0.0,0.0,0.0,0.0,0.0,0.0,0.0,0.0,0.0,0.0,0.0,0.0,0.0,0.0,0.0,0.0,0.0,0.0,0.0,0.0,0.0,0.0,0.0,0.0,0.0,0.0,0.0,0.0,0.0,0.0,0.0,0.0,0.0,0.0,0.0,0.0,0.0,0.0,0.0,0.0,0.0,0.0,0.0,0.0,0.0,0.0,0.0,0.0,0.0,0.0,0.0,0.0,0.0,0.0,0.0,0.0,0.0,0.0,0.0,0.0,0.0,0.0,0.0,0.0,0.0,0.0,0.0,0.0,0.0,0.0,0.0,0.0,0.0,0.0,0.0,0.0,0.0,0.0,0.0,0.0,0.0,0.0,0.0,0.0,0.0,0.0,0.0,0.0,0.0,0.0,0.0,0.0,0.0,0.0,0.0,0.0,0.0,0.0,0.0,0.0,0.0,0.0,0.0,0.0,0.0,0.0,0.0,0.0,0.0,0.0,0.0,0.0,0.0,0.0,0.0,0.0,0.0,0.0,0.0,0.0,0.0,0.0,0.0,0.0,0.0,0.0,0.0,0.0,0.0,0.0,0.0,0.0,0.0,0.0,0.0,0.0,0.0,0.0,0.0,0.0,0.0,0.0,0.0,0.0,0.0,0.0,0.0,0.0,0.0,0.0,0.0,0.0,0.0,0.0,0.0,0.0,0.0,0.0,0.0,0.0,0.0,0.0,0.0,0.0,0.0,0.0,0.0,0.0,0.0,0.0,0.0,0.0,0.0,0.0,0.0,0.0,0.0,0.0,0.0,0.0,0.0,0.0,0.0,0.0,0.0,0.0,0.0,0.0,0.0,0.0,0.0,0.0,0.0,0.0,0.0,0.0,0.0,0.0,0.0,0.0,0.0,0.0,0.0,0.0,0.0,0.0,0.0,0.0,0.0,0.0,0.0,0.0,0.0,0.0,0.0,0.0,0.0,0.0,0.0,0.0,0.0,0.0,0.0,0.0,0.0,0.0,0.0,0.0,0.0,0.0,0.0,0.0,0.0,0.0,0.0,0.0,0.0,0.0,0.0,0.0,0.0,0.0,0.0,0.0,0.0,0.0,0.0,0.0,0.0,0.0,0.0,0.0,0.0,0.0,0.0,0.0,0.0,0.0,0.0,0.0,0.0,0.0,0.0,0.0,0.0,0.0,0.0,0.0,0.0,0.0,0.0,0.0,0.0,0.0,0.0,0.0,0.0,0.0,0.0,0.0,0.0,0.0,0.0,0.0,0.0,0.0,0.0,0.0,0.0,0.0,0.0,0.0,0.0,0.0,0.0,0.0,0.0,0.0,0.0,0.0,0.0,0.0,0.0,0.0,0.0,0.0,0.0,0.0,0.0,0.0,0.0,0.0,0.0,0.0,0.0,0.0,0.0,0.0,0.0,0.0,0.0,0.0,0.0,0.0,0.0,0.0,0.0,0.0,0.0,0.0,0.0,0.0,0.0,0.0,0.0,0.0,0.0,0.0,0.0,0.0,0.0,0.0,0.0,0.0,0.0,0.0,0.0,0.0,0.0,0.0,0.0,0.0,0.0,0.0,0.0,0.0,0.0,0.0,0.0,0.0,0.0,0.0,0.0,0.0,0.0,0.0,0.0,0.0,0.0,0.0,0.0,0.0,0.0,0.0,0.0,0.0,0.0,0.0,0.0,0.0,0.0,0.0,0.0,0.0,0.0,0.0,0.0,0.0,0.0,0.0,0.0,0.0,0.0,0.0,0.0,0.0,0.0,0.0,0.0,0.0,0.0,0.0,0.0,0.0,0.0,0.0,0.0,0.0,0.0,0.0,0.0,0.0,0.0,0.0,0.0,0.0,0.0,0.0,0.0,0.0,0.0,0.0,0.0,0.0,0.0,0.0,0.0,0.0,0.0,0.0,0.0,0.0,0.0,0.0,0.0,0.0,0.0,0.0,0.0,0.0,0.0,0.0,0.0,0.0,0.0,0.0,0.0,0.0,0.0,0.0,0.0,0.0,0.0,0.0,0.0,0.0,0.0,0.0,0.0,0.0,0.0,0.0,0.0,0.0,0.0,0.0,0.0,0.0,0.0,0.0,0.0,0.0,0.0,0.0,0.0,0.0,0.0,0.0,0.0,0.0,0.0,0.0,0.0,0.0,0.0,0.0,0.0,0.0,0.0,0.0,0.0,0.0,0.0,0.0,0.0,0.0,0.0,0.0,0.0,0.0,0.0,0.0,0.0,0.0,0.0,0.0,0.0,0.0,0.0,0.0,0.0,0.0,0.0,0.0,0.0,0.0,0.0,0.0,0.0,0.0,0.0,0.0,0.0,0.0,0.0,0.0,0.0,0.0,0.0,0.0,0.0,0.0,0.0,0.0,0.0,0.0,0.0,0.0,0.0,0.0,0.0,0.0,0.0,0.0,0.0,0.0,0.0,0.0,0.0,0.0,0.0,0.0,0.0,0.0,0.0,0.0,0.0,0.0,0.0,0.0,0.0,0.0,0.0,0.0,0.0,0.0,0.0,0.0,0.0,0.0,0.0,0.0,0.0,0.0,0.0,0.0,0.0,0.0,0.0,0.0,0.0,0.0,0.0,0.0,0.0,0.0,0.0,0.0,0.0,0.0,0.0,0.0,0.0,0.0,0.0,0.0,0.0,0.0,0.0,0.0,0.0,0.0,0.0,0.0,0.0,0.0,0.0,0.0,0.0,0.0,0.0,0.0,0.0,0.0,0.0,0.0,0.0,0.0,0.0,0.0,0.0,0.0,0.0,0.0,0.0,0.0,0.0,0.0,0.0,0.0,0.0,0.0,0.0,0.0,0.0,0.0,0.0,0.0,0.0,0.0,0.0,0.0,0.0,0.0,0.0,0.0,0.0,0.0,0.0,0.0,0.0,0.0,0.0,0.0,0.0,0.0,0.0,0.0,0.0,0.0,0.0,0.0,0.0,0.0,0.0,0.0,0.0,0.0,0.0,0.0,0.0,0.0,0.0,0.0,0.0,0.0,0.0,0.0,0.0,0.0,0.0,0.0,0.0,0.0,0.0,0.0,0.0,0.0,0.0,0.0,0.0,0.0,0.0,0.0,0.0,0.0,0.0,0.0,0.0,0.0,0.0,0.0,0.0,0.0,0.0,0.0,0.0,0.0,0.0,0.0,0.0,0.0,0.0,0.0,0.0,0.0,0.0,0.0,0.0,0.0,0.0,0.0,0.0,0.0,0.0,0.0,0.0,0.0,0.0,0.0,0.0,0.0,0.0,0.0,0.0,0.0,0.0,0.0,0.0,0.0,0.0,0.0,0.0,0.0,0.0,0.0,0.0,0.0,0.0,0.0,0.0,0.0,0.0,0.0,0.0,0.0,0.0,0.0,0.0,0.0,0.0,0.0,0.0,0.0,0.0,0.0,0.0,0.0,0.0,0.0,0.0,0.0,0.0,0.0,0.0,0.0,0.0,0.0,0.0,0.0,0.0,0.0,0.0,0.0,0.0,0.0,0.0,0.0,0.0,0.0,0.0,0.0,0.0,0.0,0.0,0.0,0.0,0.0,0.0,0.0,0.0,0.0,0.0,0.0,0.0,0.0,0.0,0.0,0.0,0.0,0.0,0.0,0.0,0.0,0.0,0.0,0.0,0.0,0.0,0.0,0.0,0.0,0.0,0.0,0.0,0.0,0.0,0.0,0.0,0.0,0.0,0.0,0.0,0.0,0.0,0.0,0.0,0.0,0.0,0.0,0.0,0.0,0.0,0.0,0.0,0.0,0.0,0.0,0.0,0.0,0.0,0.0,0.0,0.0,0.0,0.0,0.0,0.0,0.0,0.0,0.0,0.0,0.0,0.0,0.0,0.0,0.0,0.0,0.0,0.0,0.0,0.0,0.0,0.0,0.0,0.0,0.0,0.0,0.0,0.0,0.0,0.0,0.0,0.0,0.0,0.0,0.0,0.0,0.0,0.0,0.0,0.0,0.0,0.0,0.0,0.0,0.0,0.0,0.0,0.2592,0.0,0.0,0.0,0.0,0.0,0.0,0.0,0.0,0.0,0.0,0.0,0.0,0.0,0.0,0.0,0.0,0.0,0.0,0.0,0.0,0.0,0.0,0.0,0.0,0.0,0.0,0.0,0.0,0.0,0.0,0.0,0.0,0.0,0.0,0.0,0.0,0.0,0.0,0.0,0.0,0.0,0.0,0.0,0.0,0.0,0.0,0.0,0.0,0.0,0.0,0.0,0.0,0.0,0.0,0.0,0.0,0.0,0.0,0.0,0.0,0.0,0.0,0.0,0.0,0.0,0.0,0.0,0.0,0.0,0.0,0.0,0.0,0.0,0.0,0.0,0.0,0.0,0.0,0.0,0.0,0.0,0.0,0.0,0.0,0.0,0.0,0.0,0.0,0.0,0.0,0.0,0.0,0.0,0.0,0.0,0.0,0.0,0.0,0.0,0.0,0.0,0.0,0.0,0.0,0.0,0.0,0.0,0.0,0.0,0.0,0.1675,0.1853,0.1111,0.0748,0.0733,0.0,0.0,0.0,0.0,0.0,0.0,0.0,0.0,0.0,0.0,0.0,0.0,0.0,0.0,0.0,0.0,0.0,0.0,0.0,0.0,0.0,0.0,0.0,0.0,0.0,0.0,0.0,0.0,0.0,0.0,0.0,0.0,0.0,0.0,0.0,0.0,0.0,0.0,0.0,0.0,0.0,0.0,0.0,0.0,0.0,0.0,0.0,0.0,0.0,0.0,0.0,0.0,0.0,0.0,0.0,0.0,0.0,0.0,0.0,0.0,0.0,0.0,0.0,0.0,0.0,0.0,0.0,0.0,0.0,0.0,0.0,0.0,0.0,0.0,0.0,0.0,0.0,0.0,0.0,0.0,0.0,0.0,0.0,0.0,0.0,0.0,0.0,0.0,0.0,0.0,0.0,0.0,0.0,0.0,0.0,0.0,0.0,0.0,0.0,0.0,0.0,0.0,0.0,0.0,0.0,0.0,0.0,0.0,0.0,0.0,0.0,0.0,-0.0864,-0.1179,-0.1082,0.0,0.0,0.0,0.0,0.0,0.0,0.0,0.0,0.0,0.0,0.0,0.0,0.0,0.0,0.0,0.0,0.0,0.0,0.0,0.0,0.0,0.0,0.0,0.0,0.0,0.0,0.0,0.0,0.0,0.0,0.0,0.0,0.0,0.0,0.0,0.0,0.0,0.0,0.0,0.0,0.0,0.0,0.0,0.0,0.0,0.0,0.0,0.0,0.0,0.0,0.0,0.0,0.0,0.0,0.0,0.0,0.0,0.0,0.0,0.0,0.0,0.0,0.0,0.0,0.0,0.0,0.0,0.0,0.0,0.0,0.0,0.0,0.0,0.0,0.0,0.0,0.0,0.0,0.0,0.0,0.0,0.0,0.0,0.0,0.0,0.0,0.0,0.0,0.0,0.0,0.0,0.0,0.0,0.0,0.0,0.0,0.0,0.0,0.0,0.0,0.0,0.0,0.0,0.0,0.0,0.0,0.0,0.0,0.0,0.0,-0.4224,-0.2236,-0.3243,0.0,-0.2445,0.0,0.0,0.0,0.0,0.0,0.0,0.0,0.0,0.0,0.0,0.0,0.0,0.0,0.0,0.0,0.0,0.0,0.0,0.0,0.0,0.0,0.0,0.0,0.0,0.0,0.0,0.0,0.0,0.0,0.0,0.0,0.0,0.0,0.0,0.0,0.0,0.0,0.0,0.0,0.0,0.0,0.0,0.0,0.0,0.0,0.0,0.0,0.0,0.0,0.0,0.0,0.0,0.0,0.0,0.0,0.0,0.0,0.0,0.0,0.0,0.0,0.0,0.0,0.0,0.0,0.0,0.0,0.0,0.0,0.0,0.0,0.0,0.0,0.0,0.0,0.0,0.0,0.0,0.0,0.0,0.0,0.0,0.0,0.0,0.0,0.0,0.0,0.0,0.0,0.0,0.0,0.0,0.0,0.0,0.0,0.0,0.0,0.0,0.0,0.0,0.0,0.0,0.0,0.0,0.0,0.0,0.0,0.0,0.0,0.0,-0.5447,-0.4018,-0.4586,-0.4606,0.0,0.0,0.0,0.0,0.0,0.0,0.0,0.0,0.0,0.0,0.0,0.0,0.0,0.0,0.0,0.0,0.0,0.0,0.0,0.0,0.0,0.0,0.0,0.0,0.0,0.0,0.0,0.0,0.0,0.0,0.0,0.0,0.0,0.0,0.0,0.0,0.0,0.0,0.0,0.0,0.0,0.0,0.0,0.0,0.0,0.0,0.0,0.0,0.0,0.0,0.0,0.0,0.0,0.0,0.0,0.0,0.0,0.0,0.0,0.0,0.0,0.0,0.0,0.0,0.0,0.0,0.0,0.0,0.0,0.0,0.0,0.0,0.0,0.0,0.0,0.0,0.0,0.0,0.0,0.0,0.0,0.0,0.0,0.0,0.0,0.0,0.0,0.0,0.0,0.0,0.0,0.0,0.0,0.0,0.0,0.0,0.0,0.0,0.0,0.0,0.0,0.0,0.0,0.0,0.0,0.0,0.0,0.0,0.0,0.0,-0.5672,-0.655,-0.5854,-0.5948,-0.5876,-0.5583,0.0,0.0,0.0,0.0,0.0,0.0,0.0,0.0,0.0,0.0,0.0,0.0,0.0,0.0,0.0,0.0,0.0,0.0,0.0,0.0,0.0,0.0,0.0,0.0,0.0,0.0,0.0,0.0,0.0,0.0,0.0,0.0,0.0,0.0,0.0,0.0,0.0,0.0,0.0,0.0,0.0,0.0,0.0,0.0,0.0,0.0,0.0,0.0,0.0,0.0,0.0,0.0,0.0,0.0,0.0,0.0,0.0,0.0,0.0,0.0,0.0,0.0,0.0,0.0,0.0,0.0,0.0,0.0,0.0,0.0,0.0,0.0,0.0,0.0,0.0,0.0,0.0,0.0,0.0,0.0,0.0,0.0,0.0,0.0,0.0,0.0,0.0,0.0,0.0,0.0,0.0,0.0,0.0,0.0,0.0,0.0,0.0,0.0,0.0,0.0,0.0,0.0,0.0,0.0,0.0,0.0,0.0,0.0,-0.537,-0.7346,-0.8154,-0.7698,-0.7593,-0.7426,0.0,0.0,0.0,0.0,0.0,0.0,0.0,0.0,0.0,0.0,0.0,0.0,0.0,0.0,0.0,0.0,0.0,0.0,0.0,0.0,0.0,0.0,0.0,0.0,0.0,0.0,0.0,0.0,0.0,0.0,0.0,0.0,0.0,0.0,0.0,0.0,0.0,0.0,0.0,0.0,0.0,0.0,0.0,0.0,0.0,0.0,0.0,0.0,0.0,0.0,0.0,0.0,0.0,0.0,0.0,0.0,0.0,0.0,0.0,0.0,0.0,0.0,0.0,0.0,0.0,0.0,0.0,0.0,0.0,0.0,0.0,0.0,0.0,0.0,0.0,0.0,0.0,0.0,0.0,0.0,0.0,0.0,0.0,0.0,0.0,0.0,0.0,0.0,0.0,0.0,0.0,0.0,0.0,0.0,0.0,0.0,0.0,0.0,0.0,0.0,0.0,0.0,0.0,0.0,0.0,0.0,0.0,0.0,0.0,-0.6144,-0.8112,-0.9175,-0.9299,-0.9176,-0.8913,0.0,0.0,0.0,0.0,0.0,0.0,0.0,0.0,0.0,0.0,0.0,0.0,0.0,0.0,0.0,0.0,0.0,0.0,0.0,0.0,0.0,0.0,0.0,0.0,0.0,0.0,0.0,0.0,0.0,0.0,0.0,0.0,0.0,0.0,0.0,0.0,0.0,0.0,0.0,0.0,0.0,0.0,0.0,0.0,0.0,0.0,0.0,0.0,0.0,0.0,0.0,0.0,0.0,0.0,0.0,0.0,0.0,0.0,0.0,0.0,0.0,0.0,0.0,0.0,0.0,0.0,0.0,0.0,0.0,0.0,0.0,0.0,0.0,0.0,0.0,0.0,0.0,0.0,0.0,0.0,0.0,0.0,0.0,0.0,0.0,0.0,0.0,0.0,0.0,0.0,0.0,0.0,0.0,0.0,0.0,0.0,0.0,0.0,0.0,0.0,0.0,0.0,0.0,0.0,0.0,0.0,0.0,0.0,0.0,-0.8051,0.0,-1.029,-1.0611,-1.0611,-1.0299,0.0,0.0,0.0,0.0,0.0,0.0,0.0,0.0,0.0,0.0,0.0,0.0,0.0,0.0,0.0,0.0,0.0,0.0,0.0,0.0,0.0,0.0,0.0,0.0,0.0,0.0,0.0,0.0,0.0,0.0,0.0,0.0,0.0,0.0,0.0,0.0,0.0,0.0,0.0,0.0,0.0,0.0,0.0,0.0,0.0,0.0,0.0,0.0,0.0,0.0,0.0,0.0,0.0,0.0,0.0,0.0,0.0,0.0,0.0,0.0,0.0,0.0,0.0,0.0,0.0,0.0,0.0,0.0,0.0,0.0,0.0,0.0,0.0,0.0,0.0,0.0,0.0,0.0,0.0,0.0,0.0,0.0,0.0,0.0,0.0,0.0,0.0,0.0,0.0,0.0,0.0,0.0,0.0,0.0,0.0,0.0,0.0,0.0,0.0,0.0,0.0,0.0,0.0,0.0,0.0,0.0,0.0,0.0,-0.721,-1.1495,-1.1594,-1.1655,-1.1689,-1.1852,-1.1636,0.0,0.0,0.0,0.0,0.0,0.0,0.0,0.0,0.0,0.0,0.0,0.0,0.0,0.0,0.0,0.0,0.0,0.0,0.0,0.0,0.0,0.0,0.0,0.0,0.0,0.0,0.0,0.0,0.0,0.0,0.0,0.0,0.0,0.0,0.0,0.0,0.0,0.0,0.0,0.0,0.0,0.0,0.0,0.0,0.0,0.0,0.0,0.0,0.0,0.0,0.0,0.0,0.0,0.0,0.0,0.0,0.0,0.0,0.0,0.0,0.0,0.0,0.0,0.0,0.0,0.0,0.0,0.0,0.0,0.0,0.0,0.0,0.0,0.0,0.0,0.0,0.0,0.0,0.0,0.0,0.0,0.0,0.0,0.0,0.0,0.0,0.0,0.0,0.0,0.0,0.0,0.0,0.0,0.0,0.0,0.0,0.0,0.0,0.0,0.0,0.0,0.0,0.0,0.0,0.0,0.0,0.0,0.0,0.0,-1.3515,-1.316,-1.302,-1.3355,-1.3258,-1.2932,0.0,0.0,0.0,0.0,0.0,0.0,0.0,0.0,0.0,0.0,0.0,0.0,0.0,0.0,0.0,0.0,0.0,0.0,0.0,0.0,0.0,0.0,0.0,0.0,0.0,0.0,0.0,0.0,0.0,0.0,0.0,0.0,0.0,0.0,0.0,0.0,0.0,0.0,0.0,0.0,0.0,0.0,0.0,0.0,0.0,0.0,0.0,0.0,0.0,0.0,0.0,0.0,0.0,0.0,0.0,0.0,0.0,0.0,0.0,0.0,0.0,0.0,0.0,0.0,0.0,0.0,0.0,0.0,0.0,0.0,0.0,0.0,0.0,0.0,0.0,0.0,0.0,0.0,0.0,0.0,0.0,0.0,0.0,0.0,0.0,0.0,0.0,0.0,0.0,0.0,0.0,0.0,0.0,0.0,0.0,0.0,0.0,0.0,0.0,0.0,0.0,0.0,0.0,0.0,0.0,0.0,0.0,0.0,0.0,-1.5229,-1.4691,-1.4614,-1.4964,-1.4804,-1.434,-1.3726,0.0,0.0,0.0,0.0,0.0,0.0,0.0,0.0,0.0,0.0,0.0,0.0,0.0,0.0,0.0,0.0,0.0,0.0,0.0,0.0,0.0,0.0,0.0,0.0,0.0,0.0,0.0,0.0,0.0,0.0,0.0,0.0,0.0,0.0,0.0,0.0,0.0,0.0,0.0,0.0,0.0,0.0,0.0,0.0,0.0,0.0,0.0,0.0,0.0,0.0,0.0,0.0,0.0,0.0,0.0,0.0,0.0,0.0,0.0,0.0,0.0,0.0,0.0,0.0,0.0,0.0,0.0,0.0,0.0,0.0,0.0,0.0,0.0,0.0,0.0,0.0,0.0,0.0,0.0,0.0,0.0,0.0,0.0,0.0,0.0,0.0,0.0,0.0,0.0,0.0,0.0,0.0,0.0,0.0,0.0,0.0,0.0,0.0,0.0,0.0,0.0,0.0,0.0,0.0,0.0,0.0,0.0,0.0,-1.6785,-1.6405,-1.6319,-1.6496,-1.6407,-1.5872,0.0,0.0,0.0,0.0,0.0,0.0,0.0,0.0,0.0,0.0,0.0,0.0,0.0,0.0,0.0,0.0,0.0,0.0,0.0,0.0,0.0,0.0,0.0,0.0,0.0,0.0,0.0,0.0,0.0,0.0,0.0,0.0,0.0,0.0,0.0,0.0,0.0,0.0,0.0,0.0,0.0,0.0,0.0,0.0,0.0,0.0,0.0,0.0,0.0,0.0,0.0,0.0,0.0,0.0,0.0,0.0,0.0,0.0,0.0,0.0,0.0,0.0,0.0,0.0,0.0,0.0,0.0,0.0,0.0,0.0,0.0,0.0,0.0,0.0,0.0,0.0,0.0,0.0,0.0,0.0,0.0,0.0,0.0,0.0,0.0,0.0,0.0,0.0,0.0,0.0,0.0,0.0,0.0,0.0,0.0,0.0,0.0,0.0,0.0,0.0,0.0,0.0,0.0,0.0,0.0,0.0,0.0,0.0,0.0,-1.6791,-1.7288,-1.7528,-1.7595,-1.7484,-1.7003,0.0,0.0,0.0,0.0,0.0,0.0,0.0,0.0,0.0,0.0,0.0,0.0,0.0,0.0,0.0,0.0,0.0,0.0,0.0,0.0,0.0,0.0,0.0,0.0,0.0,0.0,0.0,0.0,0.0,0.0,0.0,0.0,0.0,0.0,0.0,0.0,0.0,0.0,0.0,0.0,0.0,0.0,0.0,0.0,0.0,0.0,0.0,0.0,0.0,0.0,0.0,0.0,0.0,0.0,0.0,0.0,0.0,0.0,0.0,0.0,0.0,0.0,0.0,0.0,0.0,0.0,0.0,0.0,0.0,0.0,0.0,0.0,0.0,0.0,0.0,0.0,0.0,0.0,0.0,0.0,0.0,0.0,0.0,0.0,0.0,0.0,0.0,0.0,0.0,0.0,0.0,0.0,0.0,0.0,0.0,0.0,0.0,0.0,0.0,0.0,0.0,0.0,0.0,0.0,0.0,0.0,0.0,0.0,-1.5466,-1.73,-1.7901,-1.8294,-1.8471,-1.837,-1.7826,0.0,0.0,0.0,0.0,0.0,0.0,0.0,0.0,0.0,0.0,0.0,0.0,0.0,0.0,0.0,0.0,0.0,0.0,0.0,0.0,0.0,0.0,0.0,0.0,0.0,0.0,0.0,0.0,0.0,0.0,0.0,0.0,0.0,0.0,0.0,0.0,0.0,0.0,0.0,0.0,0.0,0.0,0.0,0.0,0.0,0.0,0.0,0.0,0.0,0.0,0.0,0.0,0.0,0.0,0.0,0.0,0.0,0.0,0.0,0.0,0.0,0.0,0.0,0.0,0.0,0.0,0.0,0.0,0.0,0.0,0.0,0.0,0.0,0.0,0.0,0.0,0.0,0.0,0.0,0.0,0.0,0.0,0.0,0.0,0.0,0.0,0.0,0.0,0.0,0.0,0.0,0.0,0.0,0.0,0.0,0.0,0.0,0.0,0.0,0.0,0.0,0.0,0.0,0.0,0.0,0.0,0.0,0.0,-1.6267,-1.8076,-1.8459,-1.8884,-1.9233,-1.8917,-1.8373,0.0,0.0,0.0,0.0,0.0,0.0,0.0,0.0,0.0,0.0,0.0,0.0,0.0,0.0,0.0,0.0,0.0,0.0,0.0,0.0,0.0,0.0,0.0,0.0,0.0,0.0,0.0,0.0,0.0,0.0,0.0,0.0,0.0,0.0,0.0,0.0,0.0,0.0,0.0,0.0,0.0,0.0,0.0,0.0,0.0,0.0,0.0,0.0,0.0,0.0,0.0,0.0,0.0,0.0,0.0,0.0,0.0,0.0,0.0,0.0,0.0,0.0,0.0,0.0,0.0,0.0,0.0,0.0,0.0,0.0,0.0,0.0,0.0,0.0,0.0,0.0,0.0,0.0,0.0,0.0,0.0,0.0,0.0,0.0,0.0,0.0,0.0,0.0,0.0,0.0,0.0,0.0,0.0,0.0,0.0,0.0,0.0,0.0,0.0,0.0,0.0,0.0,0.0,0.0,0.0,0.0,0.0,0.0,-1.7572,-1.8865,-1.9421,-1.9796,-1.9837,-1.9357,-1.8689,0.0,0.0,0.0,0.0,0.0,0.0,0.0,0.0,0.0,0.0,0.0,0.0,0.0,0.0,0.0,0.0,0.0,0.0,0.0,0.0,0.0,0.0,0.0,0.0,0.0,0.0,0.0,0.0,0.0,0.0,0.0,0.0,0.0,0.0,0.0,0.0,0.0,0.0,0.0,0.0,0.0,0.0,0.0,0.0,0.0,0.0,0.0,0.0,-2.1693,0.0,0.0,0.0,0.0,0.0,0.0,0.0,0.0,0.0,0.0,0.0,0.0,0.0,0.0,0.0,0.0,0.0,0.0,0.0,0.0,0.0,0.0,0.0,0.0,0.0,0.0,0.0,0.0,0.0,0.0,0.0,0.0,0.0,0.0,0.0,0.0,0.0,0.0,0.0,0.0,0.0,0.0,0.0,0.0,0.0,0.0,0.0,0.0,0.0,0.0,0.0,0.0,0.0,0.0,0.0,0.0,0.0,0.0,0.0,-1.8507,-1.9649,-2.0478,-2.0676,-2.0178,-1.9713,-1.9133,0.0,0.0,0.0,0.0,0.0,0.0,0.0,0.0,0.0,0.0,0.0,0.0,0.0,0.0,0.0,0.0,0.0,0.0,0.0,0.0,0.0,0.0,0.0,0.0,0.0,0.0,0.0,0.0,0.0,0.0,0.0,0.0,0.0,0.0,0.0,0.0,0.0,0.0,0.0,0.0,0.0,0.0,0.0,0.0,0.0,0.0,0.0,0.0,0.0,0.0,0.0,0.0,0.0,0.0,0.0,0.0,0.0,0.0,0.0,0.0,0.0,0.0,0.0,0.0,0.0,0.0,0.0,0.0,0.0,0.0,0.0,0.0,0.0,0.0,0.0,0.0,0.0,0.0,0.0,0.0,0.0,0.0,0.0,0.0,0.0,0.0,0.0,0.0,0.0,0.0,0.0,0.0,0.0,0.0,0.0,0.0,0.0,0.0,0.0,0.0,0.0,0.0,0.0,0.0,0.0,0.0,0.0,-1.8827,-1.935,-2.0549,-2.1429,-2.1452,-2.0635,-2.0161,-1.9687,-1.9052,0.0,0.0,0.0,0.0,0.0,0.0,0.0,0.0,0.0,0.0,0.0,0.0,0.0,0.0,0.0,0.0,0.0,0.0,0.0,0.0,0.0,0.0,0.0,0.0,0.0,0.0,0.0,0.0,0.0,0.0,0.0,0.0,0.0,0.0,0.0,0.0,0.0,0.0,-1.4947,-1.6191,0.0,0.0,0.0,0.0,0.0,0.0,0.0,0.0,-2.537,0.0,0.0,0.0,0.0,0.0,0.0,0.0,0.0,0.0,0.0,0.0,0.0,0.0,0.0,0.0,0.0,0.0,0.0,0.0,0.0,0.0,0.0,0.0,0.0,0.0,0.0,0.0,0.0,0.0,0.0,0.0,0.0,0.0,0.0,0.0,0.0,0.0,0.0,0.0,0.0,0.0,0.0,0.0,0.0,0.0,0.0,0.0,0.0,0.0,0.0,0.0,0.0,0.0,0.0,0.0,0.0,-1.9901,-1.9878,-2.0389,-2.1451,-2.2193,-2.2193,-2.1526,-2.1019,-2.0399,-1.9679,0.0,0.0,0.0,0.0,0.0,0.0,0.0,0.0,0.0,0.0,0.0,0.0,0.0,0.0,0.0,0.0,0.0,0.0,0.0,0.0,0.0,0.0,0.0,0.0,0.0,0.0,0.0,0.0,0.0,0.0,0.0,0.0,0.0,0.0,0.0,0.0,0.0,0.0,0.0,-1.7927,-1.897,0.0,0.0,0.0,0.0,0.0,0.0,0.0,0.0,-2.7482,0.0,0.0,0.0,0.0,0.0,0.0,0.0,0.0,0.0,0.0,0.0,0.0,0.0,0.0,0.0,0.0,0.0,0.0,0.0,0.0,0.0,0.0,0.0,0.0,0.0,0.0,0.0,0.0,0.0,0.0,0.0,0.0,0.0,0.0,0.0,0.0,0.0,0.0,0.0,0.0,0.0,0.0,0.0,0.0,0.0,0.0,0.0,0.0,0.0,0.0,0.0,0.0,0.0,0.0,0.0,-2.059,-2.0665,-2.1105,-2.2025,-2.2604,-2.2616,-2.1987,-2.1463,-2.0941,0.0,0.0,0.0,0.0,0.0,0.0,0.0,0.0,0.0,0.0,0.0,0.0,0.0,0.0,0.0,0.0,0.0,0.0,0.0,0.0,0.0,0.0,0.0,0.0,0.0,0.0,0.0,0.0,0.0,0.0,0.0,0.0,0.0,0.0,0.0,0.0,0.0,0.0,0.0,0.0,-1.9641,-2.0759,-2.3846,0.0,0.0,0.0,0.0,0.0,0.0,-2.8749,-2.9186,0.0,0.0,0.0,0.0,0.0,0.0,0.0,0.0,0.0,0.0,0.0,0.0,0.0,0.0,0.0,0.0,0.0,0.0,0.0,0.0,0.0,0.0,0.0,0.0,0.0,0.0,0.0,0.0,0.0,0.0,0.0,0.0,0.0,0.0,0.0,0.0,0.0,0.0,0.0,0.0,0.0,0.0,0.0,0.0,0.0,0.0,0.0,0.0,0.0,0.0,0.0,0.0,0.0,0.0,0.0,-2.1187,-2.1327,-2.1773,-2.2469,-2.2886,-2.2825,-2.2309,-2.1726,-2.1376,0.0,0.0,0.0,0.0,0.0,0.0,0.0,0.0,0.0,0.0,0.0,0.0,0.0,0.0,0.0,0.0,0.0,0.0,0.0,0.0,0.0,0.0,0.0,0.0,0.0,0.0,0.0,0.0,0.0,0.0,0.0,0.0,0.0,0.0,0.0,0.0,0.0,0.0,0.0,0.0,0.0,-2.2696,-2.5355,-2.7416,0.0,0.0,0.0,0.0,-2.9486,-3.0025,0.0,0.0,0.0,0.0,0.0,0.0,0.0,0.0,0.0,0.0,0.0,0.0,0.0,0.0,0.0,0.0,0.0,0.0,0.0,0.0,0.0,0.0,0.0,0.0,0.0,0.0,0.0,0.0,0.0,0.0,0.0,0.0,0.0,0.0,0.0,0.0,0.0,0.0,0.0,0.0,0.0,0.0,0.0,0.0,0.0,0.0,0.0,0.0,0.0,0.0,0.0,0.0,0.0,0.0,0.0,0.0,-2.1639,-2.1918,-2.2348,-2.2848,-2.303,-2.2921,-2.2616,-2.1951,-2.147,0.0,0.0,0.0,0.0,0.0,0.0,0.0,0.0,0.0,0.0,0.0,0.0,0.0,0.0,0.0,0.0,0.0,0.0,0.0,0.0,0.0,0.0,0.0,0.0,0.0,0.0,0.0,0.0,0.0,0.0,0.0,0.0,0.0,0.0,0.0,0.0,0.0,0.0,0.0,0.0,0.0,-2.4108,-2.722,-2.9617,-3.075,0.0,0.0,-3.0577,-3.1462,-3.1514,0.0,0.0,0.0,0.0,0.0,0.0,0.0,0.0,0.0,0.0,0.0,0.0,0.0,0.0,0.0,0.0,0.0,0.0,0.0,0.0,0.0,0.0,0.0,0.0,0.0,0.0,0.0,0.0,0.0,0.0,0.0,0.0,0.0,0.0,0.0,0.0,0.0,0.0,0.0,0.0,0.0,0.0,0.0,0.0,0.0,0.0,0.0,0.0,0.0,0.0,0.0,0.0,0.0,0.0,0.0,-2.1463,-2.2099,-2.247,-2.2774,-2.3017,-2.3078,-2.2896,-2.2543,-2.1951,-2.1544,0.0,0.0,0.0,0.0,0.0,0.0,0.0,0.0,0.0,0.0,0.0,0.0,0.0,0.0,0.0,0.0,0.0,0.0,0.0,0.0,0.0,0.0,0.0,0.0,0.0,0.0,0.0,0.0,0.0,0.0,0.0,0.0,0.0,0.0,0.0,0.0,0.0,0.0,0.0,0.0,0.0,0.0,-2.8316,-3.0774,0.0,0.0,0.0,-3.145,-3.2022,0.0,0.0,0.0,0.0,0.0,0.0,0.0,0.0,0.0,0.0,0.0,0.0,0.0,0.0,0.0,0.0,0.0,0.0,0.0,0.0,0.0,0.0,0.0,0.0,0.0,0.0,0.0,0.0,0.0,0.0,0.0,0.0,0.0,0.0,0.0,0.0,0.0,0.0,0.0,0.0,0.0,0.0,0.0,0.0,0.0,0.0,0.0,0.0,0.0,0.0,0.0,0.0,0.0,0.0,0.0,0.0,0.0,-2.2408,-2.2836,-2.3125,-2.3065,-2.3005,-2.2823,-2.242,-2.1827,0.0,0.0,0.0,0.0,0.0,0.0,0.0,0.0,0.0,0.0,0.0,0.0,0.0,0.0,0.0,0.0,0.0,0.0,0.0,0.0,0.0,0.0,0.0,0.0,0.0,0.0,0.0,-1.2681,0.0,0.0,0.0,0.0,0.0,0.0,0.0,0.0,0.0,0.0,0.0,0.0,0.0,0.0,-2.631,-2.928,-3.1605,-3.2765,0.0,0.0,-3.2272,-3.2428,-3.2792,-3.3081,0.0,0.0,0.0,0.0,0.0,0.0,0.0,0.0,0.0,0.0,0.0,0.0,0.0,0.0,0.0,0.0,0.0,0.0,0.0,0.0,0.0,0.0,0.0,0.0,0.0,0.0,0.0,0.0,0.0,0.0,0.0,0.0,0.0,0.0,0.0,0.0,0.0,0.0,0.0,0.0,0.0,0.0,0.0,0.0,0.0,0.0,0.0,0.0,0.0,0.0,0.0,0.0,0.0,0.0,-2.2013,-2.242,-2.2848,-2.3125,-2.3078,-2.2859,-2.2616,-2.2408,-2.1765,-2.1323,0.0,0.0,0.0,0.0,0.0,0.0,0.0,0.0,0.0,0.0,0.0,0.0,0.0,0.0,0.0,0.0,0.0,0.0,0.0,0.0,0.0,0.0,0.0,0.0,0.0,0.0,0.0,0.0,0.0,0.0,0.0,0.0,0.0,0.0,0.0,0.0,0.0,0.0,0.0,0.0,0.0,-2.7883,-3.0355,-3.2039,-3.3089,0.0,-3.2993,-3.3018,-3.3018,-3.3043,-3.3081,-3.3081,0.0,0.0,0.0,0.0,0.0,0.0,0.0,0.0,0.0,0.0,0.0,0.0,0.0,0.0,0.0,0.0,0.0,0.0,0.0,0.0,0.0,0.0,0.0,0.0,0.0,0.0,0.0,0.0,0.0,0.0,0.0,0.0,0.0,0.0,0.0,0.0,0.0,0.0,0.0,0.0,0.0,0.0,0.0,0.0,0.0,0.0,0.0,0.0,0.0,0.0,0.0,0.0,0.0,-2.2454,-2.3207,-2.3131,-2.3125,-2.3078,-2.2847,-2.2543,-2.2309,-2.1588,-2.1043,0.0,0.0,0.0,0.0,0.0,0.0,0.0,0.0,0.0,0.0,0.0,0.0,0.0,0.0,0.0,0.0,0.0,0.0,0.0,0.0,0.0,0.0,0.0,0.0,0.0,0.0,0.0,0.0,-1.5025,-1.6049,-1.7359,0.0,0.0,0.0,0.0,0.0,0.0,0.0,0.0,0.0,0.0,-2.8704,-3.0713,-3.2168,0.0,0.0,-3.3081,-3.3081,-3.3081,-3.3081,-3.3081,-3.3081,-3.3357,0.0,0.0,0.0,0.0,0.0,0.0,0.0,0.0,0.0,0.0,0.0,0.0,0.0,0.0,0.0,0.0,0.0,0.0,0.0,0.0,0.0,0.0,0.0,0.0,0.0,0.0,0.0,0.0,0.0,0.0,0.0,0.0,0.0,0.0,0.0,0.0,0.0,0.0,0.0,0.0,0.0,0.0,0.0,0.0,0.0,0.0,0.0,0.0,0.0,0.0,0.0,0.0,-2.3016,-2.3527,-2.3232,-2.3069,-2.2969,-2.2689,-2.2384,-2.2049,-2.1336,-2.0716,0.0,0.0,0.0,0.0,0.0,0.0,0.0,0.0,0.0,0.0,0.0,0.0,0.0,0.0,0.0,0.0,0.0,0.0,0.0,0.0,0.0,0.0,0.0,0.0,0.0,0.0,0.0,0.0,-1.6257,-1.7596,-1.8582,0.0,0.0,0.0,0.0,0.0,0.0,0.0,0.0,0.0,0.0,-2.927,-3.0984,-3.2277,-3.3139,-3.3154,-3.3081,-3.3081,-3.3081,-3.3081,-3.3119,-3.3294,0.0,0.0,0.0,0.0,0.0,0.0,0.0,0.0,0.0,0.0,0.0,0.0,0.0,0.0,0.0,0.0,0.0,0.0,0.0,0.0,0.0,0.0,0.0,0.0,0.0,0.0,0.0,-2.1797,0.0,0.0,-1.9325,0.0,0.0,0.0,0.0,0.0,0.0,0.0,0.0,0.0,0.0,0.0,0.0,0.0,0.0,0.0,0.0,0.0,0.0,0.0,0.0,0.0,0.0,-2.3721,-2.3235,-2.3128,-2.2984,-2.2714,-2.2371,-2.2049,-2.1726,-2.1019,-2.0259,-1.9647,0.0,0.0,0.0,0.0,0.0,0.0,0.0,0.0,0.0,0.0,0.0,0.0,0.0,0.0,0.0,0.0,0.0,0.0,0.0,0.0,0.0,0.0,0.0,0.0,0.0,0.0,-1.4868,-1.7764,-1.9694,0.0,0.0,0.0,0.0,0.0,0.0,0.0,0.0,0.0,-2.8279,-2.8867,-2.9663,-3.1204,-3.2339,-3.3081,-3.3116,-3.3081,-3.3081,-3.3081,-3.3081,-3.3257,0.0,0.0,0.0,0.0,0.0,0.0,0.0,0.0,0.0,0.0,0.0,0.0,0.0,0.0,0.0,0.0,0.0,0.0,0.0,0.0,0.0,0.0,0.0,0.0,0.0,0.0,0.0,-2.2125,-2.2646,0.0,0.0,0.0,0.0,0.0,0.0,0.0,0.0,0.0,0.0,0.0,-2.1364,-2.1445,0.0,0.0,0.0,0.0,0.0,0.0,0.0,0.0,0.0,0.0,0.0,0.0,-2.3887,-2.402,-2.3236,-2.2865,-2.2805,-2.2008,-2.1444,-2.1325,-2.0495,-1.9799,-1.9158,0.0,0.0,0.0,0.0,0.0,0.0,0.0,0.0,0.0,0.0,0.0,0.0,0.0,0.0,0.0,0.0,0.0,0.0,0.0,0.0,0.0,0.0,0.0,0.0,0.0,-1.6042,0.0,0.0,0.0,0.0,0.0,0.0,0.0,0.0,0.0,0.0,0.0,-2.6886,-2.8155,-2.9003,-3.0037,-3.1242,-3.2336,-3.3126,0.0,0.0,0.0,0.0,0.0,0.0,0.0,0.0,0.0,0.0,0.0,0.0,0.0,0.0,-3.5837,-3.6093,-3.5868,-3.5606,-3.5606,0.0,0.0,0.0,0.0,0.0,0.0,0.0,0.0,0.0,0.0,0.0,0.0,0.0,0.0,-2.3112,0.0,-2.3076,0.0,0.0,0.0,0.0,0.0,0.0,0.0,0.0,-2.1802,-2.1894,-2.1894,-2.1894,-2.1963,0.0,-2.2109,-2.2345,0.0,0.0,0.0,0.0,0.0,0.0,0.0,0.0,-2.3952,-2.4082,-2.3783,-2.3245,-2.2427,-2.1399,-2.0752,-2.0613,-1.977,-1.9132,-1.8745,-1.8909,-1.9122,0.0,0.0,0.0,0.0,0.0,0.0,0.0,0.0,0.0,0.0,0.0,0.0,0.0,0.0,0.0,0.0,0.0,0.0,0.0,0.0,0.0,0.0,0.0,-1.6972,0.0,0.0,0.0,0.0,0.0,0.0,0.0,0.0,0.0,-2.4566,-2.6063,-2.7401,-2.8597,-2.9164,-3.0056,-3.1517,0.0,0.0,0.0,0.0,0.0,0.0,0.0,-3.3319,-3.406,-3.4487,-3.4873,-3.5519,-3.6188,-3.6551,-3.648,0.0,0.0,-3.686,-3.6609,-3.637,-3.6275,-3.6275,-3.6068,-3.5625,-3.5563,-3.5537,0.0,0.0,0.0,0.0,0.0,0.0,0.0,0.0,-2.3125,-2.3125,0.0,-2.3061,0.0,0.0,0.0,0.0,0.0,-2.1934,0.0,0.0,-2.1953,-2.1924,-2.1943,-2.1943,-2.2139,-2.2519,-2.2529,-2.282,-2.3424,-2.2808,0.0,0.0,0.0,0.0,0.0,0.0,-2.3936,-2.3429,-2.4554,-2.4068,-2.1698,-2.0587,-1.9929,-1.9781,-1.8931,-1.8414,-1.8289,-1.8397,-1.86,-1.8922,-1.8825,0.0,0.0,0.0,0.0,0.0,0.0,0.0,0.0,0.0,0.0,0.0,0.0,0.0,0.0,0.0,0.0,0.0,0.0,0.0,0.0,-1.6629,0.0,0.0,0.0,0.0,0.0,0.0,0.0,0.0,0.0,0.0,-2.5466,-2.6583,-2.7872,-2.9449,0.0,0.0,0.0,0.0,-3.3153,-3.3116,-3.3081,-3.3081,-3.3081,-3.3081,-3.3445,-3.4512,0.0,0.0,-3.573,-3.6338,-3.6552,-3.6443,-3.626,-3.6271,-3.6288,-3.6332,-3.6275,-3.6003,-3.6015,-3.5908,-3.5667,-3.5485,-3.566,-2.3663,0.0,0.0,0.0,0.0,-2.3144,-2.3144,-2.3144,-2.3144,-2.3144,-2.3135,-2.3134,0.0,0.0,0.0,0.0,0.0,0.0,-2.2783,-2.2783,-2.2783,-2.2783,-2.2783,-2.2783,-2.2842,-2.2959,-2.2959,-2.3027,-2.3212,-2.3063,-2.3128,-2.3484,0.0,0.0,0.0,0.0,-2.3477,-2.2985,-2.3994,-2.3672,-2.1854,-1.9948,-1.8924,-1.8875,-1.8405,-1.8076,-1.7852,-1.8214,-1.8368,-1.8351,-1.847,0.0,0.0,0.0,0.0,0.0,0.0,0.0,0.0,0.0,0.0,0.0,0.0,0.0,0.0,0.0,0.0,0.0,0.0,0.0,-1.7706,-1.8234,-1.9212,0.0,0.0,0.0,0.0,0.0,0.0,0.0,0.0,0.0,-2.5427,-2.6724,-2.7903,0.0,0.0,-3.0713,-3.1841,-3.2629,-3.3139,-3.3154,-3.3081,0.0,-3.3081,-3.2982,-3.3046,-3.3744,-3.4077,-3.4255,-3.4472,-3.4656,-3.4755,-3.4524,-3.4487,-3.4438,-3.4247,-3.5092,-3.575,-3.5716,-3.5716,-3.5568,-3.5141,-3.5043,-3.5189,-2.4246,-2.3144,-2.3144,-2.3144,-2.3144,-2.3144,-2.3144,-2.3144,-2.3144,-2.3144,-2.3144,-2.3144,-2.2901,-2.2648,-2.2658,0.0,0.0,0.0,-2.3144,-2.3144,-2.3144,-2.3144,-2.3144,-2.3144,-2.3144,-2.3144,-2.3144,-2.3144,-2.3144,-2.3144,-2.3181,-2.3343,0.0,0.0,-2.3018,-2.304,-2.2868,-2.2603,-2.3152,-2.2823,-2.146,-1.9626,-1.8557,-1.8289,-1.794,-1.7734,-1.7599,-1.7731,-1.7787,-1.7801,-1.7787,-1.7468,0.0,0.0,0.0,0.0,0.0,0.0,0.0,0.0,0.0,0.0,0.0,-1.4816,-1.471,0.0,0.0,0.0,-1.6632,-1.7881,-1.895,-1.9575,0.0,0.0,0.0,0.0,0.0,0.0,0.0,-2.3144,-2.3477,-2.4206,-2.5421,-2.6642,-2.7899,-2.9274,-3.0418,-3.1416,-3.1982,0.0,-3.2698,-3.2822,-3.2822,-3.2822,-3.2822,-3.2649,-3.2723,-3.3165,-3.3617,-3.3766,-3.3594,-3.3606,-3.3409,-3.3155,-3.3074,-3.3062,-3.277,-3.3482,-3.4186,-3.4484,-3.4484,-3.4375,-3.3965,-3.3905,-3.3995,-2.4593,-2.3067,-2.3067,-2.3057,-2.3144,-2.3144,-2.3047,-2.3028,-2.3057,-2.3057,-2.3047,-2.3047,-2.3057,-2.3057,-2.3047,0.0,-2.3057,-2.3047,-2.3047,-2.3047,-2.3047,-2.3038,-2.3086,-2.3096,-2.3066,-2.295,-2.3047,-2.3047,-2.295,-2.3066,-2.3086,-2.3076,-2.2906,-2.3048,-2.3314,-2.2605,-2.2227,-2.2313,-2.2324,-2.1811,-2.0775,-1.9583,-1.8665,-1.8056,-1.7703,-1.7455,-1.7351,-1.7053,-1.7037,-1.725,-1.6934,-1.6541,-1.6116,0.0,0.0,0.0,0.0,0.0,0.0,0.0,0.0,0.0,0.0,0.0,0.0,0.0,0.0,-1.5974,-1.7943,0.0,-1.9769,-2.0536,0.0,0.0,0.0,-2.3106,-2.3144,-2.3144,-2.3144,-2.3144,0.0,0.0,-2.533,-2.6277,-2.7624,-2.9659,-3.0883,-3.1781,-3.2237,-3.214,-3.2115,-3.2288,-3.23,-3.23,-3.23,-3.23,-3.236,-3.2519,-3.3053,-3.3136,-3.2766,-3.2592,-3.2441,-3.2043,-3.2007,-3.1877,-3.1582,-3.157,-3.1794,-3.2453,-3.2734,-3.2782,-3.2535,-3.2418,-3.2558,-2.3487,-2.3095,-2.3095,-2.3125,-2.3144,-2.3096,-2.2668,-2.2095,-2.2823,-2.2861,-2.2403,-2.2511,-2.2608,-2.252,-2.2501,-2.2501,-2.253,-2.252,-2.2706,-2.2882,-2.2882,-2.2805,-2.2666,-2.2656,-2.249,-2.2197,-2.2187,-2.2187,-2.2197,-2.251,-2.2666,-2.2676,-2.2881,-2.2908,-2.2774,-2.2631,-2.2359,-2.17,-2.1521,-2.1055,-2.0154,-1.9541,-1.8898,-1.8253,-1.788,-1.7467,-1.7195,-1.6953,-1.6727,-1.6428,-1.6299,-1.6078,-1.556,-1.5144,0.0,0.0,0.0,0.0,0.0,0.0,0.0,0.0,0.0,-1.5364,-1.5297,0.0,-1.6015,0.0,-1.8107,-1.9595,-2.0155,-2.0953,0.0,0.0,-2.2794,-2.3067,-2.3144,-2.3144,-2.3144,-2.3144,-2.3232,-2.3634,-2.4436,-2.5015,-2.5947,-2.741,-2.9455,-3.0976,-3.1229,-3.1388,-3.1529,-3.1789,-3.1813,-3.1837,-3.1813,-3.1673,-3.1419,-3.118,-3.1219,-3.1211,-3.0938,-3.0846,-3.0767,-3.0514,-3.0318,-3.003,-2.9844,-2.9658,-2.9553,-2.9795,-3.0981,-3.1877,-3.1425,-3.1332,-3.1333,-2.252,-2.2451,-2.246,-2.2432,-2.2501,-2.2949,-2.2608,-2.1715,-2.2217,-2.2344,-2.2217,-2.2255,-2.2176,-2.2087,-2.198,-2.1989,-2.2087,-2.2176,-2.2362,-2.253,-2.2436,-2.2303,-2.2169,-2.1967,-2.1839,-2.1627,-2.1617,-2.1617,-2.1636,-2.1849,-2.1964,-2.189,-2.2294,-2.2399,-2.2178,-2.2434,-2.2178,-2.1423,-2.0992,-2.0184,-1.9096,-1.9077,-1.8711,-1.7803,-1.7402,-1.7037,-1.6663,-1.6401,-1.603,-1.5701,-1.5651,-1.5482,-1.5198,-1.4958,-1.484,0.0,0.0,0.0,0.0,0.0,0.0,0.0,0.0,0.0,0.0,0.0,-1.6422,-1.6977,-1.8601,-1.982,-2.0374,-2.123,-2.1845,-2.2264,-2.2618,-2.2794,-2.2969,-2.2969,-2.296,-2.3047,-2.3144,-2.3399,-2.4088,-2.4425,-2.5023,-2.6172,-2.7728,-2.8982,-2.9639,-3.0021,-3.0185,-3.0343,-3.0442,-3.0442,-3.043,-3.0267,-3.008,-2.9716,-2.9627,-2.9527,-2.9183,-2.9093,-2.9004,-2.8667,-2.8475,-2.8294,-2.8032,-2.7952,-2.7861,-2.8017,-2.8723,-2.9494,-2.9656,-2.9736,-2.9646,-2.1682,-2.1692,-2.1692,-2.1728,-2.1774,-2.2428,-2.2283,-2.1585,-2.1692,-2.1817,-2.2041,-2.198,-2.182,-2.1642,-2.1553,-2.1562,-2.1642,-2.182,-2.1891,-2.1915,-2.1736,-2.1597,-2.157,-2.1193,-2.0985,-2.0938,-2.0938,-2.0938,-2.0938,-2.0995,-2.1023,-2.1033,-2.1438,-2.1664,-2.1569,-2.176,-2.1646,-2.1154,-2.0462,-1.9289,-1.7873,-1.836,-1.8139,-1.7123,-1.6724,-1.6333,-1.6078,-1.5702,-1.536,-1.5061,-1.5006,-1.4965,-1.4809,-1.4822,-1.4872,0.0,-1.5144,0.0,0.0,0.0,0.0,0.0,0.0,0.0,0.0,-1.6028,-1.6784,-1.79,-1.8904,-1.982,-2.0473,-2.1284,-2.1839,-2.2008,-2.2167,-2.2422,-2.2706,-2.2715,-2.2794,-2.2969,-2.3057,-2.3301,-2.391,-2.4078,-2.4496,-2.5406,-2.5857,-2.6523,-2.7567,-2.8321,-2.8717,-2.8637,-2.8637,-2.8763,-2.8729,-2.8694,-2.8596,-2.8302,-2.8248,-2.8083,-2.7712,-2.7624,-2.7414,-2.7082,-2.6947,-2.6826,-2.6636,-2.6578,-2.6489,-2.6531,-2.6674,-2.6971,-2.7793,-2.7981,-2.7818,-2.1731,-2.1679,-2.1706,-2.1724,-2.1635,-2.1096,-2.0953,-2.1123,-2.1491,-2.15,-2.1257,-2.1266,-2.1177,-2.1087,-2.1015,-2.1015,-2.1087,-2.1006,-2.1016,-2.1062,-2.0989,-2.0769,-2.0329,-2.0227,-2.0014,-1.97,-1.9691,-1.9691,-1.97,-2.0024,-2.0272,-2.0199,-2.0597,-2.0622,-2.0292,0.0,0.0,0.0,-1.985,-1.8434,-1.7056,-1.7282,-1.7379,-1.7,-1.6766,0.0,-1.5801,-1.5561,-1.517,-1.4566,-1.4566,0.0,0.0,0.0,0.0,0.0,0.0,0.0,0.0,0.0,0.0,0.0,-1.5825,-1.5825,-1.5825,-1.6204,-1.6777,-1.7426,-1.8357,-1.9188,-1.9737,-2.0934,-2.1768,-2.1741,-2.1836,-2.1994,-2.2432,-2.2432,-2.253,-2.253,-2.2706,-2.292,-2.3095,-2.3359,-2.3662,-2.4035,-2.4364,-2.4712,-2.4992,-2.6541,-2.7623,-2.7656,-2.7579,-2.7634,-2.7656,-2.7623,-2.748,-2.7304,-2.7304,-2.7106,-2.6928,-2.685,-2.6783,-2.6404,-2.6246,-2.6034,-2.5865,-2.5624,-2.5492,-2.5452,-2.5432,-2.5756,-2.6753,-2.6943,-2.68,-2.141,-2.1015,-2.1024,-2.0978,0.0,-2.0506,-1.9984,-1.9533,-2.0576,-2.0771,-2.0331,-2.0257,-2.009,-1.9992,-1.9724,-1.9638,-1.9718,-1.9815,-1.9799,-1.9869,-1.9762,-1.9547,-1.9324,-1.9146,-1.886,-1.8674,-1.8665,-1.8674,-1.8683,-1.8878,-1.9048,-1.9048,-1.9431,-1.945,-1.9115,-1.8693,-1.9039,-2.0181,-1.9018,-1.7596,-1.583,-1.586,-1.607,-1.6214,-1.5989,0.0,0.0,0.0,0.0,0.0,0.0,0.0,0.0,-1.4302,0.0,-1.4716,-1.4743,-1.493,-1.5351,-1.5398,-1.5518,-1.5805,-1.5825,-1.5825,-1.5825,-1.6305,-1.6777,-1.7153,-1.8079,-1.8819,-1.9371,-2.0391,-2.1032,-2.1195,-2.132,-2.1578,-2.1989,-2.2087,-2.2176,-2.2353,-2.253,-2.2618,-2.2627,-2.2803,-2.2969,-2.3154,-2.3416,-2.3677,-2.3978,-2.5173,-2.6152,-2.6325,-2.6336,-2.6336,-2.6336,-2.6249,-2.6173,-2.5989,-2.5805,-2.5738,-2.5497,-2.542,-2.5409,-2.5135,-2.4948,-2.487,-2.4781,-2.4604,-2.4515,-2.4515,-2.4525,-2.4604,-2.5155,-2.5409,-2.5482,-2.1077,-2.0331,-2.0065,-2.0,-2.0059,-2.003,-1.9129,-1.7702,0.0,0.0,0.0,-1.9123,-1.9015,-1.8814,-1.8431,-1.8387,-1.8387,-1.8559,-1.8604,-1.8615,-1.8482,-1.8296,-1.822,-1.7933,-1.7789,-1.7789,-1.7789,-1.7789,-1.7789,-1.7789,-1.7797,-1.7823,-1.8085,-1.8145,-1.7896,-1.7051,-1.7207,-1.8255,-1.7796,-1.6621,-1.4705,-1.4608,-1.4816,-1.5311,-1.5159,-1.4915,-1.465,-1.4482,-1.4237,-1.3997,-1.4004,-1.4103,-1.4336,-1.4356,-1.4462,-1.4694,-1.4714,-1.4847,-1.5126,-1.5146,-1.5299,-1.5725,-1.5798,-1.5825,-1.5825,-1.6298,-1.6683,-1.6885,-1.7807,-1.8535,-1.8996,-1.9629,-2.0184,-2.0564,-2.0808,-2.1078,-2.1463,-2.1553,-2.1722,-2.2087,-2.2176,-2.2264,-2.2255,-2.2344,-2.2432,-2.2706,-2.2882,-2.3057,-2.3513,-2.4237,-2.488,-2.4955,-2.5072,-2.4988,-2.4956,-2.4913,-2.47,-2.4773,-2.455,-2.4337,-2.4186,-2.411,-2.4024,-2.3921,-2.3764,-2.3794,-2.3687,-2.3727,-2.3657,-2.3667,-2.3657,-2.3667,-2.3697,-2.3957,-2.4185,-2.0793,-2.0226,-1.9412,-1.9003,-1.9003,-1.8957,-1.8217,-1.6984,-1.8049,-1.8136,-1.7461,-1.793,-1.812,-1.8033,-1.7731,-1.7795,-1.7953,-1.7795,-1.762,-1.7488,-1.7524,-1.7338,-1.6974,-1.6918,-1.6894,-1.6894,-1.6894,-1.6894,-1.6894,-1.6894,-1.6894,-1.6902,-1.695,-1.681,-1.6397,-1.5732,-1.5322,-1.5161,-1.5573,-1.5347,-1.458,-1.4316,-1.435,-1.481,-1.4741,-1.4657,-1.4482,-1.4243,-1.3997,-1.3737,-1.3568,-1.3502,-1.354,-1.3553,-1.356,-1.3592,-1.3598,-1.3726,-1.3995,-1.4197,-1.4698,-1.5404,-1.5691,-1.5825,-1.5825,-1.6298,-1.6581,-1.6683,-1.734,-1.7986,-1.8419,-1.878,-1.9422,-2.0192,-2.0339,-2.0593,-2.0997,-2.1087,-2.1096,-2.1266,-2.1374,-2.1651,-2.182,-2.1998,-2.2176,-2.2353,-2.2441,-2.2618,-2.2979,-2.363,-2.4064,-2.4024,-2.4013,-2.4003,-2.4003,-2.4003,-2.4003,-2.3927,-2.3917,-2.3831,-2.3754,-2.3754,-2.3677,-2.359,-2.3503,-2.3406,-2.3232,-2.3232,-2.3232,-2.3222,-2.3222,-2.3222,-2.3222,-2.33,-2.3408,-2.0102,-1.9817,-1.9137,-1.8033,-1.6964,-1.6707,-1.6339,-1.6026,-1.6352,-1.641,-1.6264,-1.6748,-1.6985,-1.6969,-1.6528,-1.6437,-1.6522,-1.6445,-1.6361,-1.6293,-1.6286,-1.6126,-1.5989,-1.5982,-1.5982,-1.5982,-1.5982,-1.5982,-1.5982,-1.5982,-1.5982,-1.5982,-1.5906,-1.5575,-1.5159,-1.4748,-1.4334,-1.3906,-1.4621,-1.4608,-1.3776,-1.3782,-1.3789,-1.3984,-1.3984,-1.3977,-1.3808,-1.3737,-1.3652,-1.3568,-1.3483,-1.3398,-1.3398,-1.3398,-1.3398,-1.3398,-1.3398,-1.3519,-1.3792,-1.4039,-1.4482,-1.4982,-1.5232,-1.547,-1.5622,-1.6123,-1.6407,-1.6588,-1.7153,-1.7621,-1.7978,-1.8527,-1.898,-1.9463,-1.9621,-1.9985,-2.0275,-2.0374,-2.0555,-2.0826,-2.0925,-2.1114,-2.1275,-2.1445,-2.1544,-2.1624,-2.183,-2.2026,-2.2185,-2.252,-2.296,-2.3309,-2.3396,-2.3406,-2.3406,-2.3319,-2.3232,-2.3232,-2.3144,-2.3047,-2.3047,-2.3057,-2.2969,-2.2882,-2.2882,-2.2882,-2.2696,-2.2706,-2.2696,-2.2706,-2.2706,-2.2706,-2.2696,-2.2696,-2.2872,-1.9062,-1.8946,-1.8335,-1.7037,-1.5359,-1.4778,-1.4782,-1.5104,-1.5013,-1.4937,-1.503,-1.5655,-1.5959,-1.593,-1.5427,-1.5235,-1.5235,-1.5228,-1.5235,-1.5228,-1.5228,-1.5235,-1.5151,-1.5144,-1.5144,-1.5144,-1.5144,-1.5061,-1.5144,-1.5061,-1.5144,-1.5068,-1.4915,-1.4573,-1.423,-1.399,-1.3659,-1.3313,-1.4044,-1.4044,-1.33,-1.33,-1.33,-1.3398,-1.3398,-1.3398,-1.3398,-1.3307,-1.3222,-1.3222,-1.3143,-1.3064,-1.3058,-1.3058,-1.3058,-1.3058,-1.3052,-1.323,-1.3529,-1.3888,-1.4224,-1.4519,-1.4793,-1.5047,-1.5308,-1.5738,-1.6156,-1.648,-1.6965,-1.734,-1.7628,-1.8179,-1.855,-1.8727,-1.8988,-1.9271,-1.9654,-1.9745,-1.9928,-2.0391,-2.0473,-2.0564,-2.0727,-2.0727,-2.0817,-2.1006,-2.132,-2.1518,-2.1562,-2.1498,-2.1738,-2.2413,-2.2784,-2.2969,-2.2969,-2.2882,-2.2794,-2.2706,-2.2618,-2.253,-2.2441,-2.2353,-2.2264,-2.2264,-2.2264,-2.2264,-2.2353,-2.2353,-2.2353,-2.2441,-2.2441,-2.2441,-2.2432,-2.2432,-2.253,-1.7332,-1.7198,-1.6176,-1.5618,-1.531,-1.4496,-1.4189,-1.4266,-1.4378,-1.4112,-1.3711,-1.4496,-1.4874,-1.486,-1.4748,-1.4734,-1.4734,-1.4734,-1.4734,-1.4734,-1.4734,-1.465,-1.4475,-1.4482,-1.4391,-1.423,-1.4243,-1.4243,-1.4223,-1.4223,-1.4237,-1.4166,-1.3997,-1.3815,-1.373,-1.3392,-1.3052,-1.279,-1.3284,-1.3455,-1.3398,-1.3014,-1.293,-1.3398,-1.3398,-1.3398,-1.3313,-1.296,-1.279,-1.2705,-1.2375,-1.2129,-1.2129,-1.2123,-1.2129,-1.2123,-1.2123,-1.2307,-1.2759,-1.3163,-1.3422,-1.39,-1.4225,-1.4481,-1.4743,-1.5067,-1.5465,-1.6135,-1.6683,-1.7066,-1.7333,-1.7621,-1.7986,-1.8249,-1.8434,-1.8719,-1.9188,-1.9279,-1.9387,-1.9671,-1.9671,-1.9754,-1.992,-2.0019,-2.0201,-2.0555,-2.0879,-2.1077,-2.0925,-2.0747,-2.0639,-2.1239,-2.1891,-2.2344,-2.2432,-2.2432,-2.2344,-2.2353,-2.2353,-2.2246,-2.205,-2.2041,-2.2069,-2.159,-2.163,-2.1701,-2.1915,-2.2097,-2.212,-2.1998,-2.2105,-2.2296,-2.2334,-2.2268,-2.2347,-1.6141,-1.5569,-1.4886,-1.4613,-1.4544,-1.3964,-1.388,-1.4082,-1.3899,-1.3522,-1.314,-1.3613,-1.3984,-1.4068,-1.3977,-1.3899,-1.3899,-1.3984,-1.3899,-1.3899,-1.3893,-1.3899,-1.3808,-1.3815,-1.3724,-1.3561,-1.3665,-1.3587,-1.3307,-1.3294,-1.3307,-1.3222,-1.3137,-1.3052,-1.2966,-1.279,-1.254,-1.2289,-1.2484,-1.2484,-1.2363,-1.2357,-1.2357,-1.2546,-1.2546,-1.2552,-1.2546,-1.2381,-1.2289,-1.2289,-1.2129,-1.1957,-1.1957,-1.1957,-1.1957,-1.1957,-1.1957,-1.2043,-1.2289,-1.2394,-1.2604,-1.2921,-1.3383,-1.374,-1.4018,-1.4549,-1.4987,-1.5371,-1.6014,-1.6595,-1.6871,-1.7153,-1.7434,-1.7699,-1.7885,-1.8179,-1.8458,-1.8542,-1.8643,-1.892,-1.8928,-1.902,-1.9196,-1.9371,-1.9654,-2.0036,-2.036,-2.0468,-2.0218,-1.996,-2.0042,-2.0357,-2.0826,-2.1266,-2.1535,-2.1535,-2.1544,-2.1544,-2.1535,-2.1507,-2.1271,-2.1128,-2.1056,-2.0743,-2.0647,-2.0638,-2.0712,-2.0757,-2.0834,-2.0957,-2.093,-2.0921,-2.093,-2.0921,-2.1148,-1.5351,-1.4621,-1.4041,-1.3711,-1.3665,-1.319,-1.3294,-1.3606,-1.3319,-1.2857,-1.2577,-1.2869,-1.3058,-1.3228,-1.3307,-1.3398,-1.3398,-1.3307,-1.3307,-1.3307,-1.3228,-1.3222,-1.3137,-1.3137,-1.3052,-1.2887,-1.2991,-1.2906,-1.2448,-1.2357,-1.2272,-1.2272,-1.2357,-1.2277,-1.21,-1.202,-1.1935,-1.1774,-1.1785,-1.1693,-1.1505,-1.1413,-1.1591,-1.1774,-1.1774,-1.1774,-1.1774,-1.178,-1.1693,-1.1688,-1.1693,-1.1693,-1.1688,-1.1688,-1.1607,-1.1602,-1.1693,-1.1693,-1.1688,-1.1688,-1.1852,-1.219,-1.2563,-1.2939,-1.3285,-1.3847,-1.4203,-1.457,-1.5217,-1.5819,-1.6305,-1.669,-1.6965,-1.7145,-1.7246,-1.7535,-1.7714,-1.7807,-1.7986,-1.8272,-1.8365,-1.8458,-1.8635,-1.8819,-1.9012,-1.9304,-1.9637,-1.9754,-1.9412,-1.9255,-1.9231,-1.9554,-1.9837,-2.0192,-2.0637,-2.0826,-2.0826,-2.0782,-2.0755,-2.0544,-2.029,-2.014,-2.0,-1.9644,-1.9556,-1.9606,-1.9729,-1.9745,-1.9648,-1.9657,-1.9742,-1.9742,-1.9856,-1.9777,-2.0189,-1.4698,-1.4501,-1.3288,-1.2838,-1.276,-1.2298,-1.231,-1.2711,-1.254,-1.2266,-1.1986,-1.2106,-1.2123,-1.2209,-1.2881,-1.3398,-1.3313,-1.3137,-1.3052,-1.3058,-1.2881,-1.2619,-1.2448,-1.2448,-1.2283,-1.2123,-1.2129,-1.1952,-1.1757,-1.1499,-1.1327,-1.1327,-1.1413,-1.1408,-1.1327,-1.1154,-1.1073,-1.1079,-1.1273,-1.11,-1.0727,-1.0356,-1.0524,-1.1154,-1.1327,-1.1332,-1.1327,-1.1154,-1.1073,-1.1068,-1.0901,-1.0814,-1.0814,-1.0814,-1.0819,-1.0814,-1.0814,-1.0901,-1.0987,-1.1068,-1.1257,-1.1613,-1.1807,-1.1978,-1.2397,-1.2738,-1.3213,-1.3839,-1.4192,-1.4797,-1.5657,-1.619,-1.6487,-1.6588,-1.6676,-1.6777,-1.7066,-1.7239,-1.7426,-1.7721,-1.79,-1.7994,-1.8087,-1.8179,-1.8265,-1.855,-1.8759,-1.8859,-1.8827,-1.8495,-1.848,-1.8703,-1.9012,-1.9188,-2.0093,-2.0192,-2.0283,-2.009,-1.9877,-1.9727,-1.944,-1.9217,-1.8927,-1.8682,-1.8581,-1.8564,-1.8845,-1.8939,-1.8948,-1.8914,-1.8965,-1.9058,-1.8955,-1.9135,-1.9417,-1.3717,-1.3357,-1.2918,-1.2655,-1.257,-1.1906,-1.1632,-1.1826,-1.1929,-1.1655,-1.1295,-1.1408,-1.1591,-1.1591,-1.1929,-1.2192,-1.246,-1.2466,-1.2381,-1.2375,-1.2192,-1.202,-1.1935,-1.1757,-1.1585,-1.1424,-1.1516,-1.1338,-1.089,-1.089,-1.0809,-1.0641,-1.0636,-1.0554,-1.0467,-1.0381,-1.0381,-1.0386,-1.0676,-1.0589,-1.0038,-0.9671,-0.9671,-1.0033,-1.0641,-1.0809,-1.0641,-1.0549,-1.0467,-1.0381,-1.0294,-1.0207,-1.0299,-1.0396,-1.0396,-1.0299,-1.0299,-1.0381,-1.0549,-1.0554,-1.0727,-1.0987,-1.1154,-1.1273,-1.1554,-1.2037,-1.2489,-1.2779,-1.3466,-1.4042,-1.4521,-1.524,-1.5743,-1.6021,-1.6116,-1.6305,-1.6683,-1.6777,-1.6871,-1.6965,-1.7059,-1.7153,-1.7434,-1.7527,-1.7707,-1.8001,-1.8187,-1.828,-1.8265,-1.7925,-1.7717,-1.8149,-1.8357,-1.8372,-1.8403,-1.9066,-1.9322,-1.9093,-1.8864,-1.8529,-1.8246,-1.8349,-1.8074,-1.7576,-1.7467,-1.7476,-1.7668,-1.7744,-1.7736,-1.7879,-1.7946,-1.8096,-1.802,-1.8087,-1.8146,-1.2661,-1.2301,-1.2232,-1.206,-1.178,-1.1316,-1.1225,-1.1322,-1.1332,-1.1052,-1.0605,-1.088,-1.1068,-1.0982,-1.0977,-1.1073,-1.1343,-1.1516,-1.1688,-1.1688,-1.1419,-1.1413,-1.1327,-1.1154,-1.0895,-1.0809,-1.0733,-1.0559,-1.0197,-1.0207,-1.0125,-0.9946,-0.9951,-0.9946,-0.9781,-0.9781,-0.9781,-0.9873,-1.0144,-0.9975,-0.9519,-0.924,-0.9152,-0.934,-0.9946,-1.0212,-0.9951,-0.9946,-0.9951,-0.9777,-0.9781,-0.9781,-0.9781,-0.9965,-0.9965,-0.9781,-0.9781,-0.9864,-0.9951,-0.9951,-1.0038,-1.0294,-1.0554,-1.0727,-1.0824,-1.1308,-1.169,-1.202,-1.2502,-1.3118,-1.3531,-1.4108,-1.4779,-1.5425,-1.5553,-1.5743,-1.6123,-1.6305,-1.64,-1.6588,-1.6683,-1.669,-1.6878,-1.6958,-1.7145,-1.734,-1.7636,-1.7837,-1.7613,-1.739,-1.7181,-1.7498,-1.7494,-1.7368,-1.7258,-1.7568,-1.7998,-1.7893,-1.7801,-1.7494,-1.7282,-1.7371,-1.7195,-1.6684,-1.6492,-1.6484,-1.6484,-1.6492,-1.6566,-1.673,-1.69,-1.702,-1.7014,-1.6958,-1.7195,-1.1705,-1.1327,-1.1322,-1.0788,-1.024,-1.0519,-1.0901,-1.11,-1.0829,-1.0458,-1.0086,-1.0458,-1.0472,-1.0294,-1.0299,-1.0212,-1.0212,-1.0641,-1.0895,-1.0987,-1.0814,-1.0727,-1.0641,-1.0467,-1.0294,-1.0207,-0.9859,-0.9689,-0.9602,-0.9519,-0.9432,-0.9349,-0.9345,-0.9345,-0.9262,-0.9262,-0.9257,-0.9262,-0.9354,-0.9349,-0.9257,-0.8803,-0.8803,-0.917,-0.9257,-0.9257,-0.9257,-0.9257,-0.9257,-0.9262,-0.9257,-0.9257,-0.9262,-0.9262,-0.9257,-0.9262,-0.9262,-0.9262,-0.9345,-0.9345,-0.9432,-0.9689,-0.9864,-1.0125,-1.0299,-1.0579,-1.0835,-1.1269,-1.1636,-1.1912,-1.25,-1.3003,-1.382,-1.5032,-1.5153,-1.5178,-1.5376,-1.5648,-1.6015,-1.64,-1.6494,-1.6588,-1.6588,-1.6581,-1.6683,-1.6784,-1.7001,-1.7203,-1.6857,-1.6605,-1.6539,-1.6598,-1.6586,-1.6435,-1.6154,-1.5972,-1.6462,-1.6755,-1.6677,-1.6473,-1.6445,-1.6385,-1.6377,-1.5922,-1.5816,-1.5816,-1.5824,-1.5824,-1.5914,-1.6079,-1.6079,-1.6162,-1.6327,-1.6409,-1.6523,-1.0845,-1.0381,-1.0381,-0.9826,-0.91,-0.9557,-1.0024,-1.041,-1.0231,-0.9956,-0.9598,-0.9786,-0.9786,-0.9694,-0.9607,-0.9607,-0.9519,-0.9777,-1.0038,-1.0207,-1.0033,-0.9946,-0.9951,-0.9689,-0.9602,-0.9607,-0.9432,-0.9432,-0.9345,-0.9349,-0.9174,-0.8999,-0.8903,-0.8727,-0.8552,-0.838,-0.8292,-0.838,-0.8656,-0.866,-0.8384,-0.8201,-0.8201,-0.8292,-0.8296,-0.838,-0.838,-0.8644,-0.864,-0.8384,-0.8292,-0.8292,-0.838,-0.8384,-0.8388,-0.8384,-0.8464,-0.8552,-0.8815,-0.8907,-0.9082,-0.9345,-0.9432,-0.9519,-0.9607,-0.9864,-1.0067,-1.0426,-1.08,-1.121,-1.1743,-1.2204,-1.2997,-1.419,-1.438,-1.4663,-1.4956,-1.5159,-1.5363,-1.5547,-1.5737,-1.5825,-1.5927,-1.6021,-1.6305,-1.6285,-1.6595,-1.6683,-1.6539,-1.5944,-1.5848,-1.6139,-1.598,-1.5666,-1.5541,-1.5415,-1.5538,-1.5814,-1.5777,-1.576,-1.5643,-1.5661,-1.5474,-1.5333,-1.5235,-1.5151,-1.5242,-1.5249,-1.5416,-1.5416,-1.5575,-1.5658,-1.5824,-1.5922,-1.5937,-0.9878,-0.9506,-0.9501,-0.9139,-0.8678,-0.8952,-0.9323,-0.9703,-0.98,-0.9529,-0.9165,-0.9257,-0.917,-0.9082,-0.8995,-0.8907,-0.8819,-0.8736,-0.8907,-0.9253,-0.9519,-0.9519,-0.9428,-0.9165,-0.8995,-0.8903,-0.8819,-0.8736,-0.8732,-0.8732,-0.8644,-0.8472,-0.8376,-0.8288,-0.8116,-0.7944,-0.7944,-0.7944,-0.822,-0.822,-0.7944,-0.7672,-0.7672,-0.7856,-0.7944,-0.7856,-0.7764,-0.8028,-0.8113,-0.7944,-0.7944,-0.7944,-0.7944,-0.8036,-0.7948,-0.7944,-0.8028,-0.8113,-0.8376,-0.8468,-0.8556,-0.8732,-0.8907,-0.9082,-0.9082,-0.9253,-0.9607,-0.9717,-1.0069,-1.042,-1.0889,-1.133,-1.1978,-1.2757,-1.3362,-1.3938,-1.4294,-1.4533,-1.4797,-1.5026,-1.5267,-1.5363,-1.5458,-1.5553,-1.5785,-1.5718,-1.6067,-1.6078,-1.5797,-1.5192,-1.5329,-1.5332,-1.5225,-1.5028,-1.5012,-1.4867,-1.4723,-1.4787,-1.4937,-1.505,-1.507,-1.5147,-1.509,-1.4894,-1.4706,-1.4894,-1.4908,-1.4901,-1.4908,-1.4985,-1.5068,-1.5151,-1.5235,-1.5318,-1.5423,-0.8986,-0.8619,-0.8619,-0.8619,-0.8528,-0.8528,-0.8807,-0.9262,-0.9358,-0.9082,-0.8711,-0.8807,-0.8811,-0.8636,-0.8552,-0.8376,-0.8032,-0.8032,-0.8028,-0.8292,-0.8732,-0.9082,-0.8995,-0.8727,-0.8464,-0.8288,-0.8116,-0.8032,-0.8032,-0.8032,-0.7944,-0.7944,-0.7944,-0.7852,-0.7852,-0.7856,-0.7764,-0.7768,-0.7856,-0.7856,-0.7764,-0.7401,-0.7309,-0.7764,-0.7764,-0.768,-0.7503,-0.7503,-0.7591,-0.7768,-0.7764,-0.7764,-0.7852,-0.7856,-0.7768,-0.7768,-0.7856,-0.7852,-0.7856,-0.7944,-0.8032,-0.812,-0.8376,-0.8548,-0.864,-0.8903,-0.917,-0.9257,-0.945,-0.9712,-1.0012,-1.0401,-1.0875,-1.1263,-1.2139,-1.3009,-1.3659,-1.3788,-1.4054,-1.4627,-1.4924,-1.5019,-1.4949,-1.4962,-1.4942,-1.49,-1.5319,-1.5212,-1.476,-1.4456,-1.4392,-1.4365,-1.4487,-1.4342,-1.4349,-1.4289,-1.4168,-1.4168,-1.4311,-1.4368,-1.4503,-1.4671,-1.4671,-1.4468,-1.4371,-1.4559,-1.465,-1.4573,-1.4573,-1.4657,-1.4657,-1.465,-1.4734,-1.4901,-1.4992,-0.8664,-0.8572,-0.8572,-0.8388,-0.8109,-0.8113,-0.8384,-0.8756,-0.8844,-0.8564,-0.8201,-0.8113,-0.8204,-0.8116,-0.8116,-0.8028,-0.7856,-0.7856,-0.7944,-0.7944,-0.812,-0.8296,-0.8292,-0.8204,-0.8028,-0.794,-0.794,-0.7944,-0.7944,-0.7856,-0.7856,-0.7856,-0.768,-0.7591,-0.7595,-0.7411,-0.7316,-0.7319,-0.7319,-0.7319,-0.7316,-0.7224,-0.7136,-0.7316,-0.7316,-0.7319,-0.7231,-0.7231,-0.7231,-0.7319,-0.7319,-0.7316,-0.7319,-0.7319,-0.7408,-0.7408,-0.7499,-0.7591,-0.7683,-0.7768,-0.7856,-0.7944,-0.8028,-0.8116,-0.8116,-0.8376,-0.8552,-0.8727,-0.8995,-0.9174,-0.9446,-0.9749,-1.0129,-1.0509,-1.1204,-1.2,-1.2665,-1.2974,-1.3187,-1.3344,-1.3656,-1.3859,-1.4056,-1.4136,-1.427,-1.4377,-1.454,-1.4598,-1.4046,-1.3521,-1.3346,-1.3736,-1.3889,-1.3761,-1.3651,-1.3613,-1.358,-1.3587,-1.375,-1.3841,-1.4082,-1.425,-1.425,-1.4153,-1.423,-1.4328,-1.4328,-1.425,-1.425,-1.4328,-1.4405,-1.4489,-1.4566,-1.465,-1.4741,-0.822,-0.7948,-0.7948,-0.7764,-0.758,-0.758,-0.7852,-0.822,-0.8312,-0.8036,-0.7672,-0.758,-0.7672,-0.7768,-0.7768,-0.7676,-0.7588,-0.7584,-0.7588,-0.7584,-0.7588,-0.7676,-0.7852,-0.7768,-0.7768,-0.768,-0.7588,-0.7584,-0.7584,-0.7584,-0.7588,-0.7496,-0.7411,-0.7323,-0.7323,-0.7231,-0.7139,-0.7139,-0.7139,-0.7139,-0.7139,-0.7139,-0.7139,-0.7139,-0.7139,-0.7139,-0.7139,-0.7139,-0.7139,-0.7139,-0.7139,-0.7139,-0.7139,-0.7139,-0.7139,-0.7139,-0.7234,-0.7323,-0.7323,-0.7496,-0.7584,-0.7588,-0.768,-0.7768,-0.7768,-0.794,-0.8204,-0.8292,-0.8468,-0.8732,-0.8995,-0.9253,-0.9602,-0.9897,-1.0229,-1.0855,-1.1887,-1.218,-1.2411,-1.2558,-1.2786,-1.2968,-1.3241,-1.3411,-1.3435,-1.356,-1.374,-1.3647,-1.3246,-1.282,-1.2545,-1.2972,-1.3305,-1.3224,-1.3266,-1.3326,-1.3313,-1.3313,-1.3228,-1.3398,-1.3737,-1.3913,-1.3997,-1.399,-1.4082,-1.4088,-1.4088,-1.4088,-1.4166,-1.425,-1.4243,-1.4237,-1.4321,-1.4321,-1.4405,-0.7489,-0.7126,-0.7126,-0.7126,-0.7126,-0.7126,-0.7401,-0.7764,-0.7856,-0.758,-0.7217,-0.7126,-0.7312,-0.7503,-0.7415,-0.7323,-0.7139,-0.7228,-0.7139,-0.7139,-0.7228,-0.7404,-0.7676,-0.7503,-0.7503,-0.7411,-0.7231,-0.7139,-0.7228,-0.7143,-0.7139,-0.7139,-0.7139,-0.7139,-0.7143,-0.7139,-0.7139,-0.7139,-0.7139,-0.7139,-0.7139,-0.7139,-0.7139,-0.7139,-0.7139,-0.7139,-0.7139,-0.7139,-0.7139,-0.7139,-0.7139,-0.7139,-0.7139,-0.7139,-0.7139,-0.7139,-0.7139,-0.7139,-0.7139,-0.7139,-0.7143,-0.7231,-0.7323,-0.7415,-0.7503,-0.768,-0.7856,-0.7856,-0.8028,-0.8288,-0.8552,-0.8903,-0.9165,-0.9262,-0.9266,-0.9865,-1.0795,-1.1222,-1.1568,-1.2207,-1.2326,-1.2428,-1.2524,-1.2598,-1.2518,-1.2562,-1.2827,-1.2873,-1.2604,-1.2146,-1.2175,-1.2422,-1.2661,-1.2729,-1.2887,-1.3058,-1.3058,-1.3058,-1.2973,-1.3058,-1.3404,-1.3659,-1.3822,-1.3822,-1.3822,-1.3828,-1.3913,-1.3913,-1.3997,-1.3913,-1.3906,-1.3906,-1.3997,-1.399,-1.399,-0.7228,-0.7139,-0.7136,-0.7139,-0.7136,-0.7136,-0.7136,-0.7319,-0.7316,-0.7228,-0.7136,-0.7136,-0.7139,-0.7231,-0.7146,-0.7143,-0.7051,-0.7054,-0.7139,-0.7139,-0.7139,-0.7139,-0.7323,-0.7241,-0.7234,-0.7234,-0.7143,-0.7143,-0.7146,-0.716,-0.7143,-0.7149,-0.7146,-0.7139,-0.7139,-0.7139,-0.7139,-0.7139,-0.7139,-0.7139,-0.7139,-0.7139,-0.7139,-0.7139,-0.7139,-0.7139,-0.7139,-0.7139,-0.7139,-0.7139,-0.7139,-0.7139,-0.7139,-0.7139,-0.7139,-0.7139,-0.7139,-0.7139,-0.7139,-0.7139,-0.7139,-0.7139,-0.7143,-0.7143,-0.7231,-0.7415,-0.7591,-0.7591,-0.7768,-0.8028,-0.8116,-0.8464,-0.8727,-0.8723,-0.8807,-0.899,-0.9662,-1.0207,-1.0685,-1.0973,-1.1175,-1.1149,-1.1417,-1.1449,-1.1488,-1.1598,-1.1771,-1.2025,-1.1899,-1.1585,-1.1677,-1.1854,-1.2026,-1.2112,-1.2192,-1.2454,-1.2546,-1.2631,-1.2631,-1.2546,-1.2973,-1.3234,-1.3313,-1.3392,-1.3476,-1.3568,-1.3743,-1.3659,-1.3659,-1.3574,-1.3574,-1.3659,-1.3652,-1.3659,-1.3659,-0.7114,-0.7111,-0.7111,-0.7152,-0.7125,-0.7131,-0.7082,-0.7132,-0.7139,-0.7139,-0.7051,-0.6874,-0.6877,-0.7061,-0.6877,-0.6786,-0.6874,-0.6786,-0.6782,-0.6782,-0.6782,-0.6874,-0.6992,-0.7029,-0.7045,-0.7081,-0.7224,-0.7244,-0.7248,-0.7251,-0.7255,-0.7238,-0.7183,-0.7143,-0.7139,-0.7139,-0.7139,-0.7139,-0.7139,-0.7139,-0.7139,-0.7139,-0.7139,-0.7139,-0.7139,-0.7139,-0.7139,-0.7139,-0.7139,-0.7139,-0.7139,-0.7139,-0.7139,-0.7139,-0.7139,-0.7139,-0.7139,-0.7139,-0.7139,-0.7139,-0.7139,-0.7139,-0.7139,-0.7139,-0.7139,-0.7231,-0.7323,-0.7415,-0.7591,-0.7768,-0.7856,-0.8116,-0.8288,-0.8288,-0.8285,-0.8456,-0.8899,-0.9515,-0.9951,-1.012,-1.0236,-1.0318,-1.0472,-1.0549,-1.0641,-1.0855,-1.1121,-1.1375,-1.1283,-1.1068,-1.116,-1.1251,-1.1424,-1.151,-1.1596,-1.1768,-1.2032,-1.2118,-1.2209,-1.2203,-1.2283,-1.2631,-1.2802,-1.2966,-1.3222,-1.3398,-1.3483,-1.3398,-1.3313,-1.3398,-1.3483,-1.3398,-1.3398,-1.3398,-1.3489,-0.704,-0.6957,-0.6957,-0.6947,-0.6977,-0.71,-0.709,-0.7095,-0.7136,-0.7054,-0.6962,-0.6609,-0.67,-0.6884,-0.6612,-0.652,-0.6609,-0.652,-0.6517,-0.6517,-0.6517,-0.6609,-0.6729,-0.6812,-0.694,-0.7022,-0.7333,-0.74,-0.7407,-0.7407,-0.7407,-0.738,-0.7255,-0.7207,-0.7187,-0.7146,-0.7139,-0.7139,-0.7139,-0.7139,-0.7139,-0.7139,-0.7139,-0.7139,-0.7139,-0.7139,-0.7139,-0.7139,-0.7139,-0.7139,-0.7139,-0.7139,-0.7139,-0.7139,-0.7139,-0.7139,-0.7139,-0.7139,-0.7139,-0.7139,-0.7139,-0.7139,-0.7139,-0.7139,-0.7139,-0.7139,-0.7143,-0.7231,-0.7319,-0.7499,-0.7768,-0.7764,-0.7764,-0.7852,-0.7852,-0.8025,-0.846,-0.8903,-0.917,-0.9519,-0.9694,-0.9777,-0.9864,-1.0033,-1.012,-1.0207,-1.0472,-1.0559,-1.0559,-1.0554,-1.0554,-1.0727,-1.0901,-1.1079,-1.116,-1.116,-1.1424,-1.1516,-1.1693,-1.1688,-1.1682,-1.1849,-1.2106,-1.2625,-1.2875,-1.3052,-1.3058,-1.2887,-1.2973,-1.3137,-1.3137,-1.2887,-1.2973,-1.3137,-1.3234,-0.6615,-0.6443,-0.6443,-0.6456,-0.6495,-0.6871,-0.7025,-0.7076,-0.7099,-0.6972,-0.67,-0.652,-0.652,-0.6612,-0.652,-0.6428,-0.634,-0.6251,-0.6251,-0.634,-0.634,-0.6343,-0.648,-0.6597,-0.663,-0.6832,-0.7214,-0.7483,-0.7563,-0.7563,-0.747,-0.7529,-0.7407,-0.7333,-0.7295,-0.7217,-0.7163,-0.7163,-0.7149,-0.7139,-0.7139,-0.7139,-0.7139,-0.7139,-0.7139,-0.7139,-0.7139,-0.7139,-0.7139,-0.7139,-0.7139,-0.7139,-0.7139,-0.7139,-0.7139,-0.7139,-0.7139,-0.7139,-0.7139,-0.7139,-0.7139,-0.7139,-0.7139,-0.7139,-0.7139,-0.7139,-0.7139,-0.7139,-0.7143,-0.7231,-0.7231,-0.7319,-0.7411,-0.7408,-0.7492,-0.7485,-0.7937,-0.8204,-0.8556,-0.9082,-0.9257,-0.9345,-0.934,-0.9428,-0.9515,-0.9689,-0.9868,-0.9956,-0.9951,-0.9859,-0.9767,-1.0028,-1.0294,-1.0554,-1.0727,-1.0727,-1.0819,-1.0906,-1.0992,-1.1073,-1.1073,-1.1154,-1.1413,-1.1843,-1.2112,-1.2289,-1.2289,-1.2289,-1.2283,-1.2363,-1.2283,-1.2289,-1.2369,-1.2454,-1.257,-0.6391,-0.6308,-0.6308,-0.6186,-0.6006,-0.6242,-0.645,-0.6761,-0.693,-0.691,-0.6508,-0.6251,-0.6074,-0.6077,-0.5991,-0.5811,-0.5719,-0.563,-0.5719,-0.5719,-0.5719,-0.5852,-0.6088,-0.6305,-0.6593,-0.6865,-0.7171,-0.7292,-0.7244,-0.7235,-0.7426,-0.7393,-0.7373,-0.7393,-0.7458,-0.7346,-0.7272,-0.7248,-0.7187,-0.7143,-0.7139,-0.7139,-0.7139,-0.7139,-0.7139,-0.7139,-0.7139,-0.7139,-0.7139,-0.7139,-0.7139,-0.7139,-0.7139,-0.7139,-0.7139,-0.7139,-0.7139,-0.7139,-0.7139,-0.7139,-0.7139,-0.7139,-0.7139,-0.7139,-0.7139,-0.7139,-0.7139,-0.7139,-0.7139,-0.7139,-0.7139,-0.7139,-0.7143,-0.7231,-0.7136,-0.7312,-0.7584,-0.768,-0.8028,-0.8556,-0.8556,-0.8556,-0.8732,-0.8819,-0.8995,-0.9174,-0.9354,-0.9349,-0.9345,-0.9248,-0.9152,-0.951,-0.9772,-0.9946,-1.0207,-1.0207,-1.0299,-1.0299,-1.0386,-1.0381,-1.0467,-1.0467,-1.0554,-1.0727,-1.1079,-1.1429,-1.1682,-1.1677,-1.1677,-1.1596,-1.1682,-1.1682,-1.1682,-1.1774,-1.1877,-0.6183,-0.6264,-0.6264,-0.6012,-0.5621,-0.5494,-0.5785,-0.6226,-0.6751,-0.6657,-0.621,-0.5797,-0.563,-0.5544,-0.5369,-0.5191,-0.501,-0.501,-0.5099,-0.5099,-0.5099,-0.5335,-0.5631,-0.5935,-0.613,-0.6424,-0.6642,-0.6982,-0.7104,-0.7082,-0.718,-0.724,-0.7232,-0.7259,-0.7328,-0.7214,-0.725,-0.7245,-0.7171,-0.7094,-0.6969,-0.7054,-0.7054,-0.7051,-0.7051,-0.7139,-0.7139,-0.7139,-0.7139,-0.7139,-0.7139,-0.7139,-0.7139,-0.7139,-0.7139,-0.7139,-0.7139,-0.7139,-0.7139,-0.7139,-0.7139,-0.7139,-0.7139,-0.7139,-0.7139,-0.7139,-0.7139,-0.7139,-0.7139,-0.7139,-0.7139,-0.7139,-0.7139,-0.7139,-0.7143,-0.7143,-0.7323,-0.7411,-0.7499,-0.7764,-0.7764,-0.7952,-0.8228,-0.8292,-0.8468,-0.856,-0.8736,-0.8736,-0.8732,-0.8636,-0.8632,-0.8986,-0.9253,-0.934,-0.9515,-0.9689,-0.9777,-0.9868,-0.9868,-0.9864,-0.9864,-0.9864,-0.9951,-1.0038,-1.0299,-1.0646,-1.0895,-1.1068,-1.0987,-1.0901,-1.0987,-1.0987,-1.0901,-1.0987,-1.117,-0.5796,-0.6274,-0.6274,-0.6048,-0.552,-0.5206,-0.5428,-0.5915,-0.631,-0.6168,-0.5589,-0.5232,-0.509,-0.5188,-0.4921,-0.4921,-0.4921,-0.4832,-0.4832,-0.4832,-0.4835,-0.4892,-0.5177,-0.5279,-0.5492,-0.5794,-0.5792,-0.6323,-0.6799,-0.6994,-0.7102,-0.7171,-0.7085,-0.7024,-0.7199,-0.7076,-0.6755,-0.6752,-0.6992,-0.6918,-0.6637,-0.689,-0.6972,-0.6881,-0.6966,-0.7051,-0.7051,-0.7051,-0.7054,-0.7051,-0.7139,-0.7139,-0.7139,-0.7139,-0.7139,-0.7139,-0.7139,-0.7139,-0.7139,-0.7139,-0.7139,-0.7139,-0.7139,-0.7139,-0.7139,-0.7139,-0.7139,-0.7139,-0.7139,-0.7139,-0.7139,-0.7139,-0.7139,-0.7153,-0.7163,-0.7163,-0.7255,-0.7361,-0.7434,-0.7417,-0.7541,-0.767,-0.7916,-0.797,-0.8028,-0.8032,-0.812,-0.8124,-0.8208,-0.8201,-0.8193,-0.8552,-0.8727,-0.8815,-0.8903,-0.9082,-0.917,-0.9257,-0.9257,-0.9257,-0.9257,-0.917,-0.9257,-0.9432,-0.9602,-0.9689,-0.9859,-1.0033,-1.012,-1.0207,-1.0294,-1.0294,-1.012,-1.0294,-1.0467,-0.5246,-0.5562,-0.5802,-0.5559,-0.4932,-0.4737,-0.4875,-0.52,-0.5468,-0.5431,-0.5109,-0.4461,-0.4333,-0.4463,-0.4208,-0.4119,-0.4208,-0.421,-0.421,-0.421,-0.4222,-0.4375,-0.4585,-0.4653,-0.4827,-0.5055,-0.5311,-0.5534,-0.6039,-0.6239,-0.6437,-0.6728,-0.6688,-0.6857,-0.6935,-0.6924,-0.6939,-0.6938,-0.6919,-0.6612,-0.6265,-0.6385,-0.6612,-0.6612,-0.67,-0.6694,-0.6786,-0.6877,-0.6881,-0.6966,-0.7051,-0.7139,-0.7139,-0.7139,-0.7139,-0.7139,-0.7139,-0.7139,-0.7139,-0.7139,-0.7139,-0.7139,-0.7139,-0.7139,-0.7139,-0.7139,-0.7139,-0.7139,-0.7139,-0.7139,-0.7139,-0.7139,-0.7139,-0.7156,-0.7227,-0.7265,-0.7295,-0.7383,-0.7431,-0.7411,-0.739,-0.7538,-0.7667,-0.7696,-0.7834,-0.7889,-0.797,-0.7959,-0.804,-0.8028,-0.8025,-0.8113,-0.8204,-0.8292,-0.8292,-0.838,-0.838,-0.8468,-0.8468,-0.8468,-0.8468,-0.8468,-0.8644,-0.8648,-0.8644,-0.8732,-0.8907,-0.9165,-0.9515,-0.9602,-0.9602,-0.9602,-0.9515,-0.9602,-0.9777,-0.4618,-0.4771,-0.5246,-0.5007,-0.4375,-0.4295,-0.4342,-0.4501,-0.4789,-0.4738,-0.4457,-0.383,-0.3622,-0.3659,-0.3585,-0.3494,-0.3406,-0.3406,-0.3406,-0.3409,-0.3438,-0.369,-0.3966,-0.4023,-0.4201,-0.4533,-0.473,-0.4937,-0.4937,-0.5135,-0.5534,-0.6137,-0.6224,-0.6326,-0.6611,-0.6651,-0.658,-0.681,-0.672,-0.6337,-0.6015,-0.6006,-0.6236,-0.6299,-0.6364,-0.6428,-0.6428,-0.6609,-0.67,-0.67,-0.6786,-0.6874,-0.6874,-0.6966,-0.6966,-0.7054,-0.7054,-0.7139,-0.7139,-0.7139,-0.7139,-0.7139,-0.7139,-0.7139,-0.7139,-0.7139,-0.7139,-0.7139,-0.7139,-0.7139,-0.7149,-0.7081,-0.7125,-0.7272,-0.7434,-0.7482,-0.7537,-0.7516,-0.7546,-0.7512,-0.7506,-0.7536,-0.7656,-0.7545,-0.7652,-0.7763,-0.7731,-0.7805,-0.7786,-0.7779,-0.7764,-0.7852,-0.7852,-0.794,-0.8028,-0.7944,-0.7944,-0.7856,-0.7856,-0.7944,-0.8028,-0.8028,-0.812,-0.8032,-0.7856,-0.8032,-0.838,-0.8732,-0.8907,-0.8819,-0.8819,-0.8903,-0.899,-0.9082,-0.9257,-0.4229,-0.3919,-0.4704,-0.4776,-0.4302,-0.3988,-0.3917,-0.4108,-0.435,-0.4117,-0.3731,-0.3416,-0.3213,-0.3224,-0.3047,-0.2957,-0.2957,-0.2956,-0.2956,-0.2977,-0.3018,-0.3168,-0.333,-0.3489,-0.3651,-0.3919,-0.4033,-0.4033,-0.4133,-0.4131,-0.4734,-0.5536,-0.5536,-0.5636,-0.5732,-0.5912,-0.6067,-0.6295,-0.6247,-0.6183,-0.5949,-0.5874,-0.5896,-0.6142,-0.6332,-0.6343,-0.6435,-0.6379,-0.6465,-0.6376,-0.6551,-0.6523,-0.6615,-0.67,-0.6789,-0.6789,-0.6877,-0.6962,-0.7051,-0.7051,-0.7139,-0.7139,-0.7139,-0.7139,-0.7139,-0.7146,-0.7146,-0.7173,-0.721,-0.7204,-0.7131,-0.7158,-0.7154,-0.7397,-0.7567,-0.7643,-0.7594,-0.7628,-0.7648,-0.7611,-0.7634,-0.7692,-0.7702,-0.7705,-0.755,-0.7664,-0.7562,-0.7541,-0.7464,-0.7443,-0.7422,-0.7499,-0.7503,-0.7591,-0.7852,-0.7764,-0.7676,-0.7676,-0.7676,-0.7764,-0.7852,-0.7852,-0.768,-0.7764,-0.7676,-0.7764,-0.7856,-0.8028,-0.8113,-0.8028,-0.8032,-0.838,-0.8468,-0.8644,-0.8819,-0.3841,-0.3847,-0.3845,-0.3763,-0.36,-0.3443,-0.3446,-0.3458,-0.3568,-0.3255,-0.2782,-0.2724,-0.2691,-0.2602,-0.2512,-0.2511,-0.2511,-0.2512,-0.2512,-0.2439,-0.2474,-0.262,-0.2767,-0.2823,-0.2871,-0.3015,-0.3228,-0.3228,-0.3228,-0.3429,-0.383,-0.4332,-0.4634,-0.4937,-0.5035,-0.5238,-0.5515,-0.5778,-0.5786,-0.5627,-0.5403,-0.5613,-0.5644,-0.5634,-0.5709,-0.576,-0.5763,-0.6037,-0.6084,-0.6218,-0.6379,-0.634,-0.6379,-0.6459,-0.6542,-0.6536,-0.6713,-0.6795,-0.6966,-0.6962,-0.7139,-0.7139,-0.7139,-0.7149,-0.7177,-0.7227,-0.7272,-0.7309,-0.7356,-0.7377,-0.7336,-0.7188,-0.723,-0.7456,-0.7708,-0.7798,-0.7746,-0.7777,-0.7804,-0.779,-0.7841,-0.7902,-0.7899,-0.7879,-0.7709,-0.7556,-0.7451,-0.7353,-0.7295,-0.7238,-0.732,-0.7313,-0.741,-0.7389,-0.7567,-0.7539,-0.7422,-0.7521,-0.7531,-0.7535,-0.7642,-0.7411,-0.7323,-0.7408,-0.7496,-0.7496,-0.7496,-0.7408,-0.7496,-0.7676,-0.7856,-0.7944,-0.812,-0.8204,-0.838,-0.3352,-0.3376,-0.3219,-0.2979,-0.2741,-0.2741,-0.2744,-0.2824,-0.3062,-0.266,-0.2024,-0.2199,-0.2244,-0.2064,-0.1974,-0.1974,-0.1974,-0.1975,-0.1983,-0.1914,-0.1946,-0.1983,-0.2022,-0.2157,-0.2296,-0.2418,-0.2522,-0.2724,-0.2724,-0.2927,-0.3127,-0.3327,-0.3629,-0.4031,-0.4535,-0.4736,-0.4941,-0.5122,-0.5289,-0.5141,-0.4828,-0.4852,-0.5186,-0.5077,-0.5237,-0.5209,-0.5298,-0.5573,-0.5743,-0.5794,-0.595,-0.619,-0.623,-0.628,-0.6262,-0.6329,-0.6397,-0.648,-0.6713,-0.6962,-0.7163,-0.7217,-0.7224,-0.7244,-0.7292,-0.7377,-0.7434,-0.7448,-0.7533,-0.7604,-0.7422,-0.7328,-0.7361,-0.7685,-0.7801,-0.7885,-0.7899,-0.7926,-0.796,-0.7984,-0.8014,-0.7902,-0.7895,-0.7865,-0.7758,-0.7594,-0.7466,-0.7485,-0.7451,-0.7397,-0.7265,-0.735,-0.7346,-0.7319,-0.7288,-0.7416,-0.7451,-0.7556,-0.7545,-0.7382,-0.7361,-0.7131,-0.7071,-0.7231,-0.7228,-0.7139,-0.7139,-0.7231,-0.7408,-0.7584,-0.7676,-0.7768,-0.7856,-0.7944,-0.8032,-0.2611,-0.2586,-0.2904,-0.2589,-0.196,-0.1959,-0.2038,-0.2357,-0.2764,-0.2426,-0.1603,-0.176,-0.1885,-0.1795,-0.1615,-0.1436,-0.1436,-0.1437,-0.1448,-0.1475,-0.1408,-0.1537,-0.1567,-0.1692,-0.191,-0.2318,-0.2321,-0.2321,-0.2321,-0.2423,-0.2422,-0.2521,-0.2723,-0.3126,-0.393,-0.4033,-0.4135,-0.4334,-0.4632,-0.4524,-0.4202,-0.4144,-0.4315,-0.4586,-0.4741,-0.4812,-0.491,-0.5104,-0.5277,-0.5334,-0.5419,-0.5586,-0.5748,-0.593,-0.5988,-0.6187,-0.6359,-0.6482,-0.6468,-0.689,-0.7062,-0.7255,-0.7184,-0.722,-0.7433,-0.759,-0.7503,-0.7409,-0.7455,-0.755,-0.757,-0.7624,-0.7684,-0.7644,-0.775,-0.7796,-0.7803,-0.7809,-0.773,-0.7736,-0.7839,-0.7935,-0.7839,-0.7819,-0.775,-0.7631,-0.7492,-0.752,-0.75,-0.7436,-0.729,-0.7181,-0.7175,-0.7178,-0.7171,-0.7429,-0.747,-0.7573,-0.7439,-0.726,-0.7194,-0.7151,-0.7085,-0.7091,-0.6962,-0.6874,-0.6962,-0.7139,-0.7228,-0.7408,-0.7411,-0.7503,-0.7591,-0.7591,-0.768,-0.1978,-0.1765,-0.2106,-0.1963,-0.157,-0.1492,-0.1727,-0.1975,-0.2109,-0.1909,-0.1524,-0.1497,-0.1525,-0.1436,-0.1166,-0.0987,-0.0897,-0.0897,-0.0907,-0.0927,-0.0946,-0.0964,-0.1081,-0.13,-0.1616,-0.1818,-0.1817,-0.1817,-0.1818,-0.1919,-0.1919,-0.1919,-0.222,-0.2521,-0.2924,-0.3026,-0.3228,-0.333,-0.3734,-0.3935,-0.3327,-0.3404,-0.3589,-0.3987,-0.4153,-0.4237,-0.4332,-0.4526,-0.4704,-0.4861,-0.4949,-0.5216,-0.5367,-0.5541,-0.5606,-0.5654,-0.574,-0.5917,-0.6154,-0.6617,-0.6907,-0.6951,-0.706,-0.7082,-0.7032,-0.7127,-0.7155,-0.7286,-0.7327,-0.745,-0.7527,-0.7736,-0.777,-0.7365,-0.7319,-0.7422,-0.7428,-0.7428,-0.7437,-0.7338,-0.7437,-0.7537,-0.7537,-0.7441,-0.739,-0.7454,-0.7337,-0.7289,-0.7267,-0.7263,-0.7185,-0.6995,-0.6992,-0.701,-0.7133,-0.7289,-0.7298,-0.7279,-0.7149,-0.6992,-0.6938,-0.6999,-0.691,-0.6834,-0.6761,-0.6694,-0.6786,-0.6962,-0.7051,-0.7143,-0.7143,-0.7234,-0.7323,-0.7323,-0.7319,-0.1565,-0.1365,-0.1618,-0.1561,-0.1335,-0.1336,-0.1493,-0.1666,-0.1569,-0.1347,-0.1019,-0.1056,-0.1256,-0.1256,-0.1076,-0.0628,-0.0539,-0.0453,-0.0458,-0.0468,-0.0477,-0.0487,-0.0595,-0.0,-0.1009,-0.1212,-0.1313,-0.1313,-0.1313,-0.1313,-0.1415,-0.1718,-0.1919,-0.2019,-0.222,-0.2422,-0.2724,-0.2826,-0.313,-0.313,-0.2823,-0.2718,-0.2819,-0.3122,-0.342,-0.3524,-0.3728,-0.3924,-0.4212,-0.4367,-0.4542,-0.4818,-0.4966,-0.5045,-0.503,-0.5204,-0.5341,-0.5541,-0.5841,-0.6045,-0.625,-0.6308,-0.6655,-0.6843,-0.6972,-0.707,-0.7101,-0.714,-0.7099,-0.7217,-0.7332,-0.7646,-0.7444,-0.7033,-0.7033,-0.7036,-0.7138,-0.7138,-0.7138,-0.7135,-0.7135,-0.7135,-0.7135,-0.7039,-0.7024,-0.7102,-0.7171,-0.7137,-0.7006,-0.6921,-0.6945,-0.6852,-0.6864,-0.6994,-0.7012,-0.7127,-0.7024,-0.6985,-0.6864,-0.6745,-0.6902,-0.6969,-0.6768,-0.6655,-0.6575,-0.6591,-0.6627,-0.67,-0.6786,-0.6786,-0.6786,-0.6874,-0.7051,-0.7051,-0.7051,-0.1446,-0.1282,-0.1288,-0.1307,-0.1333,-0.1336,-0.1336,-0.1342,-0.1322,-0.0842,-0.0084,-0.0528,-0.0807,-0.1256,-0.1256,-0.0808,-0.0,-0.0,-0.0,-0.0,-0.0,-0.0,-0.0,-0.0,-0.0,-0.0707,-0.0808,-0.0808,-0.0,-0.0808,-0.101,-0.1313,-0.1515,-0.1515,-0.1716,-0.1917,-0.222,-0.2322,-0.2423,-0.2423,-0.222,-0.2018,-0.2219,-0.2522,-0.2825,-0.2925,-0.3026,-0.3224,-0.3524,-0.3618,-0.382,-0.4126,-0.4228,-0.4336,-0.468,-0.491,-0.5111,-0.5241,-0.5375,-0.5491,-0.562,-0.5854,-0.6412,-0.6842,-0.6967,-0.6787,-0.6691,-0.6799,-0.6828,-0.693,-0.7036,-0.7039,-0.6939,-0.6836,-0.6833,-0.6836,-0.6939,-0.6939,-0.6939,-0.6936,-0.6836,-0.6836,-0.6736,-0.6736,-0.6537,-0.6528,-0.6512,-0.6608,-0.6484,-0.6487,-0.6536,-0.6744,-0.6761,-0.6892,-0.6892,-0.6747,-0.6642,-0.6412,-0.664,-0.6628,-0.6787,-0.6707,-0.6398,-0.629,-0.6474,-0.6479,-0.6471,-0.6432,-0.6517,-0.6517,-0.6517,-0.6609,-0.6786,-0.6874,-0.6874,-0.1215,-0.1181,-0.1278,-0.1306,-0.1333,-0.1336,-0.1336,-0.1345,-0.1321,-0.0842,-0.0,-0.0,-0.0,-0.0449,-0.0359,-0.0,-0.0,-0.0,-0.0,-0.0,-0.0,-0.0,-0.0,-0.0,-0.0,-0.0,-0.0,-0.0,-0.0,-0.0,-0.0,-0.0404,-0.0909,-0.101,-0.1111,-0.1212,-0.1515,-0.1818,-0.1818,-0.1818,-0.1817,-0.1716,-0.1818,-0.2121,-0.2322,-0.2423,-0.2622,-0.2622,-0.2823,-0.3026,-0.3127,-0.333,-0.3831,-0.3831,-0.4009,-0.4307,-0.4478,-0.4579,-0.4796,-0.5099,-0.5209,-0.5327,-0.57,-0.5904,-0.6029,-0.6137,-0.6134,-0.6237,-0.6337,-0.6337,-0.6437,-0.6337,-0.6337,-0.6339,-0.6237,-0.6134,-0.6237,-0.6237,-0.6237,-0.6237,-0.6237,-0.6237,-0.6137,-0.6137,-0.5937,-0.5834,-0.5837,-0.5937,-0.5934,-0.5829,-0.6029,-0.6334,-0.6337,-0.6434,-0.6234,-0.6004,-0.6016,-0.6027,-0.6134,-0.6229,-0.6182,-0.6103,-0.5906,-0.5876,-0.592,-0.6093,-0.6186,-0.6166,-0.6074,-0.634,-0.6432,-0.652,-0.652,-0.6605,-0.6697,-0.1121,-0.1079,-0.0886,-0.0761,-0.0862,-0.1179,-0.11,-0.0872,-0.0826,-0.0421,-0.0,-0.0,-0.0,-0.0,-0.0,-0.0,-0.0,-0.0,-0.0,-0.0,-0.0,-0.0,-0.0,-0.0,-0.0,-0.0,-0.0,-0.0,-0.0,-0.0,-0.0,-0.0101,-0.0,-0.0,-0.0808,-0.0909,-0.101,-0.1313,-0.1414,-0.1415,-0.1415,-0.1415,-0.1718,-0.1819,-0.2019,-0.2019,-0.2119,-0.2119,-0.2221,-0.2423,-0.2524,-0.2825,-0.3126,-0.3226,-0.3327,-0.3626,-0.3823,-0.4019,-0.4126,-0.4427,-0.4634,-0.4736,-0.4836,-0.4933,-0.5231,-0.5334,-0.5534,-0.5734,-0.5634,-0.5634,-0.5636,-0.5737,-0.5739,-0.5741,-0.5536,-0.5334,-0.5334,-0.5334,-0.5336,-0.5336,-0.5336,-0.5336,-0.5336,-0.5236,-0.5236,-0.5238,-0.524,-0.534,-0.5336,-0.5231,-0.5432,-0.5834,-0.5834,-0.5734,-0.5534,-0.5436,-0.5536,-0.5536,-0.5636,-0.5632,-0.5522,-0.5577,-0.5681,-0.5514,-0.5331,-0.5528,-0.5641,-0.5722,-0.5719,-0.5897,-0.5897,-0.5808,-0.5985,-0.6254,-0.6432,-0.1028,-0.0914,-0.0,-0.0,-0.0078,-0.0863,-0.0707,-0.0,-0.0,-0.0,-0.0,-0.0,-0.0,-0.0,-0.0,-0.0,-0.0,-0.0,-0.0,-0.0,-0.0,-0.0,-0.0,-0.0,-0.0,-0.0,-0.0,-0.0,-0.0,-0.0,-0.0,-0.0,-0.0,-0.0,-0.0505,-0.0606,-0.0707,-0.0707,-0.101,-0.1111,-0.0909,-0.1111,-0.1516,-0.1516,-0.1515,-0.1515,-0.1515,-0.1617,-0.1718,-0.2021,-0.2121,-0.2322,-0.2422,-0.2622,-0.2724,-0.2925,-0.3226,-0.3327,-0.353,-0.3731,-0.383,-0.3932,-0.3932,-0.4033,-0.4332,-0.4734,-0.5035,-0.5035,-0.5035,-0.5033,-0.5035,-0.5035,-0.5138,-0.514,-0.5039,-0.4834,-0.4634,-0.4634,-0.4634,-0.4533,-0.4533,-0.4533,-0.4435,-0.4435,-0.4435,-0.4438,-0.4642,-0.4742,-0.4537,-0.4329,-0.473,-0.5133,-0.5135,-0.5035,-0.5035,-0.5035,-0.5138,-0.5138,-0.5138,-0.5035,-0.5031,-0.5196,-0.545,-0.5077,-0.4717,-0.4811,-0.5022,-0.5102,-0.5097,-0.5097,-0.5097,-0.5008,-0.5275,-0.563,-0.5991,-0.0274,-0.0212,-0.0074,-0.0,-0.0,-0.0234,-0.0,-0.0,-0.0,-0.0,-0.0,-0.0,-0.0,-0.0,-0.0,-0.0,-0.0,-0.0,-0.0,-0.0,-0.0,-0.0,-0.0,-0.0,-0.0,-0.0,-0.0,-0.0,-0.0,-0.0,-0.0,-0.0,-0.0,-0.0,-0.0,-0.0,-0.0,-0.0,-0.0,-0.0,-0.0,-0.0,-0.0505,-0.0808,-0.101,-0.101,-0.1111,-0.1414,-0.1516,-0.1718,-0.1718,-0.1818,-0.1817,-0.2119,-0.2321,-0.2522,-0.2521,-0.2622,-0.2823,-0.3026,-0.3127,-0.3228,-0.3229,-0.333,-0.3632,-0.4133,-0.4334,-0.4435,-0.4435,-0.4433,-0.4433,-0.4435,-0.4537,-0.4539,-0.4438,-0.4236,-0.4033,-0.393,-0.393,-0.383,-0.3731,-0.363,-0.3632,-0.3632,-0.3533,-0.3736,-0.4039,-0.4039,-0.3533,-0.3327,-0.3627,-0.4029,-0.4332,-0.4334,-0.4435,-0.4435,-0.4435,-0.4435,-0.4332,-0.4334,-0.4435,-0.4482,-0.4522,-0.4223,-0.4014,-0.4205,-0.432,-0.4478,-0.4476,-0.4385,-0.4385,-0.4295,-0.4385,-0.4652,-0.5191,-0.0,-0.0,-0.0,-0.0,-0.0,-0.0,-0.0,-0.0,-0.0,-0.0,-0.0,-0.0,-0.0,-0.0,-0.0,-0.0,-0.0,-0.0,-0.0,-0.0,-0.0,-0.0,-0.0,-0.0,-0.0,-0.0,-0.0,-0.0,-0.0,-0.0,-0.0,-0.0,-0.0,-0.0,-0.0,-0.0,-0.0,-0.0,-0.0,-0.0,-0.0,-0.0,-0.0,-0.0404,-0.0,-0.0,-0.0606,-0.0909,-0.1212,-0.1212,-0.1212,-0.1415,-0.1616,-0.1817,-0.1919,-0.202,-0.2019,-0.2019,-0.2221,-0.2423,-0.2624,-0.2624,-0.2725,-0.2825,-0.2826,-0.3327,-0.353,-0.3531,-0.3732,-0.3732,-0.3732,-0.3732,-0.4038,-0.414,-0.3734,-0.343,-0.3228,-0.3127,-0.3025,-0.3026,-0.3026,-0.2925,-0.2925,-0.2925,-0.2927,-0.2927,-0.323,-0.3332,-0.2826,-0.2523,-0.2825,-0.3025,-0.3328,-0.3632,-0.3732,-0.3632,-0.353,-0.353,-0.353,-0.3833,-0.3927,-0.3666,-0.3506,-0.3349,-0.3284,-0.3485,-0.3621,-0.3687,-0.3673,-0.3582,-0.3582,-0.3671,-0.3673,-0.3762,-0.4121,-0.0,-0.0,-0.0,-0.0,-0.0,-0.0,-0.0,-0.0,-0.0,-0.0,-0.0,-0.0,-0.0,-0.0,-0.0,-0.0,-0.0,-0.0,-0.0,-0.0,-0.0,-0.0,-0.0,-0.0,-0.0,-0.0,-0.0,-0.0,-0.0,-0.0,-0.0,-0.0,-0.0,-0.0,-0.0,-0.0,-0.0,-0.0,-0.0,-0.0,-0.0,-0.0,-0.0,-0.0,-0.0,-0.0,-0.0,-0.0404,-0.0707,-0.0707,-0.0707,-0.0909,-0.1111,-0.1313,-0.1414,-0.1515,-0.1717,-0.1818,-0.192,-0.2121,-0.2221,-0.2322,-0.2321,-0.2321,-0.2321,-0.2423,-0.2624,-0.2827,-0.2928,-0.313,-0.313,-0.313,-0.3433,-0.3536,-0.3029,-0.2725,-0.2522,-0.2422,-0.2423,-0.2423,-0.2321,-0.2321,-0.2321,-0.2321,-0.2321,-0.2321,-0.2321,-0.2321,-0.222,-0.212,-0.222,-0.2321,-0.2624,-0.2827,-0.3029,-0.3029,-0.2927,-0.3026,-0.3026,-0.3331,-0.3425,-0.3191,-0.285,-0.2502,-0.2547,-0.2873,-0.2914,-0.2974,-0.2876,-0.2872,-0.2957,-0.2959,-0.2959,-0.3048,-0.3136,-0.0,-0.0,-0.0,-0.0,-0.0,-0.0,-0.0,-0.0,-0.0,-0.0,-0.0,-0.0,-0.0,-0.0,-0.0,-0.0,-0.0,-0.0,-0.0,-0.0,-0.0,-0.0,-0.0,-0.0,-0.0,-0.0,-0.0,-0.0,-0.0,-0.0,-0.0,-0.0,-0.0,-0.0,-0.0,-0.0,-0.0,-0.0,-0.0,-0.0,-0.0,-0.0,-0.0,-0.0,-0.0,-0.0,-0.0,-0.0,-0.0101,-0.0202,-0.0,-0.0,-0.0505,-0.0808,-0.0909,-0.101,-0.1212,-0.1415,-0.1616,-0.1717,-0.1717,-0.1717,-0.1716,-0.1716,-0.1717,-0.1818,-0.1919,-0.1919,-0.2121,-0.2422,-0.2522,-0.2522,-0.2725,-0.2623,-0.222,-0.2321,-0.222,-0.212,-0.2121,-0.202,-0.1919,-0.1818,-0.1717,-0.1717,-0.1717,-0.1818,-0.1818,-0.1817,-0.1716,-0.1615,-0.1515,-0.1717,-0.1919,-0.2221,-0.2422,-0.2523,-0.2523,-0.2523,-0.2523,-0.2625,-0.2726,-0.2622,-0.2385,-0.2042,-0.2107,-0.2359,-0.2412,-0.2368,-0.2349,-0.2345,-0.2336,-0.2333,-0.2333,-0.2333,-0.2422]},{"header":{"parameterUnit":"m.s-1","parameterCategory":1,"la1":31.0,"la2":29.5877,"lo1":-88.7671,"lo2":-86.6584,"dy":0.0162,"dx":0.0185,"nx":115,"ny":88,"refTime":"2023-08-13T12:00:00:Z","depth":0,"parameterNumber":3,"parameterNumberName":"V-component_of_WINDS"},"data":[0.0,0.0,0.0,0.0,0.0,0.0,0.0,0.0,0.0,0.0,0.0,0.0,0.0,0.0,0.0,0.0,0.0,0.0,0.0,0.0,0.0,0.0,0.0,0.0,0.0,0.0,0.0,0.0,0.0,0.0,0.0,0.0,0.0,0.0,0.0,0.0,0.0,0.0,0.0,0.0,0.0,0.0,0.0,0.0,0.0,0.0,0.0,0.0,0.0,0.0,0.0,0.0,0.0,0.0,0.0,0.0,0.0,0.0,0.0,0.0,0.0,0.0,0.0,0.0,0.0,0.0,0.0,0.0,0.0,0.0,0.0,0.0,0.0,0.0,0.0,0.0,0.0,0.0,0.0,0.0,0.0,0.0,0.0,0.0,0.0,0.0,0.0,0.0,0.0,0.0,0.0,0.0,0.0,0.0,0.0,0.0,0.0,0.0,0.0,0.0,0.0,0.0,0.0,0.0,0.0,0.0,0.0,0.0,0.0,0.0,0.0,0.0,0.0,0.0,0.0,0.0,0.0,0.0,0.0,0.0,0.0,0.0,0.0,0.0,0.0,0.0,0.0,0.0,0.0,0.0,0.0,0.0,0.0,0.0,0.0,0.0,0.0,0.0,0.0,0.0,0.0,0.0,0.0,0.0,0.0,0.0,0.0,0.0,0.0,0.0,0.0,0.0,0.0,0.0,0.0,0.0,0.0,0.0,0.0,0.0,0.0,0.0,0.0,0.0,0.0,0.0,0.0,0.0,0.0,0.0,0.0,0.0,0.0,0.0,0.0,0.0,0.0,0.0,0.0,0.0,0.0,0.0,0.0,0.0,0.0,0.0,0.0,0.0,0.0,0.0,0.0,0.0,0.0,0.0,0.0,0.0,0.0,0.0,0.0,0.0,0.0,0.0,0.0,0.0,0.0,0.0,0.0,0.0,0.0,0.0,0.0,0.0,0.0,0.0,0.0,0.0,0.0,0.0,0.0,0.0,0.0,0.0,0.0,0.0,0.0,0.0,0.0,0.0,0.0,0.0,0.0,0.0,0.0,0.0,0.0,0.0,0.0,0.0,0.0,0.0,0.0,0.0,0.0,0.0,0.0,0.0,0.0,0.0,0.0,0.0,0.0,0.0,0.0,0.0,0.0,0.0,0.0,0.0,0.0,0.0,0.0,0.0,0.0,0.0,0.0,0.0,0.0,0.0,0.0,0.0,0.0,0.0,0.0,0.0,0.0,0.0,0.0,0.0,0.0,0.0,0.0,0.0,0.0,0.0,0.0,0.0,0.0,0.0,0.0,0.0,0.0,0.0,0.0,0.0,0.0,0.0,0.0,0.0,0.0,0.0,0.0,0.0,0.0,0.0,0.0,0.0,0.0,0.0,0.0,0.0,0.0,0.0,0.0,0.0,0.0,0.0,0.0,0.0,0.0,0.0,0.0,0.0,0.0,0.0,0.0,0.0,0.0,0.0,0.0,0.0,0.0,0.0,0.0,0.0,0.0,0.0,0.0,0.0,0.0,0.0,0.0,0.0,0.0,0.0,0.0,0.0,0.0,0.0,0.0,0.0,0.0,0.0,0.0,0.0,0.0,0.0,0.0,0.0,0.0,0.0,0.0,0.0,0.0,0.0,0.0,0.0,0.0,0.0,0.0,0.0,0.0,0.0,0.0,0.0,0.0,0.0,0.0,0.0,0.0,0.0,0.0,0.0,0.0,0.0,0.0,0.0,0.0,0.0,0.0,0.0,0.0,0.0,0.0,0.0,0.0,0.0,0.0,0.0,0.0,0.0,0.0,0.0,0.0,0.0,0.0,0.0,0.0,0.0,0.0,0.0,0.0,0.0,0.0,0.0,0.0,0.0,0.0,0.0,0.0,0.0,0.0,0.0,0.0,0.0,0.0,0.0,0.0,0.0,0.0,0.0,0.0,0.0,0.0,0.0,0.0,0.0,0.0,0.0,0.0,0.0,0.0,0.0,0.0,0.0,0.0,0.0,0.0,0.0,0.0,0.0,0.0,0.0,0.0,0.0,0.0,0.0,0.0,0.0,0.0,0.0,0.0,0.0,0.0,0.0,0.0,0.0,0.0,0.0,0.0,0.0,0.0,0.0,0.0,0.0,0.0,0.0,0.0,0.0,0.0,0.0,0.0,0.0,0.0,0.0,0.0,0.0,0.0,0.0,0.0,0.0,0.0,0.0,0.0,0.0,0.0,0.0,0.0,0.0,0.0,0.0,0.0,0.0,0.0,0.0,0.0,0.0,0.0,0.0,0.0,0.0,0.0,0.0,0.0,0.0,0.0,0.0,0.0,0.0,0.0,0.0,0.0,0.0,0.0,0.0,0.0,0.0,0.0,0.0,0.0,0.0,0.0,0.0,0.0,0.0,0.0,0.0,0.0,0.0,0.0,0.0,0.0,0.0,0.0,0.0,0.0,0.0,0.0,0.0,0.0,0.0,0.0,0.0,0.0,0.0,0.0,0.0,0.0,0.0,0.0,0.0,0.0,0.0,0.0,0.0,0.0,0.0,0.0,0.0,0.0,0.0,0.0,0.0,0.0,0.0,0.0,0.0,0.0,0.0,0.0,0.0,0.0,0.0,0.0,0.0,0.0,0.0,0.0,0.0,0.0,0.0,0.0,0.0,0.0,0.0,0.0,0.0,0.0,0.0,0.0,0.0,0.0,0.0,0.0,0.0,0.0,0.0,0.0,0.0,0.0,0.0,0.0,0.0,0.0,0.0,0.0,0.0,0.0,0.0,0.0,0.0,0.0,0.0,0.0,0.0,0.0,0.0,0.0,0.0,0.0,0.0,0.0,0.0,0.0,0.0,0.0,0.0,0.0,0.0,0.0,0.0,0.0,0.0,0.0,0.0,0.0,0.0,0.0,0.0,0.0,0.0,0.0,0.0,0.0,0.0,0.0,0.0,0.0,0.0,0.0,0.0,0.0,0.0,0.0,0.0,0.0,0.0,0.0,0.0,0.0,0.0,0.0,0.0,0.0,0.0,0.0,0.0,0.0,0.0,0.0,0.0,0.0,0.0,0.0,0.0,0.0,0.0,0.0,0.0,0.0,0.0,0.0,0.0,0.0,0.0,0.0,0.0,0.0,0.0,0.0,0.0,0.0,0.0,0.0,0.0,0.0,0.0,0.0,0.0,0.0,0.0,0.0,0.0,0.0,0.0,0.0,0.0,0.0,0.0,0.0,0.0,0.0,0.0,0.0,0.0,0.0,0.0,0.0,0.0,0.0,0.0,0.0,0.0,0.0,0.0,0.0,0.0,0.0,0.0,0.0,0.0,0.0,0.0,0.0,0.0,0.0,0.0,0.0,0.0,0.0,0.0,0.0,0.0,0.0,0.0,0.0,0.0,0.0,0.0,0.0,0.0,0.0,0.0,0.0,0.0,0.0,0.0,0.0,0.0,0.0,0.0,0.0,0.0,0.0,0.0,0.0,0.0,0.0,0.0,0.0,0.0,0.0,0.0,0.0,0.0,0.0,0.0,0.0,0.0,0.0,0.0,0.0,0.0,0.0,0.0,0.0,0.0,0.0,0.0,0.0,0.0,0.0,0.0,0.0,0.0,0.0,0.0,0.0,0.0,0.0,0.0,0.0,0.0,0.0,0.0,0.0,0.0,0.0,0.0,0.0,0.0,0.0,0.0,0.0,0.0,0.0,0.0,0.0,0.0,0.0,0.0,0.0,0.0,0.0,0.0,0.0,0.0,0.0,0.0,0.0,0.0,0.0,0.0,0.0,0.0,0.0,0.0,0.0,0.0,0.0,0.0,0.0,0.0,0.0,0.0,0.0,0.0,0.0,0.0,0.0,0.0,0.0,0.0,0.0,0.0,0.0,0.0,0.0,0.0,0.0,0.0,0.0,0.0,0.0,0.0,0.0,0.0,0.0,0.0,0.0,0.0,0.0,0.0,0.0,0.0,0.0,0.0,0.0,0.0,0.0,0.0,0.0,0.0,0.0,0.0,0.0,0.0,0.0,0.0,0.0,0.0,0.0,0.0,0.0,0.0,0.0,0.0,0.0,0.0,0.0,0.0,0.0,0.0,0.0,0.0,0.0,0.0,0.0,0.0,0.0,0.0,0.0,0.0,0.0,0.0,0.0,0.0,0.0,0.0,0.0,0.0,0.0,0.0,0.0,0.0,0.0,0.0,0.0,0.0,0.0,0.0,0.0,0.0,0.0,0.0,0.0,0.0,0.0,0.0,0.0,0.0,0.0,0.0,0.0,0.0,0.0,0.0,0.0,0.0,0.0,0.0,0.0,0.0,0.0,0.0,0.0,0.0,-3.5942,0.0,0.0,0.0,0.0,0.0,0.0,0.0,0.0,0.0,0.0,0.0,0.0,0.0,0.0,0.0,0.0,0.0,0.0,0.0,0.0,0.0,0.0,0.0,0.0,0.0,0.0,0.0,0.0,0.0,0.0,0.0,0.0,0.0,0.0,0.0,0.0,0.0,0.0,0.0,0.0,0.0,0.0,0.0,0.0,0.0,0.0,0.0,0.0,0.0,0.0,0.0,0.0,0.0,0.0,0.0,0.0,0.0,0.0,0.0,0.0,0.0,0.0,0.0,0.0,0.0,0.0,0.0,0.0,0.0,0.0,0.0,0.0,0.0,0.0,0.0,0.0,0.0,0.0,0.0,0.0,0.0,0.0,0.0,0.0,0.0,0.0,0.0,0.0,0.0,0.0,0.0,0.0,0.0,0.0,0.0,0.0,0.0,0.0,0.0,0.0,0.0,0.0,0.0,0.0,0.0,0.0,0.0,0.0,0.0,0.0,-4.0395,-4.0426,-3.9164,-3.8079,-3.7336,0.0,0.0,0.0,0.0,0.0,0.0,0.0,0.0,0.0,0.0,0.0,0.0,0.0,0.0,0.0,0.0,0.0,0.0,0.0,0.0,0.0,0.0,0.0,0.0,0.0,0.0,0.0,0.0,0.0,0.0,0.0,0.0,0.0,0.0,0.0,0.0,0.0,0.0,0.0,0.0,0.0,0.0,0.0,0.0,0.0,0.0,0.0,0.0,0.0,0.0,0.0,0.0,0.0,0.0,0.0,0.0,0.0,0.0,0.0,0.0,0.0,0.0,0.0,0.0,0.0,0.0,0.0,0.0,0.0,0.0,0.0,0.0,0.0,0.0,0.0,0.0,0.0,0.0,0.0,0.0,0.0,0.0,0.0,0.0,0.0,0.0,0.0,0.0,0.0,0.0,0.0,0.0,0.0,0.0,0.0,0.0,0.0,0.0,0.0,0.0,0.0,0.0,0.0,0.0,0.0,0.0,0.0,0.0,0.0,0.0,0.0,0.0,-3.958,-3.8576,-3.8149,0.0,0.0,0.0,0.0,0.0,0.0,0.0,0.0,0.0,0.0,0.0,0.0,0.0,0.0,0.0,0.0,0.0,0.0,0.0,0.0,0.0,0.0,0.0,0.0,0.0,0.0,0.0,0.0,0.0,0.0,0.0,0.0,0.0,0.0,0.0,0.0,0.0,0.0,0.0,0.0,0.0,0.0,0.0,0.0,0.0,0.0,0.0,0.0,0.0,0.0,0.0,0.0,0.0,0.0,0.0,0.0,0.0,0.0,0.0,0.0,0.0,0.0,0.0,0.0,0.0,0.0,0.0,0.0,0.0,0.0,0.0,0.0,0.0,0.0,0.0,0.0,0.0,0.0,0.0,0.0,0.0,0.0,0.0,0.0,0.0,0.0,0.0,0.0,0.0,0.0,0.0,0.0,0.0,0.0,0.0,0.0,0.0,0.0,0.0,0.0,0.0,0.0,0.0,0.0,0.0,0.0,0.0,0.0,0.0,0.0,-4.0189,-4.0955,-4.0084,0.0,-3.7303,0.0,0.0,0.0,0.0,0.0,0.0,0.0,0.0,0.0,0.0,0.0,0.0,0.0,0.0,0.0,0.0,0.0,0.0,0.0,0.0,0.0,0.0,0.0,0.0,0.0,0.0,0.0,0.0,0.0,0.0,0.0,0.0,0.0,0.0,0.0,0.0,0.0,0.0,0.0,0.0,0.0,0.0,0.0,0.0,0.0,0.0,0.0,0.0,0.0,0.0,0.0,0.0,0.0,0.0,0.0,0.0,0.0,0.0,0.0,0.0,0.0,0.0,0.0,0.0,0.0,0.0,0.0,0.0,0.0,0.0,0.0,0.0,0.0,0.0,0.0,0.0,0.0,0.0,0.0,0.0,0.0,0.0,0.0,0.0,0.0,0.0,0.0,0.0,0.0,0.0,0.0,0.0,0.0,0.0,0.0,0.0,0.0,0.0,0.0,0.0,0.0,0.0,0.0,0.0,0.0,0.0,0.0,0.0,0.0,0.0,-4.0022,-4.0799,-3.9481,-3.82,0.0,0.0,0.0,0.0,0.0,0.0,0.0,0.0,0.0,0.0,0.0,0.0,0.0,0.0,0.0,0.0,0.0,0.0,0.0,0.0,0.0,0.0,0.0,0.0,0.0,0.0,0.0,0.0,0.0,0.0,0.0,0.0,0.0,0.0,0.0,0.0,0.0,0.0,0.0,0.0,0.0,0.0,0.0,0.0,0.0,0.0,0.0,0.0,0.0,0.0,0.0,0.0,0.0,0.0,0.0,0.0,0.0,0.0,0.0,0.0,0.0,0.0,0.0,0.0,0.0,0.0,0.0,0.0,0.0,0.0,0.0,0.0,0.0,0.0,0.0,0.0,0.0,0.0,0.0,0.0,0.0,0.0,0.0,0.0,0.0,0.0,0.0,0.0,0.0,0.0,0.0,0.0,0.0,0.0,0.0,0.0,0.0,0.0,0.0,0.0,0.0,0.0,0.0,0.0,0.0,0.0,0.0,0.0,0.0,0.0,-3.853,-3.9143,-3.9767,-3.8646,-3.763,-3.6805,0.0,0.0,0.0,0.0,0.0,0.0,0.0,0.0,0.0,0.0,0.0,0.0,0.0,0.0,0.0,0.0,0.0,0.0,0.0,0.0,0.0,0.0,0.0,0.0,0.0,0.0,0.0,0.0,0.0,0.0,0.0,0.0,0.0,0.0,0.0,0.0,0.0,0.0,0.0,0.0,0.0,0.0,0.0,0.0,0.0,0.0,0.0,0.0,0.0,0.0,0.0,0.0,0.0,0.0,0.0,0.0,0.0,0.0,0.0,0.0,0.0,0.0,0.0,0.0,0.0,0.0,0.0,0.0,0.0,0.0,0.0,0.0,0.0,0.0,0.0,0.0,0.0,0.0,0.0,0.0,0.0,0.0,0.0,0.0,0.0,0.0,0.0,0.0,0.0,0.0,0.0,0.0,0.0,0.0,0.0,0.0,0.0,0.0,0.0,0.0,0.0,0.0,0.0,0.0,0.0,0.0,0.0,0.0,-3.7035,-3.6933,-3.7163,-3.7838,-3.774,-3.7335,0.0,0.0,0.0,0.0,0.0,0.0,0.0,0.0,0.0,0.0,0.0,0.0,0.0,0.0,0.0,0.0,0.0,0.0,0.0,0.0,0.0,0.0,0.0,0.0,0.0,0.0,0.0,0.0,0.0,0.0,0.0,0.0,0.0,0.0,0.0,0.0,0.0,0.0,0.0,0.0,0.0,0.0,0.0,0.0,0.0,0.0,0.0,0.0,0.0,0.0,0.0,0.0,0.0,0.0,0.0,0.0,0.0,0.0,0.0,0.0,0.0,0.0,0.0,0.0,0.0,0.0,0.0,0.0,0.0,0.0,0.0,0.0,0.0,0.0,0.0,0.0,0.0,0.0,0.0,0.0,0.0,0.0,0.0,0.0,0.0,0.0,0.0,0.0,0.0,0.0,0.0,0.0,0.0,0.0,0.0,0.0,0.0,0.0,0.0,0.0,0.0,0.0,0.0,0.0,0.0,0.0,0.0,0.0,0.0,-3.6716,-3.6972,-3.7145,-3.7296,-3.6803,-3.6425,0.0,0.0,0.0,0.0,0.0,0.0,0.0,0.0,0.0,0.0,0.0,0.0,0.0,0.0,0.0,0.0,0.0,0.0,0.0,0.0,0.0,0.0,0.0,0.0,0.0,0.0,0.0,0.0,0.0,0.0,0.0,0.0,0.0,0.0,0.0,0.0,0.0,0.0,0.0,0.0,0.0,0.0,0.0,0.0,0.0,0.0,0.0,0.0,0.0,0.0,0.0,0.0,0.0,0.0,0.0,0.0,0.0,0.0,0.0,0.0,0.0,0.0,0.0,0.0,0.0,0.0,0.0,0.0,0.0,0.0,0.0,0.0,0.0,0.0,0.0,0.0,0.0,0.0,0.0,0.0,0.0,0.0,0.0,0.0,0.0,0.0,0.0,0.0,0.0,0.0,0.0,0.0,0.0,0.0,0.0,0.0,0.0,0.0,0.0,0.0,0.0,0.0,0.0,0.0,0.0,0.0,0.0,0.0,0.0,-3.5945,0.0,-3.6791,-3.611,-3.611,-3.5916,0.0,0.0,0.0,0.0,0.0,0.0,0.0,0.0,0.0,0.0,0.0,0.0,0.0,0.0,0.0,0.0,0.0,0.0,0.0,0.0,0.0,0.0,0.0,0.0,0.0,0.0,0.0,0.0,0.0,0.0,0.0,0.0,0.0,0.0,0.0,0.0,0.0,0.0,0.0,0.0,0.0,0.0,0.0,0.0,0.0,0.0,0.0,0.0,0.0,0.0,0.0,0.0,0.0,0.0,0.0,0.0,0.0,0.0,0.0,0.0,0.0,0.0,0.0,0.0,0.0,0.0,0.0,0.0,0.0,0.0,0.0,0.0,0.0,0.0,0.0,0.0,0.0,0.0,0.0,0.0,0.0,0.0,0.0,0.0,0.0,0.0,0.0,0.0,0.0,0.0,0.0,0.0,0.0,0.0,0.0,0.0,0.0,0.0,0.0,0.0,0.0,0.0,0.0,0.0,0.0,0.0,0.0,0.0,-3.5047,-3.4606,-3.595,-3.5869,-3.419,-3.5681,-3.5813,0.0,0.0,0.0,0.0,0.0,0.0,0.0,0.0,0.0,0.0,0.0,0.0,0.0,0.0,0.0,0.0,0.0,0.0,0.0,0.0,0.0,0.0,0.0,0.0,0.0,0.0,0.0,0.0,0.0,0.0,0.0,0.0,0.0,0.0,0.0,0.0,0.0,0.0,0.0,0.0,0.0,0.0,0.0,0.0,0.0,0.0,0.0,0.0,0.0,0.0,0.0,0.0,0.0,0.0,0.0,0.0,0.0,0.0,0.0,0.0,0.0,0.0,0.0,0.0,0.0,0.0,0.0,0.0,0.0,0.0,0.0,0.0,0.0,0.0,0.0,0.0,0.0,0.0,0.0,0.0,0.0,0.0,0.0,0.0,0.0,0.0,0.0,0.0,0.0,0.0,0.0,0.0,0.0,0.0,0.0,0.0,0.0,0.0,0.0,0.0,0.0,0.0,0.0,0.0,0.0,0.0,0.0,0.0,0.0,-3.498,-3.5198,-3.5292,-3.525,-3.5224,-3.5054,0.0,0.0,0.0,0.0,0.0,0.0,0.0,0.0,0.0,0.0,0.0,0.0,0.0,0.0,0.0,0.0,0.0,0.0,0.0,0.0,0.0,0.0,0.0,0.0,0.0,0.0,0.0,0.0,0.0,0.0,0.0,0.0,0.0,0.0,0.0,0.0,0.0,0.0,0.0,0.0,0.0,0.0,0.0,0.0,0.0,0.0,0.0,0.0,0.0,0.0,0.0,0.0,0.0,0.0,0.0,0.0,0.0,0.0,0.0,0.0,0.0,0.0,0.0,0.0,0.0,0.0,0.0,0.0,0.0,0.0,0.0,0.0,0.0,0.0,0.0,0.0,0.0,0.0,0.0,0.0,0.0,0.0,0.0,0.0,0.0,0.0,0.0,0.0,0.0,0.0,0.0,0.0,0.0,0.0,0.0,0.0,0.0,0.0,0.0,0.0,0.0,0.0,0.0,0.0,0.0,0.0,0.0,0.0,0.0,-3.461,-3.4821,-3.5065,-3.5468,-3.5303,-3.5051,-3.4624,0.0,0.0,0.0,0.0,0.0,0.0,0.0,0.0,0.0,0.0,0.0,0.0,0.0,0.0,0.0,0.0,0.0,0.0,0.0,0.0,0.0,0.0,0.0,0.0,0.0,0.0,0.0,0.0,0.0,0.0,0.0,0.0,0.0,0.0,0.0,0.0,0.0,0.0,0.0,0.0,0.0,0.0,0.0,0.0,0.0,0.0,0.0,0.0,0.0,0.0,0.0,0.0,0.0,0.0,0.0,0.0,0.0,0.0,0.0,0.0,0.0,0.0,0.0,0.0,0.0,0.0,0.0,0.0,0.0,0.0,0.0,0.0,0.0,0.0,0.0,0.0,0.0,0.0,0.0,0.0,0.0,0.0,0.0,0.0,0.0,0.0,0.0,0.0,0.0,0.0,0.0,0.0,0.0,0.0,0.0,0.0,0.0,0.0,0.0,0.0,0.0,0.0,0.0,0.0,0.0,0.0,0.0,0.0,-3.3665,-3.4588,-3.4995,-3.4977,-3.5794,-3.565,0.0,0.0,0.0,0.0,0.0,0.0,0.0,0.0,0.0,0.0,0.0,0.0,0.0,0.0,0.0,0.0,0.0,0.0,0.0,0.0,0.0,0.0,0.0,0.0,0.0,0.0,0.0,0.0,0.0,0.0,0.0,0.0,0.0,0.0,0.0,0.0,0.0,0.0,0.0,0.0,0.0,0.0,0.0,0.0,0.0,0.0,0.0,0.0,0.0,0.0,0.0,0.0,0.0,0.0,0.0,0.0,0.0,0.0,0.0,0.0,0.0,0.0,0.0,0.0,0.0,0.0,0.0,0.0,0.0,0.0,0.0,0.0,0.0,0.0,0.0,0.0,0.0,0.0,0.0,0.0,0.0,0.0,0.0,0.0,0.0,0.0,0.0,0.0,0.0,0.0,0.0,0.0,0.0,0.0,0.0,0.0,0.0,0.0,0.0,0.0,0.0,0.0,0.0,0.0,0.0,0.0,0.0,0.0,0.0,-3.3312,-3.3387,-3.4033,-3.529,-3.565,-3.5449,0.0,0.0,0.0,0.0,0.0,0.0,0.0,0.0,0.0,0.0,0.0,0.0,0.0,0.0,0.0,0.0,0.0,0.0,0.0,0.0,0.0,0.0,0.0,0.0,0.0,0.0,0.0,0.0,0.0,0.0,0.0,0.0,0.0,0.0,0.0,0.0,0.0,0.0,0.0,0.0,0.0,0.0,0.0,0.0,0.0,0.0,0.0,0.0,0.0,0.0,0.0,0.0,0.0,0.0,0.0,0.0,0.0,0.0,0.0,0.0,0.0,0.0,0.0,0.0,0.0,0.0,0.0,0.0,0.0,0.0,0.0,0.0,0.0,0.0,0.0,0.0,0.0,0.0,0.0,0.0,0.0,0.0,0.0,0.0,0.0,0.0,0.0,0.0,0.0,0.0,0.0,0.0,0.0,0.0,0.0,0.0,0.0,0.0,0.0,0.0,0.0,0.0,0.0,0.0,0.0,0.0,0.0,0.0,-3.2244,-3.2366,-3.2461,-3.3003,-3.402,-3.4915,-3.5174,0.0,0.0,0.0,0.0,0.0,0.0,0.0,0.0,0.0,0.0,0.0,0.0,0.0,0.0,0.0,0.0,0.0,0.0,0.0,0.0,0.0,0.0,0.0,0.0,0.0,0.0,0.0,0.0,0.0,0.0,0.0,0.0,0.0,0.0,0.0,0.0,0.0,0.0,0.0,0.0,0.0,0.0,0.0,0.0,0.0,0.0,0.0,0.0,0.0,0.0,0.0,0.0,0.0,0.0,0.0,0.0,0.0,0.0,0.0,0.0,0.0,0.0,0.0,0.0,0.0,0.0,0.0,0.0,0.0,0.0,0.0,0.0,0.0,0.0,0.0,0.0,0.0,0.0,0.0,0.0,0.0,0.0,0.0,0.0,0.0,0.0,0.0,0.0,0.0,0.0,0.0,0.0,0.0,0.0,0.0,0.0,0.0,0.0,0.0,0.0,0.0,0.0,0.0,0.0,0.0,0.0,0.0,0.0,-3.1584,-3.1151,-3.1651,-3.19,-3.201,-3.3953,-3.4737,0.0,0.0,0.0,0.0,0.0,0.0,0.0,0.0,0.0,0.0,0.0,0.0,0.0,0.0,0.0,0.0,0.0,0.0,0.0,0.0,0.0,0.0,0.0,0.0,0.0,0.0,0.0,0.0,0.0,0.0,0.0,0.0,0.0,0.0,0.0,0.0,0.0,0.0,0.0,0.0,0.0,0.0,0.0,0.0,0.0,0.0,0.0,0.0,0.0,0.0,0.0,0.0,0.0,0.0,0.0,0.0,0.0,0.0,0.0,0.0,0.0,0.0,0.0,0.0,0.0,0.0,0.0,0.0,0.0,0.0,0.0,0.0,0.0,0.0,0.0,0.0,0.0,0.0,0.0,0.0,0.0,0.0,0.0,0.0,0.0,0.0,0.0,0.0,0.0,0.0,0.0,0.0,0.0,0.0,0.0,0.0,0.0,0.0,0.0,0.0,0.0,0.0,0.0,0.0,0.0,0.0,0.0,0.0,-3.09,-3.0634,-3.0632,-3.0925,-3.1593,-3.3026,-3.3543,0.0,0.0,0.0,0.0,0.0,0.0,0.0,0.0,0.0,0.0,0.0,0.0,0.0,0.0,0.0,0.0,0.0,0.0,0.0,0.0,0.0,0.0,0.0,0.0,0.0,0.0,0.0,0.0,0.0,0.0,0.0,0.0,0.0,0.0,0.0,0.0,0.0,0.0,0.0,0.0,0.0,0.0,0.0,0.0,0.0,0.0,0.0,0.0,-3.8935,0.0,0.0,0.0,0.0,0.0,0.0,0.0,0.0,0.0,0.0,0.0,0.0,0.0,0.0,0.0,0.0,0.0,0.0,0.0,0.0,0.0,0.0,0.0,0.0,0.0,0.0,0.0,0.0,0.0,0.0,0.0,0.0,0.0,0.0,0.0,0.0,0.0,0.0,0.0,0.0,0.0,0.0,0.0,0.0,0.0,0.0,0.0,0.0,0.0,0.0,0.0,0.0,0.0,0.0,0.0,0.0,0.0,0.0,0.0,-3.0349,-3.0113,-2.9935,-3.0084,-3.0631,-3.1394,-3.2001,0.0,0.0,0.0,0.0,0.0,0.0,0.0,0.0,0.0,0.0,0.0,0.0,0.0,0.0,0.0,0.0,0.0,0.0,0.0,0.0,0.0,0.0,0.0,0.0,0.0,0.0,0.0,0.0,0.0,0.0,0.0,0.0,0.0,0.0,0.0,0.0,0.0,0.0,0.0,0.0,0.0,0.0,0.0,0.0,0.0,0.0,0.0,0.0,0.0,0.0,0.0,0.0,0.0,0.0,0.0,0.0,0.0,0.0,0.0,0.0,0.0,0.0,0.0,0.0,0.0,0.0,0.0,0.0,0.0,0.0,0.0,0.0,0.0,0.0,0.0,0.0,0.0,0.0,0.0,0.0,0.0,0.0,0.0,0.0,0.0,0.0,0.0,0.0,0.0,0.0,0.0,0.0,0.0,0.0,0.0,0.0,0.0,0.0,0.0,0.0,0.0,0.0,0.0,0.0,0.0,0.0,0.0,-3.0129,-2.9796,-2.9483,-2.9359,-2.9391,-2.947,-2.975,-3.0461,-3.1708,0.0,0.0,0.0,0.0,0.0,0.0,0.0,0.0,0.0,0.0,0.0,0.0,0.0,0.0,0.0,0.0,0.0,0.0,0.0,0.0,0.0,0.0,0.0,0.0,0.0,0.0,0.0,0.0,0.0,0.0,0.0,0.0,0.0,0.0,0.0,0.0,0.0,0.0,-3.5645,-3.7685,0.0,0.0,0.0,0.0,0.0,0.0,0.0,0.0,-3.8881,0.0,0.0,0.0,0.0,0.0,0.0,0.0,0.0,0.0,0.0,0.0,0.0,0.0,0.0,0.0,0.0,0.0,0.0,0.0,0.0,0.0,0.0,0.0,0.0,0.0,0.0,0.0,0.0,0.0,0.0,0.0,0.0,0.0,0.0,0.0,0.0,0.0,0.0,0.0,0.0,0.0,0.0,0.0,0.0,0.0,0.0,0.0,0.0,0.0,0.0,0.0,0.0,0.0,0.0,0.0,0.0,-2.9924,-2.947,-2.9118,-2.8858,-2.8662,-2.8662,-2.8826,-2.9198,-2.9681,-3.0303,0.0,0.0,0.0,0.0,0.0,0.0,0.0,0.0,0.0,0.0,0.0,0.0,0.0,0.0,0.0,0.0,0.0,0.0,0.0,0.0,0.0,0.0,0.0,0.0,0.0,0.0,0.0,0.0,0.0,0.0,0.0,0.0,0.0,0.0,0.0,0.0,0.0,0.0,0.0,-3.7584,-3.8467,0.0,0.0,0.0,0.0,0.0,0.0,0.0,0.0,-3.8886,0.0,0.0,0.0,0.0,0.0,0.0,0.0,0.0,0.0,0.0,0.0,0.0,0.0,0.0,0.0,0.0,0.0,0.0,0.0,0.0,0.0,0.0,0.0,0.0,0.0,0.0,0.0,0.0,0.0,0.0,0.0,0.0,0.0,0.0,0.0,0.0,0.0,0.0,0.0,0.0,0.0,0.0,0.0,0.0,0.0,0.0,0.0,0.0,0.0,0.0,0.0,0.0,0.0,0.0,0.0,-2.9406,-2.8971,-2.8652,-2.8446,-2.829,-2.8305,-2.8525,-2.8873,-2.9494,0.0,0.0,0.0,0.0,0.0,0.0,0.0,0.0,0.0,0.0,0.0,0.0,0.0,0.0,0.0,0.0,0.0,0.0,0.0,0.0,0.0,0.0,0.0,0.0,0.0,0.0,0.0,0.0,0.0,0.0,0.0,0.0,0.0,0.0,0.0,0.0,0.0,0.0,0.0,0.0,-3.6939,-3.7644,-3.7793,0.0,0.0,0.0,0.0,0.0,0.0,-3.8325,-3.8731,0.0,0.0,0.0,0.0,0.0,0.0,0.0,0.0,0.0,0.0,0.0,0.0,0.0,0.0,0.0,0.0,0.0,0.0,0.0,0.0,0.0,0.0,0.0,0.0,0.0,0.0,0.0,0.0,0.0,0.0,0.0,0.0,0.0,0.0,0.0,0.0,0.0,0.0,0.0,0.0,0.0,0.0,0.0,0.0,0.0,0.0,0.0,0.0,0.0,0.0,0.0,0.0,0.0,0.0,0.0,-2.9028,-2.856,-2.8247,-2.8122,-2.8011,-2.8061,-2.8299,-2.87,-2.9422,0.0,0.0,0.0,0.0,0.0,0.0,0.0,0.0,0.0,0.0,0.0,0.0,0.0,0.0,0.0,0.0,0.0,0.0,0.0,0.0,0.0,0.0,0.0,0.0,0.0,0.0,0.0,0.0,0.0,0.0,0.0,0.0,0.0,0.0,0.0,0.0,0.0,0.0,0.0,0.0,0.0,-3.7036,-3.7413,-3.7563,0.0,0.0,0.0,0.0,-3.791,-3.8258,0.0,0.0,0.0,0.0,0.0,0.0,0.0,0.0,0.0,0.0,0.0,0.0,0.0,0.0,0.0,0.0,0.0,0.0,0.0,0.0,0.0,0.0,0.0,0.0,0.0,0.0,0.0,0.0,0.0,0.0,0.0,0.0,0.0,0.0,0.0,0.0,0.0,0.0,0.0,0.0,0.0,0.0,0.0,0.0,0.0,0.0,0.0,0.0,0.0,0.0,0.0,0.0,0.0,0.0,0.0,0.0,-2.8716,-2.8307,-2.7969,-2.784,-2.769,-2.7806,-2.8054,-2.8479,-2.9281,0.0,0.0,0.0,0.0,0.0,0.0,0.0,0.0,0.0,0.0,0.0,0.0,0.0,0.0,0.0,0.0,0.0,0.0,0.0,0.0,0.0,0.0,0.0,0.0,0.0,0.0,0.0,0.0,0.0,0.0,0.0,0.0,0.0,0.0,0.0,0.0,0.0,0.0,0.0,0.0,0.0,-3.7301,-3.8162,-3.7908,-3.7804,0.0,0.0,-3.8269,-3.8508,-3.8743,0.0,0.0,0.0,0.0,0.0,0.0,0.0,0.0,0.0,0.0,0.0,0.0,0.0,0.0,0.0,0.0,0.0,0.0,0.0,0.0,0.0,0.0,0.0,0.0,0.0,0.0,0.0,0.0,0.0,0.0,0.0,0.0,0.0,0.0,0.0,0.0,0.0,0.0,0.0,0.0,0.0,0.0,0.0,0.0,0.0,0.0,0.0,0.0,0.0,0.0,0.0,0.0,0.0,0.0,0.0,-2.8873,-2.8414,-2.7997,-2.775,-2.7675,-2.7625,-2.7775,-2.8088,-2.8479,-2.9517,0.0,0.0,0.0,0.0,0.0,0.0,0.0,0.0,0.0,0.0,0.0,0.0,0.0,0.0,0.0,0.0,0.0,0.0,0.0,0.0,0.0,0.0,0.0,0.0,0.0,0.0,0.0,0.0,0.0,0.0,0.0,0.0,0.0,0.0,0.0,0.0,0.0,0.0,0.0,0.0,0.0,0.0,-3.7747,-3.7834,0.0,0.0,0.0,-3.8493,-3.8502,0.0,0.0,0.0,0.0,0.0,0.0,0.0,0.0,0.0,0.0,0.0,0.0,0.0,0.0,0.0,0.0,0.0,0.0,0.0,0.0,0.0,0.0,0.0,0.0,0.0,0.0,0.0,0.0,0.0,0.0,0.0,0.0,0.0,0.0,0.0,0.0,0.0,0.0,0.0,0.0,0.0,0.0,0.0,0.0,0.0,0.0,0.0,0.0,0.0,0.0,0.0,0.0,0.0,0.0,0.0,0.0,0.0,-2.8171,-2.7825,-2.756,-2.761,-2.766,-2.781,-2.8186,-2.8574,0.0,0.0,0.0,0.0,0.0,0.0,0.0,0.0,0.0,0.0,0.0,0.0,0.0,0.0,0.0,0.0,0.0,0.0,0.0,0.0,0.0,0.0,0.0,0.0,0.0,0.0,0.0,-3.7091,0.0,0.0,0.0,0.0,0.0,0.0,0.0,0.0,0.0,0.0,0.0,0.0,0.0,0.0,-3.7227,-3.7477,-3.7833,-3.8026,0.0,0.0,-3.8802,-3.8646,-3.908,-3.9424,0.0,0.0,0.0,0.0,0.0,0.0,0.0,0.0,0.0,0.0,0.0,0.0,0.0,0.0,0.0,0.0,0.0,0.0,0.0,0.0,0.0,0.0,0.0,0.0,0.0,0.0,0.0,0.0,0.0,0.0,0.0,0.0,0.0,0.0,0.0,0.0,0.0,0.0,0.0,0.0,0.0,0.0,0.0,0.0,0.0,0.0,0.0,0.0,0.0,0.0,0.0,0.0,0.0,0.0,-2.8431,-2.8186,-2.784,-2.756,-2.7625,-2.773,-2.7929,-2.8171,-2.8622,-2.9484,0.0,0.0,0.0,0.0,0.0,0.0,0.0,0.0,0.0,0.0,0.0,0.0,0.0,0.0,0.0,0.0,0.0,0.0,0.0,0.0,0.0,0.0,0.0,0.0,0.0,0.0,0.0,0.0,0.0,0.0,0.0,0.0,0.0,0.0,0.0,0.0,0.0,0.0,0.0,0.0,0.0,-3.751,-3.7821,-3.8182,-3.8572,0.0,-3.932,-3.9349,-3.9349,-3.9379,-3.9424,-3.9424,0.0,0.0,0.0,0.0,0.0,0.0,0.0,0.0,0.0,0.0,0.0,0.0,0.0,0.0,0.0,0.0,0.0,0.0,0.0,0.0,0.0,0.0,0.0,0.0,0.0,0.0,0.0,0.0,0.0,0.0,0.0,0.0,0.0,0.0,0.0,0.0,0.0,0.0,0.0,0.0,0.0,0.0,0.0,0.0,0.0,0.0,0.0,0.0,0.0,0.0,0.0,0.0,0.0,-2.8483,-2.8531,-2.7936,-2.756,-2.7625,-2.7715,-2.7963,-2.8299,-2.8779,-2.9637,0.0,0.0,0.0,0.0,0.0,0.0,0.0,0.0,0.0,0.0,0.0,0.0,0.0,0.0,0.0,0.0,0.0,0.0,0.0,0.0,0.0,0.0,0.0,0.0,0.0,0.0,0.0,0.0,-3.8143,-3.7809,-3.7226,0.0,0.0,0.0,0.0,0.0,0.0,0.0,0.0,0.0,0.0,-3.7748,-3.7758,-3.8507,0.0,0.0,-3.9424,-3.9424,-3.9424,-3.9424,-3.9424,-3.9424,-3.9753,0.0,0.0,0.0,0.0,0.0,0.0,0.0,0.0,0.0,0.0,0.0,0.0,0.0,0.0,0.0,0.0,0.0,0.0,0.0,0.0,0.0,0.0,0.0,0.0,0.0,0.0,0.0,0.0,0.0,0.0,0.0,0.0,0.0,0.0,0.0,0.0,0.0,0.0,0.0,0.0,0.0,0.0,0.0,0.0,0.0,0.0,0.0,0.0,0.0,0.0,0.0,0.0,-2.8935,-2.8925,-2.8308,-2.7861,-2.774,-2.7894,-2.814,-2.8477,-2.8967,-2.9723,0.0,0.0,0.0,0.0,0.0,0.0,0.0,0.0,0.0,0.0,0.0,0.0,0.0,0.0,0.0,0.0,0.0,0.0,0.0,0.0,0.0,0.0,0.0,0.0,0.0,0.0,0.0,0.0,-3.7613,-3.7309,-3.7068,0.0,0.0,0.0,0.0,0.0,0.0,0.0,0.0,0.0,0.0,-3.7633,-3.7586,-3.8467,-3.9145,-3.9337,-3.9424,-3.9424,-3.9424,-3.9424,-3.9469,-3.9679,0.0,0.0,0.0,0.0,0.0,0.0,0.0,0.0,0.0,0.0,0.0,0.0,0.0,0.0,0.0,0.0,0.0,0.0,0.0,0.0,0.0,0.0,0.0,0.0,0.0,0.0,0.0,-3.6097,0.0,0.0,-3.6155,0.0,0.0,0.0,0.0,0.0,0.0,0.0,0.0,0.0,0.0,0.0,0.0,0.0,0.0,0.0,0.0,0.0,0.0,0.0,0.0,0.0,0.0,-2.9822,-2.921,-2.8946,-2.851,-2.805,-2.825,-2.8477,-2.87,-2.9198,-2.9754,-3.0254,0.0,0.0,0.0,0.0,0.0,0.0,0.0,0.0,0.0,0.0,0.0,0.0,0.0,0.0,0.0,0.0,0.0,0.0,0.0,0.0,0.0,0.0,0.0,0.0,0.0,0.0,-3.7744,-3.7034,-3.6844,0.0,0.0,0.0,0.0,0.0,0.0,0.0,0.0,0.0,-3.6523,-3.6783,-3.7124,-3.7353,-3.8031,-3.8733,-3.9292,-3.9424,-3.9424,-3.9424,-3.9424,-3.9634,0.0,0.0,0.0,0.0,0.0,0.0,0.0,0.0,0.0,0.0,0.0,0.0,0.0,0.0,0.0,0.0,0.0,0.0,0.0,0.0,0.0,0.0,0.0,0.0,0.0,0.0,0.0,-3.7562,-3.7319,0.0,0.0,0.0,0.0,0.0,0.0,0.0,0.0,0.0,0.0,0.0,-3.7191,-3.7144,0.0,0.0,0.0,0.0,0.0,0.0,0.0,0.0,0.0,0.0,0.0,0.0,-3.0437,-3.0606,-2.9607,-2.9005,-2.8928,-2.8682,-2.8717,-2.8951,-2.9544,-3.0342,-3.1416,0.0,0.0,0.0,0.0,0.0,0.0,0.0,0.0,0.0,0.0,0.0,0.0,0.0,0.0,0.0,0.0,0.0,0.0,0.0,0.0,0.0,0.0,0.0,0.0,0.0,-3.8024,0.0,0.0,0.0,0.0,0.0,0.0,0.0,0.0,0.0,0.0,0.0,-3.7175,-3.6693,-3.7123,-3.7425,-3.7398,-3.8366,-3.913,0.0,0.0,0.0,0.0,0.0,0.0,0.0,0.0,0.0,0.0,0.0,0.0,0.0,0.0,-4.2899,-4.3397,-4.3127,-4.2812,-4.2812,0.0,0.0,0.0,0.0,0.0,0.0,0.0,0.0,0.0,0.0,0.0,0.0,0.0,0.0,-3.8656,0.0,-3.8405,0.0,0.0,0.0,0.0,0.0,0.0,0.0,0.0,-3.7953,-3.7922,-3.7922,-3.7922,-3.8041,0.0,-3.8294,-3.8316,0.0,0.0,0.0,0.0,0.0,0.0,0.0,0.0,-3.1498,-3.1669,-3.0716,-3.0021,-2.9762,-2.9453,-2.9364,-2.9438,-3.0011,-3.0767,-3.1664,-3.2587,-3.3456,0.0,0.0,0.0,0.0,0.0,0.0,0.0,0.0,0.0,0.0,0.0,0.0,0.0,0.0,0.0,0.0,0.0,0.0,0.0,0.0,0.0,0.0,0.0,-3.8345,0.0,0.0,0.0,0.0,0.0,0.0,0.0,0.0,0.0,-3.8747,-3.8278,-3.7888,-3.7437,-3.7666,-3.7785,-3.7728,0.0,0.0,0.0,0.0,0.0,0.0,0.0,-3.9709,-4.0591,-4.11,-4.1745,-4.2707,-4.3319,-4.3753,-4.3863,0.0,0.0,-4.3928,-4.3629,-4.3344,-4.3423,-4.3423,-4.3367,-4.3025,-4.295,-4.2539,0.0,0.0,0.0,0.0,0.0,0.0,0.0,0.0,-4.0054,-4.0054,0.0,-3.9345,0.0,0.0,0.0,0.0,0.0,-3.799,0.0,0.0,-3.8024,-3.7973,-3.8007,-3.8007,-3.8345,-3.9005,-3.9022,-3.9327,-3.9766,-3.8337,0.0,0.0,0.0,0.0,0.0,0.0,-3.2945,-3.2396,-3.2144,-3.1508,-3.0561,-3.0522,-3.0397,-3.0027,-3.0593,-3.0952,-3.1049,-3.2026,-3.2876,-3.3615,-3.4672,0.0,0.0,0.0,0.0,0.0,0.0,0.0,0.0,0.0,0.0,0.0,0.0,0.0,0.0,0.0,0.0,0.0,0.0,0.0,0.0,-3.9175,0.0,0.0,0.0,0.0,0.0,0.0,0.0,0.0,0.0,0.0,-4.0166,-3.9412,-3.8896,-3.8727,0.0,0.0,0.0,0.0,-3.8646,-3.9292,-3.9424,-3.9424,-3.9424,-3.9424,-3.9858,-4.113,0.0,0.0,-4.3344,-4.4082,-4.4539,-4.4804,-4.4777,-4.4592,-4.3438,-4.3299,-4.3423,-4.3675,-4.369,-4.3754,-4.3849,-4.3821,-4.3452,-4.078,0.0,0.0,0.0,0.0,-4.0087,-4.0087,-4.0087,-4.0087,-4.0087,-4.007,-3.9868,0.0,0.0,0.0,0.0,0.0,0.0,-3.9462,-3.9462,-3.9462,-3.9462,-3.9462,-3.9462,-3.9563,-3.9766,-3.9766,-3.9884,-4.0003,-3.9547,-3.8875,-3.795,0.0,0.0,0.0,0.0,-3.432,-3.3758,-3.3024,-3.2582,-3.24,-3.1616,-3.1033,-3.0651,-3.0935,-3.1151,-3.1235,-3.269,-3.3654,-3.3974,-3.548,0.0,0.0,0.0,0.0,0.0,0.0,0.0,0.0,0.0,0.0,0.0,0.0,0.0,0.0,0.0,0.0,0.0,0.0,0.0,-3.9536,-3.9102,-3.8958,0.0,0.0,0.0,0.0,0.0,0.0,0.0,0.0,0.0,-4.1089,-4.0375,-3.9665,0.0,0.0,-3.8785,-3.8626,-3.8886,-3.9145,-3.9337,-3.9424,0.0,-3.9424,-3.9481,-3.9911,-4.0753,-4.1339,-4.1926,-4.2379,-4.2607,-4.2728,-4.3015,-4.297,-4.2909,-4.2862,-4.3335,-4.3756,-4.391,-4.391,-4.3728,-4.3396,-4.3274,-4.2878,-4.0755,-4.0087,-4.0087,-4.0087,-4.0087,-4.0087,-4.0087,-4.0087,-4.0087,-4.0087,-4.0087,-4.0087,-3.9867,-3.9427,-3.9443,0.0,0.0,0.0,-4.0087,-4.0087,-4.0087,-4.0087,-4.0087,-4.0087,-4.0087,-4.0087,-4.0087,-4.0087,-4.0087,-4.0087,-3.975,-3.9042,0.0,0.0,-3.6837,-3.5992,-3.5382,-3.4972,-3.4163,-3.3678,-3.3524,-3.2343,-3.1503,-3.1049,-3.123,-3.1504,-3.1914,-3.2999,-3.3986,-3.4749,-3.5871,-3.6829,0.0,0.0,0.0,0.0,0.0,0.0,0.0,0.0,0.0,0.0,0.0,-4.0708,-4.0414,0.0,0.0,0.0,-4.0402,-4.0399,-3.9953,-3.9694,0.0,0.0,0.0,0.0,0.0,0.0,0.0,-4.0087,-4.0256,-4.0687,-4.1483,-4.1222,-4.0784,-4.0293,-4.0002,-3.9673,-3.9319,0.0,-3.9666,-3.964,-3.964,-3.964,-3.964,-3.9783,-4.0051,-4.0773,-4.1513,-4.2071,-4.2233,-4.2249,-4.2379,-4.2628,-4.2716,-4.27,-4.29,-4.3437,-4.3756,-4.3547,-4.3547,-4.3409,-4.3085,-4.3008,-4.2738,-4.0729,-4.0155,-4.0155,-4.0138,-4.0087,-4.0087,-4.0121,-4.0087,-4.0138,-4.0138,-4.0121,-4.0121,-4.0138,-4.0138,-4.0121,0.0,-4.0138,-4.0121,-4.0121,-4.0121,-4.0121,-4.0104,-3.9986,-4.0003,-3.9952,-3.9952,-3.9918,-3.9918,-3.9952,-3.9952,-3.9986,-3.9969,-3.9277,-3.874,-3.8421,-3.7069,-3.627,-3.6057,-3.5382,-3.4736,-3.4068,-3.2916,-3.2006,-3.1433,-3.1611,-3.2149,-3.298,-3.3289,-3.4172,-3.5764,-3.6109,-3.672,-3.7738,0.0,0.0,0.0,0.0,0.0,0.0,0.0,0.0,0.0,0.0,0.0,0.0,0.0,0.0,-4.0813,-4.0778,0.0,-4.0533,-4.0742,0.0,0.0,0.0,-4.0222,-4.0087,-4.0087,-4.0087,-4.0087,0.0,0.0,-4.1538,-4.1848,-4.1934,-4.158,-4.1169,-4.0678,-4.0167,-4.0045,-4.0015,-4.0051,-4.0066,-4.0066,-4.0066,-4.0066,-4.0319,-4.1066,-4.174,-4.2222,-4.2509,-4.2667,-4.2856,-4.3106,-4.3254,-4.3277,-4.3469,-4.3453,-4.3362,-4.2871,-4.2854,-4.2916,-4.298,-4.302,-4.2816,-4.0476,-4.0408,-4.0408,-4.0256,-4.0087,-4.0206,-4.0269,-4.0275,-4.0339,-4.0407,-4.0417,-4.0402,-4.037,-4.0419,-4.0385,-4.0385,-4.0436,-4.0419,-4.0337,-4.0238,-4.0238,-3.99,-3.9259,-3.9242,-3.8954,-3.8447,-3.843,-3.843,-3.8447,-3.8988,-3.9259,-3.9276,-3.9631,-3.9479,-3.8857,-3.842,-3.7582,-3.6474,-3.6354,-3.5744,-3.4732,-3.4364,-3.3919,-3.3271,-3.3451,-3.3734,-3.4115,-3.4953,-3.5667,-3.6257,-3.7041,-3.7648,-3.8034,-3.8201,0.0,0.0,0.0,0.0,0.0,0.0,0.0,0.0,0.0,-4.2213,-4.2029,0.0,-4.1719,0.0,-4.1644,-4.1548,-4.1323,-4.0902,0.0,0.0,-4.0288,-4.0155,-4.0087,-4.0087,-4.0087,-4.0087,-4.024,-4.0526,-4.1073,-4.1021,-4.0925,-4.1021,-4.1294,-4.1294,-4.0882,-4.0538,-4.0355,-4.0324,-4.0355,-4.0385,-4.0355,-4.0539,-4.0761,-4.119,-4.1429,-4.1606,-4.181,-4.1877,-4.196,-4.2192,-4.2309,-4.2491,-4.2621,-4.2751,-4.28,-4.2751,-4.3036,-4.3277,-4.2858,-4.2732,-4.2538,-4.0419,-4.0502,-4.0519,-4.0468,-4.0385,-4.0357,-4.037,-4.0414,-4.0497,-4.0517,-4.0497,-4.0566,-4.0631,-4.068,-4.0693,-4.071,-4.068,-4.0631,-4.0551,-4.0436,-4.0063,-3.9623,-3.9183,-3.8826,-3.8404,-3.8031,-3.8014,-3.8014,-3.8048,-3.8421,-3.8625,-3.869,-3.9404,-3.9591,-3.92,-3.9054,-3.8413,-3.7293,-3.6729,-3.6041,-3.517,-3.5135,-3.4823,-3.4198,-3.4338,-3.4738,-3.533,-3.599,-3.6647,-3.7214,-3.7785,-3.8319,-3.8831,-3.8966,-3.9429,0.0,0.0,0.0,0.0,0.0,0.0,0.0,0.0,0.0,0.0,0.0,-4.2504,-4.2285,-4.2024,-4.1788,-4.1542,-4.1001,-4.0655,-4.0583,-4.0387,-4.0288,-4.0188,-4.0188,-4.0171,-4.0121,-4.0087,-4.0324,-4.0894,-4.0852,-4.0833,-4.1082,-4.1302,-4.1198,-4.0607,-4.0203,-4.0056,-4.0084,-4.0033,-4.0033,-4.0018,-4.0166,-4.0282,-4.0527,-4.0592,-4.064,-4.0912,-4.0976,-4.1039,-4.1323,-4.1432,-4.1555,-4.1756,-4.1833,-4.1894,-4.1931,-4.2185,-4.2318,-4.2157,-4.2076,-4.1948,-4.0565,-4.0582,-4.0582,-4.0651,-4.0737,-4.0671,-4.0617,-4.0595,-4.0582,-4.0603,-4.0594,-4.0693,-4.0823,-4.0918,-4.0965,-4.0982,-4.0918,-4.0823,-4.0741,-4.0573,-3.9825,-3.9367,-3.9115,-3.843,-3.8054,-3.7969,-3.7969,-3.7969,-3.7969,-3.8071,-3.8123,-3.814,-3.8875,-3.9286,-3.9316,-3.9255,-3.8849,-3.8162,-3.6915,-3.6086,-3.5654,-3.5647,-3.5409,-3.4914,-3.5063,-3.5634,-3.6541,-3.6768,-3.7313,-3.8234,-3.834,-3.8733,-3.9607,-3.9644,-4.0042,0.0,-4.1607,0.0,0.0,0.0,0.0,0.0,0.0,0.0,0.0,-4.3446,-4.316,-4.2688,-4.221,-4.1788,-4.1515,-4.1105,-4.0858,-4.0745,-4.0614,-4.0451,-4.0337,-4.0355,-4.0288,-4.0188,-4.0138,-4.0358,-4.0794,-4.0877,-4.097,-4.1056,-4.0981,-4.0647,-3.9923,-3.9704,-3.9708,-3.9597,-3.9597,-3.9771,-3.9723,-3.9676,-3.9723,-3.9861,-3.9971,-3.992,-4.0321,-4.0381,-4.0453,-4.0723,-4.0906,-4.0916,-4.1016,-4.1123,-4.1181,-4.1247,-4.1271,-4.1334,-4.1399,-4.1484,-4.1241,-4.0871,-4.0987,-4.1039,-4.1073,-4.1121,-4.118,-4.1122,-4.1013,-4.1064,-4.1081,-4.1053,-4.1071,-4.1117,-4.1163,-4.1244,-4.1244,-4.1163,-4.1226,-4.0804,-4.0032,-3.9893,-3.906,-3.7833,-3.7644,-3.7249,-3.6664,-3.6646,-3.6646,-3.6664,-3.7266,-3.7531,-3.7593,-3.8332,-3.8784,-3.898,0.0,0.0,0.0,-3.7137,-3.6771,-3.6785,-3.6852,-3.6849,-3.6875,-3.7004,0.0,-3.768,-3.7801,-3.8023,-3.8446,-3.8446,0.0,0.0,0.0,0.0,0.0,0.0,0.0,0.0,0.0,0.0,0.0,-4.3479,-4.3479,-4.3479,-4.3339,-4.3142,-4.2862,-4.2472,-4.2103,-4.1849,-4.1307,-4.094,-4.0888,-4.0638,-4.0508,-4.0468,-4.0468,-4.0436,-4.0436,-4.0337,-4.0306,-4.0408,-4.0256,-4.017,-4.0199,-3.9954,-3.974,-3.961,-3.991,-4.0192,-4.024,-4.0128,-4.0208,-4.024,-4.0192,-4.0172,-4.048,-4.048,-4.0567,-4.0684,-4.0759,-4.0851,-4.105,-4.1198,-4.1262,-4.1392,-4.161,-4.1599,-4.1738,-4.1705,-4.1621,-4.1196,-4.1096,-4.1072,-4.1128,-4.1244,-4.1261,-4.1394,0.0,-4.1128,-4.0972,-4.0951,-4.1268,-4.1433,-4.1455,-4.1077,-4.0964,-4.099,-4.0664,-4.0489,-4.0428,-4.0403,-4.0149,-3.9634,-3.9207,-3.8572,-3.7721,-3.7374,-3.7015,-3.665,-3.6632,-3.665,-3.6667,-3.705,-3.7182,-3.7182,-3.793,-3.838,-3.8548,-3.8755,-3.8607,-3.8156,-3.7526,-3.7309,-3.752,-3.7592,-3.763,-3.7739,-3.7898,0.0,0.0,0.0,0.0,0.0,0.0,0.0,0.0,-3.9294,0.0,-4.0432,-4.0506,-4.102,-4.2176,-4.2304,-4.2635,-4.3424,-4.3479,-4.3479,-4.3479,-4.3322,-4.3142,-4.2994,-4.2591,-4.2269,-4.2019,-4.1577,-4.1279,-4.1152,-4.0955,-4.0797,-4.071,-4.068,-4.0631,-4.0534,-4.0436,-4.0387,-4.0404,-4.0305,-4.0188,-4.0104,-3.9952,-3.9798,-3.9709,-3.9704,-3.9699,-3.9585,-3.9601,-3.9601,-3.9601,-3.9658,-3.9732,-3.9829,-3.9926,-4.0015,-4.0216,-4.0288,-4.0271,-4.042,-4.0513,-4.0584,-4.0638,-4.0745,-4.0799,-4.0799,-4.0816,-4.0745,-4.0453,-4.0663,-4.0779,-4.1366,-4.1455,-4.1367,-4.1464,-4.1587,-4.0841,-4.0559,-4.0712,0.0,0.0,0.0,-4.0778,-4.0548,-4.0577,-3.9979,-3.9656,-3.9656,-3.9575,-3.9446,-3.9247,-3.8531,-3.8144,-3.7985,-3.7386,-3.7087,-3.7087,-3.7087,-3.7087,-3.7087,-3.7087,-3.7105,-3.7158,-3.7703,-3.8042,-3.816,-3.8524,-3.8647,-3.8488,-3.7948,-3.7774,-3.8059,-3.8054,-3.8099,-3.8135,-3.8238,-3.8354,-3.8415,-3.8478,-3.859,-3.8719,-3.8738,-3.9013,-3.9656,-3.9711,-4.0005,-4.0648,-4.0703,-4.1071,-4.1842,-4.1897,-4.232,-4.3204,-4.3406,-4.3479,-4.3479,-4.3304,-4.3178,-4.3141,-4.2727,-4.2374,-4.2169,-4.1856,-4.1613,-4.1471,-4.1283,-4.1146,-4.1012,-4.0965,-4.0853,-4.068,-4.0631,-4.0583,-4.0566,-4.0517,-4.0468,-4.0337,-4.0238,-4.0138,-3.9918,-3.9551,-3.9242,-3.9171,-3.9166,-3.9035,-3.8985,-3.9106,-3.9148,-3.9263,-3.9288,-3.9329,-3.9468,-3.9537,-3.959,-3.9811,-3.9746,-3.9796,-3.9815,-3.9882,-3.9764,-3.9781,-3.9764,-3.9781,-3.9831,-4.0268,-4.045,-4.1705,-4.1701,-4.116,-4.0985,-4.0985,-4.0424,-4.0206,-4.0255,-4.0068,-4.0028,-4.0157,-4.0036,-3.9993,-4.0032,-4.006,-3.9968,-3.9854,-3.9968,-3.9575,-3.8821,-3.8676,-3.8267,-3.7681,-3.7557,-3.7503,-3.7503,-3.7503,-3.7503,-3.7503,-3.7503,-3.7503,-3.7521,-3.7628,-3.7755,-3.7936,-3.8217,-3.8404,-3.8489,-3.8303,-3.8225,-3.8232,-3.829,-3.8382,-3.8332,-3.8401,-3.8433,-3.8478,-3.8609,-3.8719,-3.8792,-3.8851,-3.8936,-3.9047,-3.9084,-3.9102,-3.9195,-3.9213,-3.9582,-4.0357,-4.0369,-4.0937,-4.2323,-4.3112,-4.3479,-4.3479,-4.3304,-4.3196,-4.3178,-4.2918,-4.2631,-4.236,-4.218,-4.1888,-4.1631,-4.1472,-4.1303,-4.1209,-4.1163,-4.118,-4.1071,-4.1059,-4.0935,-4.0823,-4.0728,-4.0631,-4.0534,-4.0485,-4.0387,-4.0205,-3.9917,-3.9656,-3.959,-3.9573,-3.9556,-3.9556,-3.9556,-3.9556,-3.9625,-3.9609,-3.9661,-3.9729,-3.9729,-3.9798,-3.9849,-3.9901,-3.9935,-4.0037,-4.0037,-4.0037,-4.002,-4.002,-4.002,-4.002,-4.0155,-4.0138,-4.0762,-4.0858,-4.0577,-4.0503,-4.0454,-3.9842,-3.9445,-3.9173,-3.8995,-3.9373,-4.0004,-3.9697,-3.9533,-3.9497,-3.9175,-3.896,-3.8924,-3.8978,-3.878,-3.8384,-3.8366,-3.8222,-3.7898,-3.788,-3.788,-3.788,-3.788,-3.788,-3.788,-3.788,-3.788,-3.788,-3.7933,-3.807,-3.8238,-3.8419,-3.8596,-3.8732,-3.8593,-3.8556,-3.8633,-3.8651,-3.867,-3.8683,-3.8683,-3.8664,-3.8725,-3.8792,-3.8822,-3.8851,-3.8881,-3.891,-3.891,-3.891,-3.891,-3.891,-3.891,-3.9261,-4.0055,-4.0486,-4.118,-4.2308,-4.2717,-4.3088,-4.3511,-4.3411,-4.3305,-4.3214,-4.2994,-4.2804,-4.2613,-4.2356,-4.2133,-4.1977,-4.1839,-4.1666,-4.1569,-4.1542,-4.1453,-4.1318,-4.129,-4.1215,-4.1088,-4.0977,-4.0948,-4.0884,-4.084,-4.0779,-4.0648,-4.0419,-4.0171,-3.9969,-3.9918,-3.9935,-3.9935,-3.9986,-4.0037,-4.0037,-4.0087,-4.0121,-4.0121,-4.0138,-4.0188,-4.0238,-4.0238,-4.0238,-4.032,-4.0337,-4.032,-4.0337,-4.0337,-4.0337,-4.032,-4.032,-4.0221,-3.9964,-4.017,-4.0002,-3.9893,-3.9753,-3.9264,-3.8761,-3.8343,-3.8358,-3.8911,-3.967,-3.9238,-3.901,-3.8938,-3.8425,-3.8186,-3.8186,-3.8168,-3.8186,-3.8168,-3.8168,-3.8186,-3.8219,-3.8201,-3.8201,-3.8201,-3.8201,-3.8234,-3.8201,-3.8234,-3.8201,-3.8252,-3.8354,-3.8465,-3.8572,-3.8701,-3.884,-3.8939,-3.8848,-3.8848,-3.8902,-3.8902,-3.8902,-3.891,-3.891,-3.891,-3.891,-3.8921,-3.895,-3.895,-3.8997,-3.9044,-3.9026,-3.9026,-3.9026,-3.9026,-3.9007,-3.9256,-3.9856,-4.0621,-4.1311,-4.187,-4.2065,-4.2492,-4.3229,-4.324,-4.3211,-4.3214,-4.3068,-4.2918,-4.2822,-4.257,-4.2409,-4.231,-4.2151,-4.2044,-4.1909,-4.1866,-4.178,-4.1577,-4.1515,-4.1471,-4.1346,-4.1346,-4.13,-4.1226,-4.1175,-4.1116,-4.0982,-4.0861,-4.0668,-4.0434,-4.0271,-4.0188,-4.0188,-4.0238,-4.0288,-4.0337,-4.0387,-4.0436,-4.0485,-4.0534,-4.0583,-4.0583,-4.0583,-4.0583,-4.0534,-4.0534,-4.0534,-4.0485,-4.0485,-4.0485,-4.0468,-4.0468,-4.0436,-4.0341,-4.0271,-3.9787,-3.9148,-3.8619,-3.8515,-3.8462,-3.8413,-3.8455,-3.8511,-3.8718,-3.8515,-3.8496,-3.846,-3.8419,-3.8382,-3.8382,-3.8382,-3.8382,-3.8382,-3.8382,-3.8415,-3.846,-3.8478,-3.8491,-3.8572,-3.8609,-3.8609,-3.8554,-3.8554,-3.859,-3.8658,-3.8719,-3.8743,-3.8773,-3.8892,-3.9007,-3.9073,-3.9135,-3.9076,-3.891,-3.8896,-3.8924,-3.891,-3.891,-3.891,-3.8939,-3.9017,-3.9073,-3.9101,-3.9248,-3.9365,-3.9365,-3.9346,-3.9365,-3.9346,-3.9346,-3.933,-3.9268,-3.9917,-4.0407,-4.0369,-4.1021,-4.176,-4.2516,-4.2548,-4.2779,-4.3156,-4.3178,-4.3049,-4.29,-4.2804,-4.2631,-4.2476,-4.2396,-4.2292,-4.2103,-4.2061,-4.2055,-4.1945,-4.1945,-4.1884,-4.1762,-4.1736,-4.1648,-4.1453,-4.1422,-4.1366,-4.129,-4.1161,-4.1171,-4.1019,-4.0741,-4.0517,-4.0468,-4.0468,-4.0517,-4.0534,-4.0534,-4.0549,-4.0611,-4.0594,-4.0645,-4.0393,-4.0681,-4.0599,-4.0573,-4.0697,-4.0528,-4.0306,-4.0292,-4.0431,-4.05,-4.038,-4.0314,-3.921,-3.9273,-3.9035,-3.8825,-3.8643,-3.8628,-3.8658,-3.8689,-3.8713,-3.8722,-3.8709,-3.8711,-3.8683,-3.8652,-3.8664,-3.8713,-3.8713,-3.8683,-3.8713,-3.8713,-3.8695,-3.8713,-3.8725,-3.8743,-3.8755,-3.8833,-3.8859,-3.8907,-3.8921,-3.8884,-3.8921,-3.895,-3.8979,-3.9007,-3.9036,-3.9073,-3.9175,-3.9275,-3.9295,-3.9295,-3.921,-3.9192,-3.9192,-3.9193,-3.9193,-3.9212,-3.9193,-3.9266,-3.9275,-3.9275,-3.9365,-3.9418,-3.9418,-3.9418,-3.9418,-3.9418,-3.9418,-3.9391,-3.9275,-3.961,-3.9974,-4.0365,-4.0585,-4.1063,-4.1897,-4.2253,-4.2617,-4.2812,-4.3118,-4.3233,-4.3105,-4.2994,-4.288,-4.2729,-4.2652,-4.257,-4.245,-4.2391,-4.2369,-4.2246,-4.2264,-4.2222,-4.2121,-4.2019,-4.1909,-4.1771,-4.1745,-4.1735,-4.1684,-4.1613,-4.1552,-4.1507,-4.1318,-4.1071,-4.0931,-4.0931,-4.0948,-4.0948,-4.0931,-4.0879,-4.0429,-4.0372,-4.0233,-3.9846,-3.9874,-3.9857,-3.9576,-3.9662,-3.96,-3.9623,-3.9571,-3.9554,-3.9571,-3.9554,-3.9566,-3.8477,-3.8593,-3.8579,-3.8718,-3.8859,-3.8857,-3.8884,-3.8962,-3.8958,-3.899,-3.8998,-3.9027,-3.9026,-3.8968,-3.8921,-3.891,-3.891,-3.8921,-3.8921,-3.8921,-3.8968,-3.895,-3.8979,-3.8979,-3.9007,-3.9082,-3.911,-3.9138,-3.9183,-3.9192,-3.9219,-3.9219,-3.9192,-3.9237,-3.9272,-3.9317,-3.9343,-3.9432,-3.9469,-3.9476,-3.9471,-3.9477,-3.9446,-3.9432,-3.9432,-3.9432,-3.9432,-3.9451,-3.9476,-3.9458,-3.9476,-3.9476,-3.9458,-3.9458,-3.9502,-3.9483,-3.9476,-3.9476,-3.9458,-3.9458,-3.9694,-4.0184,-4.0151,-4.0421,-4.1192,-4.1686,-4.2143,-4.2617,-4.2971,-4.3169,-4.3322,-4.3196,-4.3068,-4.2975,-4.2956,-4.286,-4.2765,-4.2727,-4.2631,-4.253,-4.249,-4.245,-4.2351,-4.2269,-4.2205,-4.2115,-4.2111,-4.2121,-4.2108,-4.2008,-4.1955,-4.1934,-4.1823,-4.1631,-4.1391,-4.1318,-4.1318,-4.123,-4.1178,-4.076,-4.0254,-4.0176,-3.9896,-3.9616,-3.9223,-3.9111,-3.9355,-3.9172,-3.8981,-3.8998,-3.8955,-3.8955,-3.9181,-3.9025,-3.8989,-3.8793,-3.8784,-3.8865,-3.8934,-3.898,-3.9005,-3.9043,-3.912,-3.9175,-3.92,-3.9205,-3.929,-3.9346,-3.932,-3.9064,-3.891,-3.8939,-3.8979,-3.9007,-3.9026,-3.9064,-3.9129,-3.9183,-3.9183,-3.9256,-3.9346,-3.9365,-3.9399,-3.9376,-3.9452,-3.9502,-3.9502,-3.9477,-3.9458,-3.9502,-3.9551,-3.9594,-3.9613,-3.9639,-3.9688,-3.9689,-3.9687,-3.9622,-3.9551,-3.9502,-3.9521,-3.9502,-3.9551,-3.9594,-3.9575,-3.9642,-3.9665,-3.9665,-3.9665,-3.9684,-3.9665,-3.9665,-3.9642,-3.9618,-3.9575,-3.9583,-3.952,-3.9544,-3.9799,-4.0549,-4.071,-4.1277,-4.2593,-4.2724,-4.2973,-4.3311,-4.3303,-4.3232,-4.3214,-4.316,-4.3142,-4.3049,-4.2938,-4.2862,-4.2783,-4.2688,-4.2649,-4.2609,-4.257,-4.2512,-4.2409,-4.2382,-4.2358,-4.2287,-4.2284,-4.2248,-4.2257,-4.2205,-4.2103,-4.1657,-4.1631,-4.1587,-4.142,-4.0981,-4.0446,-4.0303,-4.0063,-3.9682,-3.9388,-3.9176,-3.9141,-3.9288,-3.9265,-3.9065,-3.8995,-3.8883,-3.8859,-3.8649,-3.9017,-3.8944,-3.9006,-3.9069,-3.9175,-3.924,-3.9268,-3.9249,-3.927,-3.9294,-3.9324,-3.9345,-3.9389,-3.9458,-3.9446,-3.9446,-3.9324,-3.9264,-3.9221,-3.9239,-3.9266,-3.9248,-3.9264,-3.9317,-3.9343,-3.9376,-3.9427,-3.9514,-3.9508,-3.9539,-3.9604,-3.9604,-3.9647,-3.9712,-3.9693,-3.9735,-3.9758,-3.9781,-3.9781,-3.98,-3.9844,-3.9868,-3.9889,-3.9899,-3.9899,-3.987,-3.9712,-3.9647,-3.9712,-3.9717,-3.9758,-3.9781,-3.9804,-3.9826,-3.9823,-3.9838,-3.9838,-3.9823,-3.9823,-3.9781,-3.9717,-3.9735,-3.9689,-3.9618,-3.9551,-3.9639,-3.9965,-4.0312,-4.0848,-4.1474,-4.2385,-4.2897,-4.3087,-4.3336,-4.355,-4.3428,-4.3393,-4.3322,-4.3178,-4.3142,-4.3105,-4.3068,-4.3031,-4.2994,-4.288,-4.2842,-4.2747,-4.2667,-4.2588,-4.2548,-4.2512,-4.2487,-4.251,-4.2498,-4.2472,-4.2253,-4.1578,-4.1837,-4.1913,-4.1416,-4.092,-4.0192,-3.9807,-3.935,-3.8982,-3.8567,-3.8552,-3.8569,-3.8546,-3.849,-3.8472,-3.8341,-3.8267,-3.8369,-3.7994,-3.8351,-3.8258,-3.9259,-3.9312,-3.9394,-3.9447,-3.9451,-3.9464,-3.947,-3.9483,-3.9521,-3.9519,-3.958,-3.9566,-3.9575,-3.9599,-3.958,-3.9594,-3.9558,-3.9508,-3.9458,-3.9458,-3.9496,-3.9477,-3.9502,-3.9551,-3.9623,-3.9647,-3.9708,-3.9754,-3.9788,-3.9826,-3.9867,-3.9892,-3.9911,-3.9892,-3.9973,-3.9973,-3.9973,-3.997,-3.9943,-4.0006,-4.0036,-4.0021,-4.0041,-4.0058,-3.9892,-3.9845,-3.9911,-3.9892,-3.9911,-3.9954,-3.9973,-3.9973,-3.9973,-3.9968,-3.9968,-3.9973,-3.9973,-3.9933,-3.9911,-3.9911,-3.9889,-3.9804,-3.9735,-3.9689,-3.9703,-4.0096,-4.0434,-4.0907,-4.1538,-4.2248,-4.259,-4.3101,-4.3536,-4.356,-4.3618,-4.355,-4.3411,-4.3322,-4.3286,-4.3214,-4.3178,-4.3196,-4.3123,-4.305,-4.2975,-4.2918,-4.284,-4.2799,-4.2786,-4.2772,-4.2793,-4.277,-4.2497,-4.219,-4.1665,-4.1641,-4.1393,-4.0906,-4.0456,-3.9759,-3.9276,-3.8788,-3.8396,-3.7917,-3.7703,-3.7685,-3.7685,-3.7703,-3.7649,-3.7577,-3.7736,-3.8003,-3.777,-3.7646,-3.7731,-3.9514,-3.9502,-3.9483,-3.9571,-3.9596,-3.9603,-3.9642,-3.9688,-3.9722,-3.9721,-3.9716,-3.9721,-3.9777,-3.9804,-3.9823,-3.9845,-3.9845,-3.9712,-3.9623,-3.9618,-3.9665,-3.9689,-3.9712,-3.9758,-3.9804,-3.9826,-3.9914,-3.9975,-3.9996,-4.0036,-4.0057,-4.0096,-4.0077,-4.0077,-4.0117,-4.0117,-4.0098,-4.0117,-4.0115,-4.0096,-4.0098,-4.012,-4.012,-4.0118,-4.0098,-4.0098,-4.0098,-4.0098,-4.0098,-4.0117,-4.0098,-4.0098,-4.0117,-4.0117,-4.0098,-4.0117,-4.0117,-4.0117,-4.0077,-4.0077,-4.0057,-3.9975,-3.9933,-3.9867,-3.9823,-3.983,-4.0085,-4.0634,-4.0917,-4.1203,-4.1865,-4.2529,-4.3174,-4.3656,-4.3697,-4.3771,-4.3723,-4.3584,-4.341,-4.3286,-4.3251,-4.3214,-4.3214,-4.3196,-4.3178,-4.316,-4.3159,-4.3121,-4.3069,-4.2978,-4.3087,-4.296,-4.2377,-4.1723,-4.154,-4.1338,-4.0745,-4.0203,-3.977,-3.9284,-3.8978,-3.86,-3.8349,-3.7969,-3.7949,-3.7949,-3.7967,-3.7967,-3.7951,-3.7881,-3.7881,-3.7846,-3.7775,-3.7739,-3.7775,-3.9779,-3.9781,-3.9781,-3.9781,-3.9813,-3.9806,-3.9832,-3.9894,-3.9921,-3.993,-3.9977,-3.9992,-3.9992,-3.9994,-4.0015,-4.0015,-4.0036,-3.9954,-3.9889,-3.9826,-3.987,-3.9892,-3.9911,-3.9975,-3.9996,-4.0015,-4.0057,-4.0057,-4.0077,-4.0096,-4.0137,-4.0176,-4.0158,-4.0196,-4.0234,-4.029,-4.0308,-4.029,-4.0291,-4.0311,-4.0309,-4.0307,-4.0307,-4.0308,-4.0327,-4.029,-4.029,-4.0234,-4.0215,-4.0309,-4.0308,-4.0308,-4.029,-4.0309,-4.0328,-4.0309,-4.0252,-4.0234,-4.0177,-4.0177,-4.0138,-4.0077,-4.0057,-4.0036,-4.0015,-3.9933,-4.0003,-4.0314,-4.066,-4.1116,-4.1292,-4.1871,-4.2511,-4.3033,-4.3608,-4.3823,-4.3744,-4.3716,-4.3686,-4.36,-4.3532,-4.3479,-4.3463,-4.3428,-4.3322,-4.3267,-4.3233,-4.3178,-4.3087,-4.2644,-4.2388,-4.232,-4.1628,-4.1079,-4.075,-4.0422,-3.9956,-3.9638,-3.9295,-3.9007,-3.8717,-3.852,-3.8301,-3.8189,-3.8186,-3.8219,-3.8204,-3.8223,-3.8156,-3.8156,-3.807,-3.8036,-3.7967,-3.7969,-3.8005,-3.9989,-3.9979,-3.996,-3.9984,-3.9967,-3.9967,-3.9982,-4.0032,-4.0049,-4.0074,-4.0099,-4.0098,-4.0118,-4.0138,-4.0157,-4.0177,-4.0196,-4.0234,-4.0177,-4.0078,-4.0036,-4.0036,-4.0038,-4.0099,-4.0157,-4.0158,-4.0196,-4.0234,-4.0215,-4.0215,-4.0234,-4.0291,-4.0271,-4.0289,-4.0344,-4.0398,-4.0398,-4.0398,-4.0403,-4.0403,-4.0398,-4.0411,-4.0411,-4.0415,-4.0398,-4.0415,-4.0413,-4.0362,-4.0325,-4.0398,-4.0398,-4.0398,-4.0398,-4.04,-4.0417,-4.0398,-4.0362,-4.0325,-4.0271,-4.0272,-4.0253,-4.0215,-4.0177,-4.0138,-4.0138,-4.0078,-4.0015,-4.0089,-4.0385,-4.0658,-4.0637,-4.1205,-4.1773,-4.2053,-4.2704,-4.3218,-4.3348,-4.3434,-4.3592,-4.3638,-4.3719,-4.3686,-4.3652,-4.3618,-4.3369,-4.3185,-4.2973,-4.2719,-4.2532,-4.2026,-4.1831,-4.1559,-4.0994,-4.0463,-3.9886,-3.9502,-3.9118,-3.9031,-3.8911,-3.87,-3.8503,-3.8452,-3.8307,-3.83,-3.831,-3.83,-3.8336,-3.8318,-3.8336,-3.8285,-3.8252,-3.8219,-3.8186,-3.8153,-3.8174,-4.0119,-4.012,-4.012,-4.012,-4.0119,-4.0119,-4.0139,-4.0117,-4.0134,-4.0138,-4.012,-4.0139,-4.0158,-4.0196,-4.0234,-4.0271,-4.0381,-4.0381,-4.0362,-4.0308,-4.0215,-4.0138,-4.0157,-4.0196,-4.0252,-4.0289,-4.0344,-4.0381,-4.0381,-4.0381,-4.0398,-4.0398,-4.0398,-4.0396,-4.0396,-4.0415,-4.0413,-4.0432,-4.0415,-4.0415,-4.0413,-4.0422,-4.0419,-4.0413,-4.0413,-4.0449,-4.0482,-4.0482,-4.0466,-4.0432,-4.0413,-4.0413,-4.0396,-4.0415,-4.0432,-4.0432,-4.0415,-4.0396,-4.0415,-4.0398,-4.0381,-4.0363,-4.0271,-4.0215,-4.0215,-4.0158,-4.0118,-4.0098,-4.0133,-4.007,-4.0157,-4.0583,-4.0944,-4.096,-4.1646,-4.2221,-4.2672,-4.2753,-4.2934,-4.3402,-4.3652,-4.3619,-4.3416,-4.3453,-4.3088,-4.2668,-4.2375,-4.2081,-4.1682,-4.1396,-4.1212,-4.0848,-4.0349,-3.9945,-3.9423,-3.9258,-3.8927,-3.8927,-3.8792,-3.8687,-3.8533,-3.8469,-3.8469,-3.8442,-3.8436,-3.8428,-3.8415,-3.8465,-3.8465,-3.8433,-3.8433,-3.8415,-3.8382,-3.8318,-3.8303,-4.033,-4.0329,-4.0329,-4.0328,-4.0306,-4.0325,-4.0309,-4.033,-4.0311,-4.0291,-4.0307,-4.0325,-4.0326,-4.0344,-4.0344,-4.0362,-4.0415,-4.0415,-4.0398,-4.0398,-4.0363,-4.0327,-4.0308,-4.0326,-4.0362,-4.0379,-4.0379,-4.0398,-4.0398,-4.0415,-4.0415,-4.0415,-4.0449,-4.0466,-4.0485,-4.0479,-4.0457,-4.0476,-4.0476,-4.0476,-4.0457,-4.0454,-4.0469,-4.0457,-4.0457,-4.0476,-4.0492,-4.0492,-4.0492,-4.0476,-4.0476,-4.0457,-4.0476,-4.0476,-4.046,-4.046,-4.0463,-4.0466,-4.0468,-4.0432,-4.0415,-4.0398,-4.0362,-4.0344,-4.0344,-4.0271,-4.0234,-4.0196,-4.0157,-4.0137,-4.0114,-4.0222,-4.0249,-4.0272,-4.1098,-4.1849,-4.2081,-4.2109,-4.2145,-4.2321,-4.2344,-4.234,-4.2316,-4.2248,-4.2038,-4.1754,-4.1636,-4.1512,-4.1083,-4.0704,-4.0473,-4.0178,-3.9773,-3.9405,-3.9091,-3.898,-3.8888,-3.8907,-3.8829,-3.8817,-3.8689,-3.8627,-3.8627,-3.8621,-3.8572,-3.8578,-3.8578,-3.8627,-3.8627,-3.8578,-3.8528,-3.8496,-3.8446,-3.8415,-3.8401,-4.0403,-4.0417,-4.0417,-4.0413,-4.0408,-4.0408,-4.0396,-4.0403,-4.0404,-4.04,-4.0411,-4.0408,-4.0411,-4.0432,-4.0432,-4.043,-4.0447,-4.0427,-4.0447,-4.0427,-4.0447,-4.043,-4.0396,-4.0432,-4.0432,-4.0449,-4.0447,-4.0427,-4.0427,-4.0427,-4.0447,-4.0444,-4.0479,-4.0495,-4.0495,-4.0492,-4.0489,-4.0489,-4.0489,-4.0489,-4.0489,-4.0489,-4.0489,-4.0489,-4.0489,-4.0489,-4.0489,-4.0489,-4.0489,-4.0489,-4.0489,-4.0489,-4.0489,-4.0489,-4.0489,-4.0489,-4.0511,-4.0495,-4.0495,-4.0444,-4.0427,-4.0447,-4.0449,-4.0432,-4.0432,-4.0379,-4.0326,-4.0308,-4.0272,-4.0215,-4.0157,-4.0078,-3.9996,-4.0065,-4.0647,-4.1232,-4.1454,-4.1451,-4.1565,-4.1725,-4.182,-4.1763,-4.1678,-4.1582,-4.1349,-4.1123,-4.1063,-4.0785,-4.0465,-4.0049,-3.9788,-3.963,-3.9478,-3.9238,-3.9079,-3.8976,-3.8939,-3.8939,-3.8968,-3.891,-3.8792,-3.875,-3.8719,-3.8701,-3.8689,-3.8707,-3.8707,-3.8707,-3.8658,-3.8627,-3.8609,-3.859,-3.8559,-3.8559,-3.8528,-4.0406,-4.0412,-4.0412,-4.0412,-4.0412,-4.0412,-4.0422,-4.0413,-4.0415,-4.0408,-4.0415,-4.0412,-4.0438,-4.0482,-4.0499,-4.0495,-4.0489,-4.0473,-4.0489,-4.0489,-4.0473,-4.0441,-4.043,-4.0482,-4.0482,-4.0479,-4.0492,-4.0489,-4.0473,-4.0508,-4.0489,-4.0489,-4.0489,-4.0489,-4.0508,-4.0489,-4.0489,-4.0489,-4.0489,-4.0489,-4.0489,-4.0489,-4.0489,-4.0489,-4.0489,-4.0489,-4.0489,-4.0489,-4.0489,-4.0489,-4.0489,-4.0489,-4.0489,-4.0489,-4.0489,-4.0489,-4.0489,-4.0489,-4.0489,-4.0489,-4.0508,-4.0492,-4.0495,-4.0499,-4.0482,-4.0449,-4.0415,-4.0415,-4.0362,-4.0289,-4.0234,-4.0158,-4.0099,-4.0117,-4.0136,-4.0314,-4.0641,-4.0809,-4.1017,-4.1544,-4.1611,-4.1622,-4.1613,-4.153,-4.1268,-4.0458,-4.0375,-4.0216,-3.9974,-3.9728,-3.9514,-3.9397,-3.9259,-3.9175,-3.9082,-3.9026,-3.9026,-3.9026,-3.9054,-3.9026,-3.8929,-3.884,-3.8762,-3.8762,-3.8762,-3.878,-3.875,-3.875,-3.8719,-3.875,-3.8732,-3.8732,-3.8719,-3.8701,-3.8701,-4.0473,-4.0489,-4.0469,-4.0489,-4.0469,-4.0469,-4.0469,-4.0476,-4.0457,-4.0473,-4.0469,-4.0469,-4.0489,-4.0492,-4.0527,-4.0508,-4.0504,-4.0523,-4.0489,-4.0489,-4.0489,-4.0489,-4.0495,-4.055,-4.0511,-4.0511,-4.0508,-4.0508,-4.0527,-4.0604,-4.0508,-4.0546,-4.0527,-4.0489,-4.0489,-4.0489,-4.0489,-4.0489,-4.0489,-4.0489,-4.0489,-4.0489,-4.0489,-4.0489,-4.0489,-4.0489,-4.0489,-4.0489,-4.0489,-4.0489,-4.0489,-4.0489,-4.0489,-4.0489,-4.0489,-4.0489,-4.0489,-4.0489,-4.0489,-4.0489,-4.0489,-4.0489,-4.0508,-4.0508,-4.0492,-4.0499,-4.0466,-4.0466,-4.0432,-4.0362,-4.0344,-4.0252,-4.0196,-4.0177,-4.0139,-4.0138,-4.0243,-4.0189,-4.0226,-4.025,-4.0295,-4.0201,-4.0146,-4.0259,-4.0065,-3.9789,-3.9738,-3.9642,-3.9537,-3.9427,-3.942,-3.9388,-3.9335,-3.9309,-3.9264,-3.9202,-3.9193,-3.9166,-3.9166,-3.9193,-3.9054,-3.8987,-3.8939,-3.8892,-3.8862,-3.8851,-3.881,-3.884,-3.884,-3.887,-3.887,-3.884,-3.8822,-3.884,-3.884,-3.9342,-3.9323,-3.9323,-3.9554,-3.9896,-3.9935,-4.0162,-4.045,-4.0489,-4.0489,-4.0504,-4.0534,-4.0554,-4.0562,-4.0554,-4.0549,-4.0534,-4.0549,-4.053,-4.053,-4.053,-4.0534,-4.0693,-4.0904,-4.1001,-4.0677,-4.0969,-4.1085,-4.1104,-4.1123,-4.1143,-4.1046,-4.0739,-4.0508,-4.0489,-4.0489,-4.0489,-4.0489,-4.0489,-4.0489,-4.0489,-4.0489,-4.0489,-4.0489,-4.0489,-4.0489,-4.0489,-4.0489,-4.0489,-4.0489,-4.0489,-4.0489,-4.0489,-4.0489,-4.0489,-4.0489,-4.0489,-4.0489,-4.0489,-4.0489,-4.0489,-4.0489,-4.0489,-4.0489,-4.0489,-4.0492,-4.0495,-4.0499,-4.0466,-4.0432,-4.0415,-4.0344,-4.0289,-4.0289,-4.027,-4.0214,-4.0139,-4.0017,-3.9911,-3.9848,-3.994,-3.9898,-3.9777,-3.9717,-3.9712,-3.9816,-3.9763,-3.9671,-3.9677,-3.9575,-3.957,-3.9564,-3.9514,-3.9489,-3.9464,-3.9413,-3.9354,-3.9328,-3.932,-3.9301,-3.9256,-3.9166,-3.911,-3.9036,-3.895,-3.891,-3.8881,-3.891,-3.8939,-3.891,-3.8881,-3.891,-3.891,-3.891,-3.8899,-3.7986,-3.8001,-3.8001,-3.842,-3.9069,-3.9265,-3.9704,-4.0239,-4.0469,-4.0523,-4.0519,-4.0579,-4.0583,-4.0592,-4.0598,-4.0593,-4.0579,-4.0593,-4.0574,-4.0574,-4.0574,-4.0579,-4.0757,-4.1258,-4.1474,-4.0866,-4.1585,-4.197,-4.2008,-4.2008,-4.2008,-4.1854,-4.1143,-4.0873,-4.0758,-4.0527,-4.0489,-4.0489,-4.0489,-4.0489,-4.0489,-4.0489,-4.0489,-4.0489,-4.0489,-4.0489,-4.0489,-4.0489,-4.0489,-4.0489,-4.0489,-4.0489,-4.0489,-4.0489,-4.0489,-4.0489,-4.0489,-4.0489,-4.0489,-4.0489,-4.0489,-4.0489,-4.0489,-4.0489,-4.0489,-4.0489,-4.0508,-4.0492,-4.0476,-4.0463,-4.0432,-4.0413,-4.0413,-4.0396,-4.0396,-4.0342,-4.0233,-4.0158,-4.0118,-4.0036,-3.9994,-3.9954,-3.9933,-3.987,-3.9848,-3.9826,-3.9777,-3.9754,-3.9754,-3.9735,-3.9735,-3.9689,-3.9642,-3.9613,-3.957,-3.957,-3.9514,-3.9508,-3.9476,-3.9458,-3.9439,-3.9369,-3.929,-3.9147,-3.9045,-3.9007,-3.9026,-3.9082,-3.9054,-3.8979,-3.8979,-3.9082,-3.9054,-3.8979,-3.8987,-3.8003,-3.7993,-3.7993,-3.807,-3.8301,-3.8969,-3.9339,-3.9627,-4.0258,-4.0577,-4.0583,-4.0593,-4.0593,-4.0598,-4.0593,-4.0588,-4.0602,-4.0615,-4.0615,-4.0602,-4.0602,-4.0621,-4.0916,-4.1649,-4.1861,-4.1947,-4.2537,-4.2986,-4.2893,-4.2893,-4.2909,-4.2701,-4.2008,-4.1585,-4.1373,-4.0931,-4.0623,-4.0623,-4.0546,-4.0489,-4.0489,-4.0489,-4.0489,-4.0489,-4.0489,-4.0489,-4.0489,-4.0489,-4.0489,-4.0489,-4.0489,-4.0489,-4.0489,-4.0489,-4.0489,-4.0489,-4.0489,-4.0489,-4.0489,-4.0489,-4.0489,-4.0489,-4.0489,-4.0489,-4.0489,-4.0489,-4.0489,-4.0489,-4.0508,-4.0492,-4.0492,-4.0476,-4.0479,-4.046,-4.0425,-4.0386,-4.036,-4.0326,-4.0253,-4.0138,-4.0098,-4.0077,-4.0058,-4.0038,-4.0017,-3.9975,-3.9951,-3.993,-3.9911,-3.9914,-3.9916,-3.9851,-3.9804,-3.9735,-3.9689,-3.9689,-3.9684,-3.9661,-3.9637,-3.9594,-3.9594,-3.9551,-3.9477,-3.935,-3.9309,-3.9275,-3.9275,-3.9275,-3.9256,-3.921,-3.9256,-3.9275,-3.9229,-3.9202,-3.9268,-3.6713,-3.6708,-3.6708,-3.6966,-3.7392,-3.7808,-3.8546,-3.9345,-3.9811,-4.0211,-4.0516,-4.0615,-4.0642,-4.0662,-4.0694,-4.07,-4.0694,-4.0706,-4.0694,-4.0694,-4.0694,-4.0991,-4.1351,-4.2188,-4.2835,-4.3346,-4.4029,-4.4168,-4.3879,-4.3821,-4.3789,-4.3596,-4.2906,-4.2467,-4.2297,-4.1662,-4.1239,-4.1104,-4.0758,-4.0508,-4.0489,-4.0489,-4.0489,-4.0489,-4.0489,-4.0489,-4.0489,-4.0489,-4.0489,-4.0489,-4.0489,-4.0489,-4.0489,-4.0489,-4.0489,-4.0489,-4.0489,-4.0489,-4.0489,-4.0489,-4.0489,-4.0489,-4.0489,-4.0489,-4.0489,-4.0489,-4.0489,-4.0489,-4.0489,-4.0489,-4.0489,-4.0489,-4.0508,-4.0492,-4.0469,-4.0438,-4.0427,-4.0449,-4.0362,-4.0253,-4.0253,-4.0253,-4.0215,-4.0196,-4.0157,-4.0137,-4.0115,-4.0096,-4.0077,-4.0059,-4.0041,-3.9998,-3.9935,-3.9892,-3.9826,-3.9826,-3.9823,-3.9823,-3.98,-3.9781,-3.9758,-3.9758,-3.9735,-3.9689,-3.9613,-3.9533,-3.9439,-3.942,-3.942,-3.9464,-3.9439,-3.9439,-3.9439,-3.9432,-3.9462,-3.552,-3.5526,-3.5526,-3.5926,-3.6523,-3.676,-3.7585,-3.8761,-3.9287,-3.9779,-4.0345,-4.0604,-4.0706,-4.0738,-4.0781,-4.0804,-4.0807,-4.0807,-4.0796,-4.0796,-4.0796,-4.1219,-4.2066,-4.2912,-4.3614,-4.4302,-4.5119,-4.5364,-4.4851,-4.4716,-4.47,-4.4453,-4.3801,-4.3381,-4.3211,-4.2537,-4.2194,-4.162,-4.1197,-4.0754,-4.0558,-4.0523,-4.0523,-4.0504,-4.0504,-4.0489,-4.0489,-4.0489,-4.0489,-4.0489,-4.0489,-4.0489,-4.0489,-4.0489,-4.0489,-4.0489,-4.0489,-4.0489,-4.0489,-4.0489,-4.0489,-4.0489,-4.0489,-4.0489,-4.0489,-4.0489,-4.0489,-4.0489,-4.0489,-4.0489,-4.0489,-4.0489,-4.0489,-4.0489,-4.0508,-4.0508,-4.0495,-4.0479,-4.0463,-4.0413,-4.0413,-4.0436,-4.0441,-4.0308,-4.0272,-4.0272,-4.0234,-4.0234,-4.0215,-4.0196,-4.0177,-4.0119,-4.0078,-4.0058,-4.0017,-3.9975,-3.9954,-3.9951,-3.9951,-3.9933,-3.9933,-3.9933,-3.9911,-3.9889,-3.9823,-3.9731,-3.9623,-3.9575,-3.9618,-3.9642,-3.9618,-3.9618,-3.9642,-3.9618,-3.9607,-3.5586,-3.5584,-3.5584,-3.5663,-3.5867,-3.6466,-3.6868,-3.7347,-3.8747,-3.9502,-3.9765,-4.0424,-4.0718,-4.0784,-4.0818,-4.0818,-4.0818,-4.0828,-4.0828,-4.0828,-4.0848,-4.1332,-4.2164,-4.2997,-4.3935,-4.4763,-4.5531,-4.5717,-4.5491,-4.5441,-4.5484,-4.5275,-4.4735,-4.4349,-4.4203,-4.3451,-4.2652,-4.2039,-4.1782,-4.1339,-4.0752,-4.0631,-4.0577,-4.0573,-4.0539,-4.0504,-4.0504,-4.0504,-4.0523,-4.0504,-4.0489,-4.0489,-4.0489,-4.0489,-4.0489,-4.0489,-4.0489,-4.0489,-4.0489,-4.0489,-4.0489,-4.0489,-4.0489,-4.0489,-4.0489,-4.0489,-4.0489,-4.0489,-4.0489,-4.0489,-4.0489,-4.0489,-4.0489,-4.0566,-4.0623,-4.0623,-4.0627,-4.1223,-4.1111,-4.1014,-4.119,-4.0888,-4.0722,-4.0532,-4.0362,-4.0381,-4.0363,-4.0382,-4.0345,-4.0307,-4.0269,-4.0234,-4.0196,-4.0177,-4.0158,-4.0138,-4.0118,-4.0098,-4.0098,-4.0098,-4.0098,-4.0118,-4.0098,-4.0057,-3.9996,-3.9975,-3.9914,-3.987,-3.9848,-3.9826,-3.9804,-3.9804,-3.9848,-3.9804,-3.9758,-3.5631,-3.5623,-3.5624,-3.5604,-3.5657,-3.5979,-3.6413,-3.7,-3.7711,-3.8644,-3.9475,-3.9927,-4.0374,-4.0752,-4.0897,-4.0906,-4.0897,-4.0917,-4.0917,-4.0917,-4.1033,-4.1626,-4.2723,-4.3364,-4.4072,-4.5246,-4.5728,-4.5898,-4.5874,-4.5847,-4.58,-4.5699,-4.5428,-4.5205,-4.5055,-4.4345,-4.3809,-4.3196,-4.2487,-4.1745,-4.1305,-4.0891,-4.0598,-4.0598,-4.0583,-4.0545,-4.0549,-4.0554,-4.0573,-4.0539,-4.0504,-4.0489,-4.0489,-4.0489,-4.0489,-4.0489,-4.0489,-4.0489,-4.0489,-4.0489,-4.0489,-4.0489,-4.0489,-4.0489,-4.0489,-4.0489,-4.0489,-4.0489,-4.0489,-4.0489,-4.0489,-4.0489,-4.0489,-4.0585,-4.0989,-4.12,-4.1373,-4.1873,-4.2143,-4.2027,-4.1912,-4.1687,-4.1366,-4.1023,-4.0778,-4.0588,-4.0532,-4.0475,-4.0419,-4.0362,-4.0342,-4.0325,-4.0326,-4.0308,-4.0308,-4.029,-4.029,-4.0272,-4.0272,-4.0272,-4.0272,-4.0272,-4.0234,-4.0253,-4.0234,-4.0215,-4.0177,-4.0099,-4.0017,-3.9996,-3.9996,-3.9996,-4.0017,-3.9996,-3.9954,-3.5679,-3.5639,-3.5631,-3.5626,-3.5631,-3.5621,-3.6009,-3.6658,-3.6996,-3.7908,-3.9122,-3.9777,-4.0385,-4.0793,-4.0976,-4.0964,-4.0991,-4.0991,-4.0991,-4.103,-4.1381,-4.2183,-4.3158,-4.378,-4.4646,-4.6027,-4.5968,-4.6005,-4.6005,-4.5964,-4.5898,-4.5841,-4.5731,-4.5736,-4.5597,-4.5177,-4.4694,-4.4245,-4.3033,-4.24,-4.2131,-4.1422,-4.1112,-4.0924,-4.0756,-4.0588,-4.0588,-4.0579,-4.0583,-4.0583,-4.0549,-4.0534,-4.0534,-4.0539,-4.0539,-4.0523,-4.0523,-4.0489,-4.0489,-4.0489,-4.0489,-4.0489,-4.0489,-4.0489,-4.0489,-4.0489,-4.0489,-4.0489,-4.0489,-4.0489,-4.0546,-4.0677,-4.0927,-4.1239,-4.1627,-4.1896,-4.2203,-4.2624,-4.2797,-4.2604,-4.2566,-4.2739,-4.2341,-4.1726,-4.1289,-4.0891,-4.0718,-4.0624,-4.0528,-4.049,-4.0413,-4.0396,-4.0396,-4.0379,-4.0362,-4.0398,-4.0398,-4.0415,-4.0415,-4.0398,-4.0362,-4.0362,-4.0363,-4.0381,-4.0415,-4.0381,-4.029,-4.0215,-4.0177,-4.0196,-4.0196,-4.0158,-4.0138,-4.0138,-4.0098,-3.5727,-3.5782,-3.5727,-3.5678,-3.5679,-3.5696,-3.5763,-3.6056,-3.6755,-3.7588,-3.8746,-4.005,-4.0831,-4.0967,-4.1,-4.1007,-4.1007,-4.0987,-4.0987,-4.1279,-4.1844,-4.2636,-4.3525,-4.4335,-4.5126,-4.5946,-4.6093,-4.6093,-4.6084,-4.6065,-4.6007,-4.5917,-4.5917,-4.5905,-4.5854,-4.5674,-4.5318,-4.4794,-4.3755,-4.3311,-4.3008,-4.2467,-4.1951,-4.1718,-4.1137,-4.0621,-4.0626,-4.0853,-4.0819,-4.0833,-4.0786,-4.0612,-4.0617,-4.0583,-4.0569,-4.0569,-4.0554,-4.0519,-4.0504,-4.0504,-4.0489,-4.0489,-4.0489,-4.0489,-4.0489,-4.0527,-4.0527,-4.0681,-4.0893,-4.0854,-4.0966,-4.112,-4.1636,-4.195,-4.2376,-4.2799,-4.3066,-4.3258,-4.3374,-4.3162,-4.3297,-4.3624,-4.3682,-4.3145,-4.228,-4.1863,-4.1306,-4.119,-4.0768,-4.0652,-4.0537,-4.0463,-4.0482,-4.0466,-4.0396,-4.0413,-4.043,-4.043,-4.043,-4.0413,-4.0396,-4.0396,-4.0449,-4.0413,-4.043,-4.0413,-4.0415,-4.0362,-4.0325,-4.0362,-4.0381,-4.029,-4.0272,-4.0234,-4.0196,-3.5791,-3.5849,-3.5829,-3.5799,-3.5757,-3.5753,-3.5791,-3.5908,-3.6231,-3.7202,-3.8572,-4.022,-4.1064,-4.107,-4.1075,-4.1056,-4.1056,-4.1075,-4.1075,-4.1354,-4.1958,-4.283,-4.3682,-4.4559,-4.5319,-4.5995,-4.6157,-4.6157,-4.6157,-4.6142,-4.6091,-4.6047,-4.6017,-4.6005,-4.5975,-4.5972,-4.5743,-4.5415,-4.4705,-4.4233,-4.4005,-4.3369,-4.2872,-4.2795,-4.2647,-4.2325,-4.2344,-4.2286,-4.1963,-4.1608,-4.1445,-4.1195,-4.0853,-4.0781,-4.0728,-4.0689,-4.066,-4.0607,-4.0539,-4.0519,-4.0489,-4.0489,-4.0489,-4.0546,-4.07,-4.0989,-4.1239,-4.145,-4.172,-4.1835,-4.214,-4.2383,-4.2633,-4.2832,-4.3165,-4.3665,-4.3932,-4.4105,-4.4259,-4.4182,-4.447,-4.4816,-4.4797,-4.4682,-4.372,-4.2854,-4.2258,-4.17,-4.1373,-4.1046,-4.0992,-4.0954,-4.0976,-4.0861,-4.0828,-4.0674,-4.0537,-4.0578,-4.0636,-4.0655,-4.0735,-4.0479,-4.0495,-4.046,-4.0444,-4.0444,-4.0444,-4.046,-4.0444,-4.043,-4.0415,-4.0398,-4.0363,-4.0326,-4.029,-3.5624,-3.5877,-3.5891,-3.5853,-3.5833,-3.5833,-3.5872,-3.5885,-3.5905,-3.6877,-3.8619,-4.0272,-4.1111,-4.11,-4.1105,-4.1105,-4.1105,-4.1124,-4.128,-4.1753,-4.2455,-4.3255,-4.4094,-4.4909,-4.5724,-4.6147,-4.6201,-4.6189,-4.6189,-4.6196,-4.6164,-4.613,-4.6107,-4.6074,-4.6047,-4.6026,-4.6044,-4.5847,-4.5534,-4.5118,-4.4995,-4.4305,-4.3815,-4.371,-4.3435,-4.3203,-4.3152,-4.3059,-4.2898,-4.2576,-4.2338,-4.2047,-4.1685,-4.1401,-4.1285,-4.1117,-4.0968,-4.0916,-4.066,-4.0519,-4.0623,-4.0931,-4.0969,-4.1085,-4.1354,-4.1835,-4.2162,-4.2239,-4.272,-4.3124,-4.3195,-4.3211,-4.3404,-4.3585,-4.4239,-4.472,-4.4797,-4.4951,-4.5143,-4.5278,-4.5451,-4.5391,-4.5353,-4.518,-4.4564,-4.3621,-4.289,-4.245,-4.2258,-4.195,-4.1736,-4.1681,-4.1662,-4.1508,-4.1335,-4.153,-4.1723,-4.1783,-4.1726,-4.1338,-4.1223,-4.0966,-4.062,-4.0492,-4.0473,-4.0489,-4.0489,-4.0492,-4.046,-4.0427,-4.043,-4.0432,-4.0415,-4.0398,-4.0381,-3.5137,-3.5864,-3.5898,-3.5903,-3.5903,-3.5884,-3.5899,-3.5958,-3.6125,-3.701,-3.8639,-4.0313,-4.1109,-4.1113,-4.1101,-4.1108,-4.1108,-4.1147,-4.1479,-4.224,-4.3004,-4.4016,-4.4875,-4.5613,-4.6054,-4.6153,-4.6211,-4.6211,-4.6211,-4.6226,-4.6206,-4.6181,-4.617,-4.6144,-4.6083,-4.6093,-4.6104,-4.6066,-4.5998,-4.593,-4.5725,-4.5103,-4.4812,-4.4569,-4.418,-4.3936,-4.3945,-4.3943,-4.3765,-4.3443,-4.3354,-4.3156,-4.2937,-4.2873,-4.2609,-4.2027,-4.1923,-4.1509,-4.0839,-4.0631,-4.1097,-4.1678,-4.1809,-4.2021,-4.2698,-4.3047,-4.3102,-4.3118,-4.3387,-4.3371,-4.3487,-4.3794,-4.4141,-4.4485,-4.5101,-4.537,-4.5409,-4.5447,-4.558,-4.5618,-4.562,-4.5584,-4.562,-4.5505,-4.5101,-4.4408,-4.3599,-4.3198,-4.3082,-4.2717,-4.2425,-4.2345,-4.2306,-4.2325,-4.2287,-4.2678,-4.2909,-4.2951,-4.2736,-4.2252,-4.1867,-4.1617,-4.1232,-4.0735,-4.0519,-4.0534,-4.0519,-4.0489,-4.0473,-4.046,-4.0479,-4.0482,-4.0466,-4.0466,-4.0449,-3.4827,-3.5151,-3.5719,-3.5962,-3.5962,-3.5965,-3.5955,-3.6177,-3.7147,-3.8018,-3.8779,-4.0343,-4.1104,-4.1108,-4.1116,-4.1101,-4.1103,-4.1123,-4.1572,-4.247,-4.3368,-4.4169,-4.5046,-4.5841,-4.628,-4.6273,-4.6253,-4.6253,-4.6273,-4.6269,-4.6269,-4.6269,-4.6216,-4.6181,-4.6157,-4.617,-4.6157,-4.6169,-4.6158,-4.6141,-4.613,-4.5811,-4.5601,-4.5568,-4.52,-4.5035,-4.4987,-4.4948,-4.4753,-4.4383,-4.4295,-4.4067,-4.3715,-4.3555,-4.331,-4.295,-4.2879,-4.2776,-4.2447,-4.2377,-4.241,-4.268,-4.2761,-4.2896,-4.3181,-4.3759,-4.3933,-4.4129,-4.438,-4.4518,-4.498,-4.5024,-4.5216,-4.5224,-4.5568,-4.5571,-4.561,-4.561,-4.5668,-4.5684,-4.5668,-4.5651,-4.5651,-4.5687,-4.5379,-4.515,-4.4437,-4.4148,-4.4013,-4.34,-4.2938,-4.295,-4.293,-4.3046,-4.3204,-4.3554,-4.3612,-4.3497,-4.33,-4.293,-4.2603,-4.2395,-4.1855,-4.1393,-4.0949,-4.0545,-4.0549,-4.0519,-4.0504,-4.0508,-4.0508,-4.0511,-4.0495,-4.0495,-4.0476,-3.4144,-3.4739,-3.5295,-3.5747,-3.5971,-3.601,-3.6004,-3.6329,-3.7819,-3.857,-3.8912,-4.0318,-4.1114,-4.1114,-4.1099,-4.1128,-4.1149,-4.1482,-4.2029,-4.2888,-4.3747,-4.4685,-4.5484,-4.5957,-4.6239,-4.6293,-4.629,-4.629,-4.629,-4.629,-4.6306,-4.6296,-4.6269,-4.6245,-4.6216,-4.6206,-4.6189,-4.6203,-4.6203,-4.6203,-4.6164,-4.6092,-4.6086,-4.6086,-4.6025,-4.6057,-4.608,-4.6005,-4.5842,-4.5357,-4.5104,-4.4898,-4.445,-4.4284,-4.4148,-4.397,-4.3501,-4.3555,-4.3634,-4.3705,-4.3775,-4.4181,-4.3873,-4.3824,-4.4021,-4.4639,-4.4832,-4.5082,-4.5465,-4.5565,-4.5645,-4.5693,-4.5706,-4.5692,-4.5692,-4.5712,-4.5715,-4.5715,-4.5715,-4.5696,-4.5696,-4.5696,-4.5696,-4.5731,-4.5634,-4.5484,-4.5275,-4.5063,-4.4866,-4.4326,-4.3848,-4.3882,-4.3959,-4.4157,-4.4272,-4.4373,-4.4349,-4.4099,-4.3959,-4.382,-4.3578,-4.3389,-4.2729,-4.2015,-4.1514,-4.1036,-4.0694,-4.0583,-4.0549,-4.0549,-4.0549,-4.0534,-4.0504,-4.0504,-4.0504,-3.3113,-3.4546,-3.4703,-3.523,-3.5932,-3.601,-3.601,-3.6166,-3.7848,-3.8604,-3.873,-4.0368,-4.1105,-4.1114,-4.1114,-4.1144,-4.1328,-4.1953,-4.2734,-4.3613,-4.4355,-4.5312,-4.5898,-4.625,-4.6289,-4.6303,-4.6301,-4.6301,-4.6289,-4.6301,-4.6297,-4.629,-4.6284,-4.6284,-4.6257,-4.623,-4.6216,-4.6231,-4.6226,-4.6226,-4.6216,-4.6225,-4.6197,-4.6201,-4.6183,-4.6177,-4.617,-4.6098,-4.6057,-4.5971,-4.5974,-4.6007,-4.6017,-4.6085,-4.5482,-4.483,-4.4001,-4.4281,-4.4579,-4.4723,-4.4962,-4.5228,-4.4916,-4.5109,-4.5268,-4.5413,-4.5448,-4.5491,-4.5684,-4.5688,-4.5712,-4.5731,-4.5746,-4.5742,-4.5723,-4.5742,-4.5746,-4.5746,-4.5746,-4.5727,-4.5742,-4.5742,-4.5757,-4.5757,-4.5786,-4.5728,-4.5612,-4.5578,-4.5418,-4.5438,-4.5075,-4.5124,-4.524,-4.5437,-4.5437,-4.5143,-4.5119,-4.4916,-4.51,-4.5022,-4.4742,-4.4221,-4.3457,-4.2723,-4.2063,-4.1489,-4.0858,-4.0607,-4.0574,-4.0574,-4.0574,-4.0579,-4.0549,-4.0534,-4.0534,-3.2751,-3.3807,-3.4449,-3.5191,-3.5932,-3.601,-3.601,-3.6245,-3.7828,-3.8604,-3.8691,-4.043,-4.1133,-4.115,-4.117,-4.1191,-4.1504,-4.2031,-4.2871,-4.3769,-4.4707,-4.5508,-4.6016,-4.6289,-4.6289,-4.6289,-4.6289,-4.6289,-4.6289,-4.6289,-4.6289,-4.6307,-4.63,-4.6297,-4.6295,-4.6273,-4.6264,-4.6273,-4.6273,-4.6273,-4.6253,-4.6257,-4.6273,-4.626,-4.6231,-4.6226,-4.6176,-4.6176,-4.6164,-4.617,-4.6164,-4.6169,-4.6111,-4.6111,-4.5821,-4.5774,-4.5464,-4.5473,-4.5627,-4.5634,-4.572,-4.5863,-4.5602,-4.5615,-4.5796,-4.5841,-4.5822,-4.5827,-4.5814,-4.5814,-4.58,-4.5814,-4.5814,-4.5833,-4.5827,-4.5822,-4.5827,-4.5827,-4.5827,-4.5827,-4.5827,-4.5827,-4.5841,-4.5841,-4.5867,-4.5861,-4.588,-4.5867,-4.5848,-4.5822,-4.5796,-4.5794,-4.5814,-4.578,-4.5808,-4.5602,-4.5699,-4.5777,-4.5822,-4.5769,-4.5421,-4.484,-4.4118,-4.3176,-4.2125,-4.139,-4.0783,-4.0648,-4.0642,-4.0602,-4.0607,-4.0593,-4.0593,-4.0559,-4.0564,-3.2109,-3.2951,-3.3816,-3.4874,-3.5908,-3.6016,-3.6018,-3.6318,-3.7862,-3.8611,-3.8828,-4.0449,-4.1191,-4.1191,-4.1191,-4.123,-4.1308,-4.2461,-4.3301,-4.3789,-4.4941,-4.5703,-4.6191,-4.6289,-4.6289,-4.6289,-4.6289,-4.6289,-4.6289,-4.6289,-4.6289,-4.6289,-4.6289,-4.6289,-4.6301,-4.628,-4.6297,-4.629,-4.6287,-4.6306,-4.6306,-4.6306,-4.6296,-4.6292,-4.6245,-4.6245,-4.6221,-4.6221,-4.6236,-4.6226,-4.624,-4.6183,-4.6144,-4.6137,-4.613,-4.6068,-4.6013,-4.5938,-4.6007,-4.5979,-4.6017,-4.6026,-4.6016,-4.5966,-4.5914,-4.5922,-4.5898,-4.5873,-4.5886,-4.5886,-4.5905,-4.5893,-4.5912,-4.5932,-4.5917,-4.5922,-4.5922,-4.5922,-4.5941,-4.5941,-4.5941,-4.5941,-4.5941,-4.5953,-4.5953,-4.5972,-4.5991,-4.598,-4.5941,-4.5914,-4.5891,-4.5861,-4.5861,-4.5873,-4.5898,-4.5929,-4.5917,-4.5917,-4.5905,-4.5866,-4.5801,-4.5421,-4.4659,-4.3342,-4.1908,-4.1292,-4.0784,-4.0713,-4.0694,-4.0668,-4.0668,-4.0681,-4.0655,-4.0635,-4.0607,-3.1389,-3.2233,-3.3105,-3.4473,-3.5801,-3.5947,-3.6009,-3.6191,-3.7734,-3.8516,-3.8906,-4.0332,-4.1074,-4.1152,-4.1191,-4.1191,-4.168,-4.2715,-4.3496,-4.3808,-4.5371,-4.6191,-4.623,-4.6289,-4.6289,-4.6289,-4.6289,-4.6289,-4.6289,-4.6289,-4.6289,-4.6289,-4.6289,-4.6289,-4.6306,-4.6305,-4.6303,-4.6303,-4.6297,-4.6295,-4.63,-4.6295,-4.6303,-4.6303,-4.6284,-4.6284,-4.6284,-4.63,-4.6296,-4.6284,-4.626,-4.6231,-4.6206,-4.6176,-4.6189,-4.6177,-4.6137,-4.613,-4.6135,-4.6119,-4.6091,-4.6102,-4.6102,-4.6093,-4.6047,-4.6007,-4.5975,-4.5975,-4.5975,-4.5956,-4.5975,-4.5975,-4.5983,-4.6003,-4.6014,-4.5997,-4.6017,-4.6017,-4.6017,-4.6027,-4.6027,-4.6027,-4.6056,-4.6056,-4.6056,-4.6095,-4.6095,-4.6085,-4.6066,-4.6008,-4.5968,-4.5944,-4.5964,-4.5975,-4.5975,-4.5975,-4.5983,-4.5983,-4.5983,-4.5975,-4.5936,-4.5603,-4.52,-4.371,-4.2218,-4.1421,-4.0904,-4.0815,-4.0776,-4.0776,-4.0776,-4.0787,-4.0754,-4.0706,-4.0694,-3.1405,-3.2323,-3.3769,-3.4668,-3.5078,-3.5722,-3.6016,-3.6094,-3.7129,-3.7969,-3.873,-3.9707,-4.0644,-4.1152,-4.1191,-4.1191,-4.1582,-4.2832,-4.3555,-4.4238,-4.5488,-4.6269,-4.6289,-4.6289,-4.6289,-4.6289,-4.6289,-4.6289,-4.6289,-4.6289,-4.6289,-4.6289,-4.6289,-4.6289,-4.6289,-4.6289,-4.6289,-4.6289,-4.6289,-4.6289,-4.6289,-4.6289,-4.6306,-4.6301,-4.6297,-4.6297,-4.6295,-4.6287,-4.6303,-4.6296,-4.6296,-4.6273,-4.6253,-4.6221,-4.6211,-4.6201,-4.6181,-4.6176,-4.6164,-4.617,-4.6164,-4.6157,-4.6176,-4.6169,-4.6146,-4.6084,-4.6066,-4.6056,-4.6056,-4.6037,-4.6037,-4.6056,-4.6066,-4.6085,-4.6095,-4.6095,-4.6093,-4.6083,-4.6083,-4.6091,-4.6119,-4.6127,-4.6146,-4.6146,-4.6174,-4.6177,-4.6171,-4.6171,-4.6174,-4.613,-4.6088,-4.6054,-4.6047,-4.6066,-4.6056,-4.6056,-4.6056,-4.6056,-4.6047,-4.6066,-4.6056,-4.5502,-4.491,-4.386,-4.2663,-4.1761,-4.1102,-4.0888,-4.0869,-4.0859,-4.0859,-4.0869,-4.0859,-4.0829,-4.0804,-3.1172,-3.1816,-3.3418,-3.4355,-3.4824,-3.5625,-3.6016,-3.6094,-3.6523,-3.7422,-3.8633,-3.9512,-4.0371,-4.1113,-4.1191,-4.1191,-4.1523,-4.2969,-4.3535,-4.4219,-4.5293,-4.6074,-4.6289,-4.6289,-4.6289,-4.6289,-4.6289,-4.6289,-4.6289,-4.6289,-4.6289,-4.6289,-4.6289,-4.6289,-4.6289,-4.6289,-4.6289,-4.6289,-4.6289,-4.6289,-4.6289,-4.6289,-4.6289,-4.6307,-4.6289,-4.6289,-4.6305,-4.63,-4.6293,-4.6293,-4.6293,-4.6306,-4.628,-4.6253,-4.6269,-4.6264,-4.6245,-4.6245,-4.6236,-4.6226,-4.6215,-4.6215,-4.6209,-4.6183,-4.6203,-4.613,-4.6135,-4.6154,-4.6138,-4.6138,-4.6138,-4.6138,-4.6152,-4.6162,-4.6158,-4.6162,-4.6157,-4.6164,-4.6151,-4.617,-4.617,-4.6177,-4.6177,-4.6177,-4.6196,-4.6196,-4.6196,-4.6208,-4.6203,-4.622,-4.6183,-4.6151,-4.615,-4.6146,-4.6138,-4.6146,-4.6135,-4.6135,-4.6135,-4.613,-4.6044,-4.5321,-4.455,-4.3778,-4.2921,-4.1945,-4.1385,-4.1104,-4.0949,-4.0937,-4.0937,-4.0929,-4.0949,-4.0941,-4.0926,-3.0918,-3.1133,-3.2598,-3.373,-3.459,-3.5449,-3.5898,-3.5996,-3.6055,-3.7012,-3.8535,-3.9355,-4.0273,-4.0957,-4.1191,-4.1191,-4.1719,-4.3027,-4.3555,-4.418,-4.5508,-4.6094,-4.6289,-4.6289,-4.6289,-4.6289,-4.6289,-4.6289,-4.6289,-4.6289,-4.6289,-4.6289,-4.6289,-4.6289,-4.6289,-4.6289,-4.6289,-4.6289,-4.6289,-4.6289,-4.6289,-4.6289,-4.6289,-4.6289,-4.6289,-4.6289,-4.6289,-4.6287,-4.6303,-4.6303,-4.6303,-4.63,-4.6295,-4.629,-4.6287,-4.6284,-4.6277,-4.6273,-4.6288,-4.626,-4.6236,-4.6231,-4.6211,-4.6211,-4.6211,-4.6226,-4.6215,-4.6222,-4.6216,-4.6203,-4.6203,-4.6203,-4.6201,-4.6212,-4.6209,-4.6209,-4.6201,-4.6206,-4.6226,-4.6226,-4.6211,-4.6211,-4.6211,-4.6211,-4.6211,-4.6211,-4.6211,-4.6211,-4.6216,-4.624,-4.6216,-4.6211,-4.6215,-4.6222,-4.6209,-4.6209,-4.6196,-4.617,-4.617,-4.6189,-4.6084,-4.5631,-4.4988,-4.407,-4.3187,-4.2422,-4.1675,-4.124,-4.113,-4.1071,-4.1007,-4.1026,-4.1026,-4.102,-4.0993,-3.0918,-3.0996,-3.2012,-3.291,-3.373,-3.4609,-3.5332,-3.5937,-3.6035,-3.6973,-3.832,-3.8828,-3.9648,-4.1191,-4.1191,-4.123,-4.1484,-4.291,-4.3555,-4.4004,-4.5527,-4.6094,-4.6289,-4.6289,-4.6289,-4.6289,-4.6289,-4.6289,-4.6289,-4.6289,-4.6289,-4.6289,-4.6289,-4.6289,-4.6289,-4.6289,-4.6289,-4.6289,-4.6289,-4.6289,-4.6289,-4.6289,-4.6289,-4.6289,-4.6289,-4.6289,-4.6289,-4.6289,-4.6289,-4.6289,-4.6289,-4.6289,-4.6306,-4.6301,-4.63,-4.6297,-4.6293,-4.6306,-4.628,-4.6277,-4.6277,-4.6277,-4.6257,-4.6257,-4.6277,-4.6273,-4.6269,-4.6269,-4.626,-4.6206,-4.6201,-4.6201,-4.6209,-4.6195,-4.6216,-4.6211,-4.6216,-4.624,-4.626,-4.6264,-4.6269,-4.6273,-4.6277,-4.6277,-4.6277,-4.6273,-4.6273,-4.6253,-4.6257,-4.6261,-4.6264,-4.6277,-4.6269,-4.6236,-4.6206,-4.622,-4.622,-4.622,-4.622,-4.6234,-4.6228,-4.6176,-4.5504,-4.4543,-4.3875,-4.3217,-4.2471,-4.171,-4.1359,-4.1301,-4.1145,-4.1086,-4.1086,-4.1086,-4.1061]}]]